GFSGBSN_500_temp_000.txt.gz
Temp
-4 -4 -4 -4 -4 -4 -4 -4 -4 -3 -3 -3 -3 -3 -3 -3 -3 -3 -3 -3 -3 -3 -3 -3 -3 -2 -2 -2 -1 -2 -2 -3 -3 -4 -5 -5 -5 -6 -6 -7 -7 -7 -7 -7 -7 -6 -6
-4 -4 -4 -4 -4 -4 -4 -4 -4 -4 -4 -3 -3 -3 -3 -3 -3 -3 -4 -4 -3 -3 -3 -3 -3 -3 -3 -2 -2 -2 -2 -2 -3 -3 -5 -5 -6 -6 -6 -7 -7 -7 -7 -7 -6 -6 -6
-4 -4 -5 -5 -5 -4 -4 -4 -4 -4 -4 -4 -4 -4 -3 -4 -4 -4 -4 -4 -4 -4 -4 -4 -3 -3 -3 -3 -2 -2 -2 -2 -3 -3 -3 -5 -6 -6 -6 -7 -8 -7 -7 -7 -6 -6 -6
-5 -5 -5 -5 -5 -5 -5 -4 -4 -4 -4 -4 -4 -4 -4 -4 -4 -4 -4 -4 -4 -4 -4 -4 -4 -4 -3 -3 -3 -3 -3 -3 -3 -3 -3 -4 -5 -6 -6 -6 -7 -7 -7 -8 -6 -7 -7
-5 -5 -5 -5 -5 -5 -5 -5 -5 -5 -5 -4 -4 -4 -4 -4 -4 -4 -4 -4 -4 -4 -4 -4 -4 -4 -4 -3 -3 -3 -3 -3 -3 -3 -3 -3 -4 -5 -6 -7 -7 -7 -8 -8 -7 -7 -7
-5 -5 -5 -5 -5 -5 -5 -5 -5 -5 -5 -5 -5 -4 -4 -4 -4 -4 -4 -4 -4 -4 -4 -4 -4 -5 -4 -4 -3 -3 -3 -3 -3 -3 -3 -2 -3 -4 -5 -6 -6 -8 -7 -8 -8 -7 -7
-5 -5 -5 -4 -4 -4 -4 -4 -5 -5 -5 -5 -5 -5 -4 -4 -4 -4 -4 -4 -4 -4 -4 -4 -4 -5 -4 -4 -4 -4 -4 -4 -3 -3 -4 -3 -2 -2 -4 -5 -6 -8 -8 -8 -8 -8 -8
-5 -5 -5 -4 -4 -4 -4 -4 -4 -4 -4 -5 -5 -5 -5 -5 -4 -4 -4 -4 -4 -4 -5 -4 -4 -4 -4 -4 -4 -4 -4 -3 -4 -4 -4 -4 -2 -3 -5 -6 -6 -8 -8 -8 -8 -8 -8
-5 -5 -5 -5 -5 -5 -4 -5 -4 -4 -4 -4 -4 -5 -5 -5 -5 -5 -5 -4 -4 -4 -4 -5 -4 -4 -4 -4 -4 -4 -3 -4 -4 -4 -4 -4 -4 -4 -4 -5 -6 -7 -8 -8 -7 -8 -8
-5 -5 -5 -5 -5 -5 -5 -5 -5 -5 -4 -4 -4 -4 -5 -4 -5 -5 -5 -5 -5 -4 -4 -5 -5 -4 -4 -4 -4 -4 -4 -4 -4 -4 -4 -5 -5 -4 -4 -5 -6 -7 -7 -8 -8 -8 -8
-5 -5 -5 -5 -5 -5 -5 -5 -5 -5 -5 -4 -5 -5 -5 -5 -5 -5 -5 -5 -5 -5 -5 -4 -4 -4 -5 -4 -4 -4 -4 -4 -4 -4 -4 -4 -5 -4 -5 -4 -5 -6 -8 -7 -8 -8 -8
-5 -5 -5 -5 -5 -5 -5 -5 -5 -5 -5 -5 -5 -5 -5 -5 -5 -5 -5 -5 -5 -5 -4 -5 -5 -5 -5 -5 -5 -5 -5 -5 -5 -4 -5 -5 -5 -5 -5 -6 -6 -6 -9 -8 -8 -8 -8
-6 -6 -6 -5 -5 -5 -5 -5 -5 -5 -5 -5 -5 -5 -5 -6 -6 -5 -6 -6 -6 -5 -5 -5 -6 -6 -5 -5 -5 -5 -5 -5 -5 -5 -4 -5 -5 -5 -5 -6 -7 -7 -8 -8 -9 -8 -8
-6 -6 -5 -5 -5 -5 -5 -5 -5 -5 -5 -5 -6 -6 -6 -6 -7 -6 -6 -7 -5 -5 -5 -6 -6 -6 -6 -6 -5 -5 -5 -5 -5 -5 -5 -5 -5 -5 -5 -6 -6 -6 -7 -8 -8 -8 -8
-6 -6 -5 -5 -5 -5 -5 -6 -6 -6 -6 -6 -6 -6 -6 -7 -7 -8 -7 -6 -5 -6 -6 -7 -7 -7 -6 -6 -6 -6 -6 -5 -5 -5 -6 -6 -5 -6 -6 -6 -8 -7 -7 -8 -8 -8 -8
-5 -5 -5 -5 -5 -6 -6 -6 -6 -7 -8 -8 -8 -8 -8 -8 -8 -8 -8 -6 -6 -6 -6 -8 -7 -7 -7 -7 -6 -6 -6 -6 -6 -6 -7 -7 -7 -7 -7 -7 -7 -8 -7 -8 -9 -8 -8
-5 -5 -5 -5 -6 -6 -7 -7 -7 -8 -9 -9 -8 -9 -8 -8 -9 -9 -8 -8 -8 -8 -9 -8 -8 -8 -7 -8 -7 -7 -7 -7 -7 -7 -7 -8 -7 -9 -8 -7 -7 -8 -9 -8 -9 -9 -8
-5 -5 -5 -5 -6 -6 -7 -7 -8 -8 -9 -9 -9 -9 -9 -10 -10 -9 -9 -9 -9 -9 -9 -10 -9 -9 -8 -8 -8 -8 -8 -8 -7 -8 -8 -8 -9 -8 -7 -7 -8 -10 -9 -10 -9 -8 -9
-6 -7 -7 -7 -8 -8 -9 -9 -10 -11 -11 -11 -11 -11 -11 -11 -11 -12 -11 -11 -11 -10 -11 -11 -10 -10 -9 -9 -9 -9 -8 -9 -9 -9 -9 -10 -9 -11 -9 -10 -10 -10 -10 -10 -10 -9 -8
-9 -9 -10 -11 -12 -12 -13 -14 -14 -15 -15 -15 -15 -15 -15 -14 -14 -13 -13 -12 -12 -11 -12 -12 -11 -11 -10 -10 -10 -9 -9 -10 -10 -10 -10 -9 -11 -9 -10 -9 -9 -9 -8 -10 -10 -9 -9
-13 -14 -14 -15 -16 -16 -17 -18 -18 -18 -18 -19 -19 -19 -18 -18 -17 -16 -15 -14 -13 -13 -12 -13 -12 -11 -11 -11 -10 -10 -10 -11 -11 -11 -11 -10 -10 -12 -10 -10 -11 -11 -11 -10 -10 -9 -10
-16 -16 -17 -18 -20 -20 -21 -21 -22 -22 -22 -22 -22 -22 -21 -20 -20 -19 -19 -17 -15 -15 -14 -14 -13 -12 -12 -11 -11 -11 -11 -12 -12 -13 -11 -11 -11 -11 -12 -11 -12 -11 -11 -11 -11 -8 -9
-18 -19 -21 -22 -22 -23 -22 -23 -24 -24 -23 -24 -24 -24 -23 -22 -21 -21 -20 -19 -18 -17 -15 -15 -14 -13 -12 -12 -11 -11 -11 -11 -12 -12 -11 -11 -11 -11 -12 -11 -11 -11 -11 -11 -11 -10 -9
-22 -23 -23 -23 -23 -23 -24 -24 -24 -24 -24 -25 -25 -25 -25 -23 -23 -22 -21 -20 -19 -18 -17 -17 -16 -15 -15 -13 -13 -13 -12 -12 -12 -12 -12 -11 -11 -12 -12 -11 -12 -10 -11 -11 -11 -10 -9
-23 -23 -24 -24 -24 -25 -25 -25 -25 -25 -25 -25 -25 -25 -25 -24 -24 -23 -22 -21 -21 -20 -19 -19 -18 -17 -16 -15 -15 -14 -13 -13 -12 -12 -12 -12 -12 -13 -12 -12 -12 -10 -11 -11 -11 -11 -11
-24 -24 -25 -24 -25 -25 -25 -25 -25 -25 -25 -25 -25 -26 -25 -25 -25 -24 -24 -23 -22 -21 -20 -19 -19 -18 -18 -18 -17 -16 -14 -13 -13 -12 -13 -12 -12 -12 -13 -13 -12 -12 -11 -11 -11 -10 -10
-26 -26 -25 -25 -25 -26 -26 -26 -26 -26 -25 -25 -25 -26 -25 -25 -25 -25 -24 -23 -23 -21 -21 -20 -19 -19 -19 -19 -18 -16 -15 -15 -14 -13 -12 -12 -12 -12 -13 -13 -12 -10 -11 -11 -11 -10 -10
-27 -26 -26 -26 -26 -26 -26 -26 -26 -26 -26 -26 -27 -26 -25 -25 -25 -25 -24 -23 -23 -22 -21 -21 -20 -19 -19 -18 -17 -17 -16 -15 -15 -14 -12 -12 -12 -13 -13 -13 -12 -10 -11 -11 -10 -10 -10
-27 -26 -26 -26 -26 -26 -27 -27 -27 -27 -27 -27 -27 -26 -26 -25 -25 -24 -23 -23 -22 -22 -22 -21 -20 -19 -19 -18 -17 -17 -16 -13 -14 -15 -14 -13 -12 -14 -12 -12 -11 -11 -11 -11 -10 -10 -10

GFSGBSN_500_temp_003.txt.gz
Temp
-4 -4 -4 -4 -4 -4 -4 -4 -4 -4 -4 -3 -3 -3 -3 -3 -3 -3 -3 -3 -3 -3 -3 -3 -3 -2 -3 -2 -2 -2 -2 -2 -3 -4 -4 -5 -5 -6 -7 -7 -8 -8 -8 -8 -8 -7 -9
-4 -4 -4 -4 -4 -4 -4 -4 -4 -4 -4 -3 -3 -3 -3 -3 -3 -3 -3 -3 -3 -3 -3 -3 -3 -3 -3 -2 -2 -3 -2 -3 -3 -3 -4 -5 -5 -6 -7 -7 -9 -9 -8 -9 -9 -8 -6
-4 -4 -4 -4 -4 -4 -4 -4 -4 -4 -4 -4 -4 -3 -3 -3 -3 -3 -4 -4 -3 -3 -3 -3 -3 -3 -3 -3 -3 -3 -3 -3 -3 -3 -4 -5 -5 -6 -6 -6 -8 -8 -8 -8 -6 -8 -6
-4 -4 -4 -4 -4 -4 -4 -4 -4 -4 -4 -4 -4 -4 -4 -4 -3 -3 -3 -3 -4 -4 -3 -3 -3 -3 -3 -3 -3 -3 -3 -2 -3 -3 -3 -4 -5 -5 -6 -7 -8 -8 -8 -8 -8 -7 -7
-4 -4 -4 -4 -4 -4 -4 -4 -4 -4 -4 -4 -4 -4 -4 -4 -4 -3 -3 -3 -3 -3 -4 -3 -3 -3 -3 -3 -3 -3 -3 -3 -3 -3 -3 -4 -4 -5 -6 -6 -7 -8 -8 -7 -7 -6 -7
-5 -5 -5 -5 -5 -5 -4 -4 -4 -4 -4 -4 -4 -4 -4 -4 -4 -4 -4 -3 -3 -4 -4 -3 -3 -3 -3 -3 -3 -4 -3 -3 -3 -4 -3 -3 -4 -5 -6 -6 -6 -8 -8 -6 -7 -6 -8
-5 -5 -5 -5 -5 -5 -4 -4 -4 -3 -3 -3 -4 -3 -3 -4 -3 -4 -4 -4 -4 -4 -4 -3 -3 -3 -3 -3 -3 -3 -4 -3 -3 -4 -4 -3 -3 -3 -4 -5 -7 -8 -7 -6 -6 -7 -6
-5 -5 -5 -5 -5 -5 -4 -4 -4 -3 -3 -3 -3 -4 -3 -3 -3 -3 -4 -4 -4 -4 -4 -4 -3 -4 -3 -3 -4 -4 -3 -4 -4 -3 -4 -4 -3 -4 -5 -6 -6 -8 -7 -6 -6 -7 -7
-5 -5 -5 -5 -5 -5 -4 -4 -4 -4 -4 -3 -4 -4 -4 -4 -4 -4 -4 -4 -4 -4 -4 -4 -4 -4 -4 -3 -3 -3 -4 -4 -4 -4 -4 -4 -4 -4 -5 -6 -7 -8 -7 -7 -6 -6 -6
-5 -5 -5 -5 -5 -5 -5 -5 -4 -4 -4 -4 -4 -4 -4 -3 -4 -4 -4 -4 -4 -4 -3 -4 -4 -3 -4 -4 -3 -3 -3 -4 -3 -4 -4 -4 -5 -4 -5 -5 -6 -8 -8 -7 -6 -7 -6
-5 -4 -4 -4 -4 -4 -4 -4 -4 -4 -4 -4 -4 -4 -4 -4 -3 -4 -4 -4 -4 -4 -4 -3 -3 -4 -4 -4 -3 -4 -4 -4 -4 -4 -4 -4 -4 -4 -4 -4 -5 -7 -8 -8 -7 -6 -6
-5 -4 -4 -4 -4 -5 -5 -5 -4 -4 -4 -5 -4 -4 -4 -4 -4 -4 -4 -5 -5 -5 -4 -4 -3 -4 -4 -4 -4 -4 -4 -4 -4 -4 -4 -4 -4 -5 -4 -5 -5 -6 -8 -8 -7 -7 -6
-5 -5 -5 -5 -5 -5 -5 -5 -5 -4 -4 -4 -4 -4 -4 -5 -4 -4 -4 -5 -5 -4 -4 -4 -4 -5 -5 -4 -5 -5 -4 -4 -4 -4 -4 -4 -4 -4 -5 -5 -5 -6 -8 -8 -7 -7 -6
-6 -6 -6 -5 -5 -5 -5 -5 -4 -4 -4 -5 -5 -5 -5 -5 -5 -5 -5 -5 -4 -4 -4 -6 -5 -5 -5 -6 -5 -5 -5 -4 -4 -4 -5 -5 -4 -4 -4 -4 -5 -6 -7 -8 -7 -6 -6
-5 -5 -5 -5 -5 -5 -4 -4 -4 -5 -5 -5 -6 -6 -7 -6 -7 -6 -6 -5 -4 -4 -6 -6 -6 -6 -6 -7 -7 -5 -5 -5 -5 -5 -5 -5 -4 -5 -4 -5 -6 -7 -7 -7 -7 -6 -6
-5 -4 -4 -4 -4 -4 -4 -5 -4 -5 -5 -5 -6 -6 -7 -7 -7 -8 -7 -5 -5 -6 -6 -7 -6 -7 -7 -7 -7 -7 -6 -6 -5 -5 -5 -5 -7 -7 -5 -7 -5 -7 -7 -8 -8 -7 -6
-4 -4 -4 -4 -4 -4 -4 -4 -4 -5 -5 -6 -6 -7 -7 -8 -8 -8 -7 -6 -7 -7 -8 -7 -7 -8 -8 -10 -11 -9 -6 -7 -8 -6 -6 -6 -6 -8 -9 -4 -4 -5 -6 -8 -8 -7 -7
-5 -5 -6 -6 -6 -6 -7 -6 -6 -6 -6 -7 -8 -8 -8 -10 -10 -10 -9 -8 -8 -8 -9 -8 -8 -8 -9 -11 -10 -10 -8 -9 -11 -7 -7 -6 -6 -6 -7 -8 -8 -9 -8 -8 -8 -8 -7
-7 -8 -8 -8 -10 -10 -10 -10 -10 -9 -10 -11 -11 -11 -14 -13 -12 -12 -11 -10 -10 -9 -9 -10 -8 -8 -10 -10 -10 -9 -9 -9 -11 -10 -9 -8 -6 -7 -8 -9 -8 -6 -6 -8 -8 -8 -8
-9 -10 -11 -12 -13 -13 -13 -13 -14 -14 -14 -15 -15 -15 -17 -16 -15 -15 -15 -13 -12 -12 -12 -11 -9 -10 -11 -11 -11 -10 -10 -10 -11 -9 -9 -9 -10 -7 -8 -7 -9 -9 -8 -9 -8 -8 -8
-13 -13 -13 -14 -15 -15 -17 -18 -18 -19 -19 -19 -19 -19 -20 -19 -20 -20 -18 -17 -16 -14 -13 -13 -12 -12 -11 -12 -12 -11 -10 -12 -10 -9 -9 -9 -9 -10 -7 -10 -10 -9 -9 -9 -9 -9 -8
-13 -14 -16 -18 -19 -20 -21 -22 -24 -23 -23 -23 -23 -23 -23 -22 -21 -23 -21 -20 -18 -18 -17 -14 -15 -14 -14 -13 -14 -13 -13 -13 -11 -13 -10 -9 -10 -11 -11 -10 -10 -10 -9 -9 -10 -9 -9
-16 -19 -21 -22 -23 -23 -23 -24 -24 -24 -24 -24 -24 -24 -24 -24 -24 -24 -23 -21 -21 -20 -19 -17 -17 -17 -15 -16 -16 -14 -15 -15 -13 -14 -12 -11 -12 -12 -11 -11 -10 -10 -9 -10 -10 -9 -10
-21 -22 -24 -24 -24 -25 -25 -25 -24 -25 -25 -24 -25 -24 -25 -25 -25 -25 -25 -24 -22 -22 -21 -19 -19 -18 -17 -17 -14 -14 -14 -13 -13 -13 -13 -13 -13 -12 -11 -11 -11 -8 -10 -10 -10 -10 -10
-24 -26 -26 -26 -26 -25 -25 -25 -25 -25 -25 -25 -25 -25 -25 -25 -26 -25 -25 -24 -23 -22 -21 -21 -20 -19 -18 -16 -15 -15 -16 -14 -12 -11 -11 -11 -11 -12 -12 -11 -9 -10 -10 -10 -10 -10 -10
-27 -27 -27 -26 -26 -26 -26 -26 -26 -26 -26 -26 -25 -25 -25 -25 -26 -25 -25 -25 -23 -23 -22 -22 -21 -20 -19 -18 -17 -17 -16 -14 -14 -14 -12 -12 -11 -11 -12 -12 -11 -10 -10 -10 -10 -9 -10
-27 -27 -27 -27 -27 -27 -26 -26 -26 -26 -26 -26 -26 -26 -25 -25 -26 -25 -25 -24 -24 -23 -22 -21 -21 -21 -20 -19 -18 -18 -18 -16 -15 -14 -13 -12 -12 -11 -12 -12 -11 -11 -10 -10 -11 -11 -11
-27 -27 -27 -26 -26 -26 -26 -26 -27 -27 -27 -26 -26 -26 -26 -25 -26 -25 -25 -24 -24 -23 -23 -20 -21 -20 -19 -19 -18 -17 -18 -16 -16 -16 -13 -12 -12 -11 -13 -13 -12 -11 -11 -11 -11 -10 -11
-26 -26 -26 -26 -26 -26 -27 -27 -27 -27 -27 -27 -27 -26 -26 -25 -26 -25 -25 -24 -23 -23 -22 -22 -21 -20 -19 -19 -17 -17 -17 -16 -15 -14 -14 -13 -12 -12 -13 -13 -13 -13 -12 -10 -11 -11 -11

GFSGBSN_500_temp_006.txt.gz
Temp
-4 -4 -4 -4 -4 -4 -4 -4 -4 -4 -4 -3 -3 -3 -3 -3 -3 -3 -3 -3 -3 -3 -2 -2 -2 -2 -2 -2 -2 -2 -2 -2 -2 -3 -4 -4 -4 -5 -5 -6 -7 -8 -8 -6 -8 -7 -7
-4 -4 -4 -4 -4 -4 -4 -4 -4 -4 -4 -4 -4 -3 -3 -3 -3 -3 -3 -3 -3 -3 -3 -3 -2 -2 -3 -2 -2 -2 -2 -2 -2 -3 -4 -5 -5 -5 -5 -6 -7 -8 -8 -8 -8 -8 -7
-4 -4 -4 -4 -4 -4 -4 -4 -4 -4 -4 -4 -4 -3 -3 -3 -4 -3 -3 -3 -3 -3 -3 -3 -2 -3 -3 -3 -2 -2 -2 -2 -3 -3 -3 -4 -6 -5 -6 -5 -6 -8 -8 -8 -7 -7 -8
-4 -4 -4 -5 -5 -5 -4 -4 -4 -4 -4 -4 -4 -4 -3 -3 -3 -4 -4 -3 -3 -3 -3 -3 -2 -2 -3 -3 -3 -3 -3 -2 -3 -3 -3 -4 -5 -5 -5 -6 -6 -8 -8 -8 -7 -7 -6
-5 -5 -4 -4 -5 -5 -5 -5 -4 -4 -4 -4 -3 -3 -3 -3 -3 -3 -3 -3 -3 -3 -3 -3 -2 -2 -2 -3 -3 -3 -3 -3 -3 -3 -3 -3 -4 -5 -5 -6 -6 -6 -8 -8 -7 -7 -8
-5 -5 -5 -5 -5 -5 -5 -5 -4 -4 -4 -4 -3 -3 -3 -3 -3 -3 -3 -3 -3 -3 -3 -3 -3 -3 -2 -3 -3 -3 -3 -3 -3 -3 -3 -3 -3 -4 -5 -5 -5 -7 -8 -7 -7 -6 -6
-5 -5 -5 -5 -5 -5 -5 -5 -5 -4 -4 -4 -3 -3 -3 -3 -3 -3 -3 -3 -3 -3 -3 -3 -3 -3 -3 -3 -3 -3 -3 -3 -3 -3 -3 -3 -3 -2 -3 -5 -5 -7 -7 -7 -7 -7 -7
-5 -5 -5 -5 -5 -5 -5 -5 -5 -4 -4 -4 -4 -4 -3 -3 -3 -3 -3 -3 -3 -3 -3 -3 -3 -3 -3 -3 -3 -3 -3 -3 -3 -3 -4 -4 -3 -3 -4 -5 -6 -6 -7 -6 -7 -7 -7
-5 -5 -5 -5 -5 -4 -4 -4 -5 -5 -4 -4 -4 -4 -4 -3 -3 -3 -3 -3 -3 -2 -2 -3 -3 -3 -3 -2 -3 -3 -3 -3 -3 -3 -3 -3 -3 -4 -4 -5 -5 -6 -7 -7 -6 -7 -7
-5 -5 -5 -5 -5 -5 -5 -5 -4 -4 -4 -4 -4 -4 -4 -4 -3 -3 -3 -3 -3 -3 -2 -2 -3 -2 -3 -3 -2 -3 -3 -3 -3 -3 -3 -3 -4 -4 -4 -5 -5 -5 -6 -7 -7 -7 -6
-5 -5 -5 -5 -5 -4 -4 -4 -4 -4 -4 -4 -4 -4 -4 -4 -4 -4 -4 -4 -3 -3 -3 -3 -2 -2 -3 -3 -3 -3 -3 -3 -3 -4 -4 -3 -4 -4 -3 -4 -5 -5 -7 -6 -7 -7 -6
-5 -5 -5 -5 -5 -5 -4 -4 -4 -4 -4 -4 -4 -4 -4 -4 -4 -4 -4 -4 -4 -4 -2 -3 -2 -3 -3 -4 -3 -3 -4 -3 -4 -3 -3 -4 -4 -4 -4 -5 -6 -6 -8 -8 -7 -7 -7
-5 -5 -5 -5 -5 -5 -5 -4 -4 -4 -4 -4 -5 -4 -4 -4 -4 -4 -4 -4 -4 -3 -3 -3 -3 -3 -3 -3 -4 -4 -4 -4 -4 -4 -3 -4 -4 -4 -4 -5 -6 -7 -8 -8 -7 -7 -6
-5 -5 -5 -5 -5 -5 -5 -5 -5 -4 -4 -4 -4 -4 -5 -5 -5 -4 -5 -5 -4 -3 -4 -5 -5 -3 -3 -4 -4 -4 -4 -4 -4 -4 -4 -4 -4 -4 -4 -4 -5 -6 -8 -7 -7 -7 -6
-5 -5 -5 -5 -5 -5 -5 -4 -4 -4 -4 -4 -5 -5 -5 -5 -6 -5 -5 -4 -3 -4 -5 -6 -6 -7 -6 -4 -5 -5 -4 -4 -4 -5 -4 -5 -4 -5 -5 -5 -5 -5 -7 -5 -7 -7 -6
-5 -5 -5 -5 -5 -4 -4 -4 -4 -4 -4 -4 -4 -4 -5 -5 -5 -7 -6 -4 -5 -5 -6 -7 -7 -8 -7 -9 -8 -8 -5 -4 -4 -5 -5 -5 -6 -6 -5 -6 -4 -4 -5 -7 -8 -7 -7
-5 -5 -5 -5 -5 -5 -5 -5 -5 -5 -5 -5 -5 -5 -8 -6 -6 -7 -5 -5 -6 -6 -6 -7 -6 -6 -7 -10 -9 -10 -8 -7 -6 -6 -5 -5 -6 -6 -8 -4 -5 -6 -5 -6 -7 -7 -7
-6 -6 -6 -6 -6 -6 -7 -7 -6 -6 -6 -6 -6 -6 -10 -8 -9 -9 -8 -8 -8 -7 -7 -8 -8 -8 -7 -9 -10 -10 -10 -9 -9 -9 -8 -7 -7 -6 -6 -8 -6 -6 -4 -5 -7 -6 -7
-7 -7 -8 -8 -8 -8 -8 -8 -7 -7 -7 -8 -9 -9 -14 -13 -9 -11 -12 -11 -10 -10 -8 -10 -10 -9 -10 -10 -10 -9 -10 -10 -10 -10 -9 -9 -8 -8 -7 -8 -8 -8 -7 -7 -7 -7 -7
-9 -9 -9 -9 -9 -9 -9 -11 -11 -12 -13 -14 -15 -15 -17 -19 -17 -17 -17 -15 -13 -12 -11 -12 -13 -12 -11 -11 -11 -10 -11 -10 -10 -10 -10 -10 -9 -8 -6 -6 -8 -8 -6 -6 -7 -8 -6
-10 -10 -10 -10 -12 -13 -14 -16 -18 -19 -20 -21 -21 -20 -21 -20 -21 -21 -22 -19 -16 -14 -15 -16 -14 -13 -14 -13 -12 -12 -11 -11 -11 -11 -11 -11 -9 -9 -8 -8 -9 -8 -8 -9 -8 -5 -7
-12 -14 -15 -16 -17 -18 -20 -22 -25 -24 -24 -24 -23 -23 -23 -23 -23 -23 -21 -21 -21 -19 -20 -18 -17 -15 -16 -12 -14 -13 -12 -12 -12 -12 -12 -11 -10 -9 -10 -9 -9 -9 -9 -8 -9 -7 -5
-17 -19 -20 -20 -21 -23 -25 -25 -25 -26 -25 -24 -24 -24 -24 -24 -24 -24 -23 -22 -23 -22 -21 -20 -18 -17 -17 -16 -15 -13 -13 -12 -11 -12 -12 -12 -10 -10 -9 -8 -10 -9 -9 -9 -8 -9 -9
-21 -21 -22 -25 -26 -27 -26 -26 -26 -26 -26 -25 -25 -25 -25 -25 -25 -25 -24 -24 -23 -23 -22 -21 -20 -18 -18 -17 -16 -15 -14 -13 -13 -13 -13 -13 -12 -10 -10 -11 -10 -7 -9 -9 -9 -9 -9
-23 -23 -25 -27 -27 -27 -26 -26 -26 -26 -26 -26 -25 -26 -25 -25 -25 -25 -25 -25 -24 -24 -23 -22 -21 -20 -19 -18 -17 -16 -14 -16 -15 -14 -13 -13 -13 -11 -11 -11 -10 -10 -10 -9 -10 -10 -9
-24 -24 -25 -26 -26 -26 -26 -26 -26 -26 -26 -26 -26 -26 -26 -25 -26 -25 -25 -25 -25 -24 -24 -24 -22 -22 -19 -18 -18 -17 -16 -16 -15 -14 -13 -12 -12 -12 -12 -11 -10 -9 -9 -9 -9 -8 -9
-24 -24 -25 -25 -25 -26 -26 -26 -26 -26 -26 -26 -26 -26 -26 -25 -25 -25 -25 -25 -25 -25 -24 -24 -23 -21 -20 -20 -18 -17 -16 -16 -16 -15 -13 -13 -13 -12 -12 -11 -10 -11 -10 -10 -9 -9 -9
-25 -25 -25 -25 -25 -26 -26 -26 -26 -26 -26 -26 -26 -26 -26 -25 -26 -25 -25 -25 -24 -24 -23 -22 -22 -21 -21 -20 -18 -18 -16 -16 -16 -15 -15 -13 -13 -12 -12 -12 -10 -11 -10 -9 -10 -10 -10
-25 -25 -25 -25 -25 -26 -26 -27 -27 -27 -27 -27 -26 -26 -26 -26 -26 -25 -25 -25 -24 -24 -23 -22 -21 -21 -21 -20 -18 -18 -17 -16 -16 -16 -15 -14 -13 -14 -12 -11 -11 -11 -11 -11 -11 -10 -10

GFSGBSN_500_temp_009.txt.gz
Temp
-4 -4 -4 -4 -4 -4 -4 -4 -4 -4 -4 -4 -4 -4 -3 -3 -3 -3 -3 -3 -3 -3 -3 -2 -2 -2 -2 -2 -2 -2 -2 -2 -2 -2 -3 -4 -4 -5 -5 -5 -5 -6 -8 -7 -7 -7 -8
-4 -4 -4 -4 -4 -4 -4 -4 -4 -4 -4 -4 -4 -4 -3 -3 -3 -3 -3 -3 -3 -3 -3 -2 -3 -2 -2 -2 -2 -2 -2 -2 -2 -2 -3 -3 -5 -5 -6 -6 -6 -6 -8 -8 -7 -7 -8
-4 -4 -4 -4 -4 -4 -4 -4 -4 -4 -4 -4 -4 -4 -3 -3 -3 -3 -3 -3 -3 -3 -3 -2 -2 -3 -3 -2 -2 -2 -2 -2 -2 -2 -3 -3 -5 -5 -6 -6 -6 -5 -8 -8 -8 -8 -8
-4 -4 -4 -4 -4 -4 -4 -4 -4 -4 -4 -4 -4 -3 -3 -3 -3 -3 -3 -3 -2 -2 -3 -2 -2 -2 -3 -3 -2 -3 -2 -2 -2 -2 -3 -3 -4 -4 -5 -6 -6 -5 -7 -8 -8 -7 -8
-5 -4 -4 -4 -4 -4 -4 -4 -5 -4 -4 -4 -3 -3 -3 -3 -3 -3 -3 -3 -3 -2 -2 -2 -2 -2 -3 -3 -3 -3 -2 -2 -3 -3 -3 -3 -3 -3 -5 -6 -6 -5 -5 -6 -7 -8 -8
-5 -5 -5 -4 -4 -4 -4 -4 -5 -5 -4 -4 -4 -3 -3 -3 -3 -3 -3 -3 -3 -3 -2 -2 -2 -2 -2 -3 -3 -3 -3 -3 -3 -3 -3 -3 -3 -3 -3 -4 -4 -5 -5 -6 -7 -7 -7
-5 -5 -5 -5 -4 -4 -5 -4 -4 -4 -5 -4 -4 -4 -4 -3 -3 -3 -3 -3 -2 -2 -2 -2 -2 -2 -2 -3 -2 -3 -3 -3 -3 -3 -3 -3 -3 -2 -3 -4 -5 -6 -6 -6 -7 -7 -8
-5 -5 -5 -5 -5 -5 -5 -5 -4 -4 -4 -4 -4 -4 -4 -4 -4 -3 -3 -3 -2 -2 -2 -2 -2 -3 -2 -2 -2 -3 -2 -3 -3 -3 -3 -2 -2 -3 -4 -4 -5 -6 -6 -5 -7 -8 -7
-5 -5 -5 -5 -5 -5 -5 -5 -5 -5 -4 -4 -4 -4 -4 -4 -4 -4 -3 -3 -3 -2 -1 -3 -3 -2 -3 -1 -2 -3 -3 -3 -3 -3 -3 -3 -3 -4 -4 -4 -4 -6 -6 -5 -7 -7 -6
-5 -5 -5 -5 -5 -5 -5 -5 -5 -5 -5 -5 -4 -4 -4 -4 -4 -4 -3 -4 -3 -2 -2 -2 -3 -2 -2 -2 -2 -3 -3 -3 -3 -3 -3 -3 -3 -3 -3 -4 -4 -5 -6 -6 -7 -8 -7
-5 -5 -5 -5 -5 -5 -5 -5 -5 -5 -4 -4 -4 -4 -4 -4 -4 -4 -3 -4 -3 -3 -2 -2 -2 -2 -3 -2 -4 -2 -3 -2 -3 -3 -3 -3 -3 -3 -3 -3 -5 -4 -6 -6 -7 -7 -8
-6 -6 -6 -5 -5 -5 -5 -5 -5 -5 -5 -5 -4 -4 -5 -4 -5 -4 -4 -4 -4 -4 -2 -3 -3 -2 -3 -3 -3 -4 -3 -3 -3 -3 -3 -3 -3 -3 -3 -4 -5 -5 -6 -6 -6 -7 -8
-6 -6 -6 -5 -5 -5 -5 -5 -5 -5 -5 -5 -5 -5 -5 -5 -5 -5 -5 -4 -4 -3 -3 -4 -4 -3 -3 -3 -3 -4 -3 -3 -3 -3 -2 -3 -3 -3 -3 -3 -3 -6 -6 -6 -6 -6 -6
-6 -6 -6 -6 -6 -6 -5 -5 -5 -5 -5 -5 -5 -5 -5 -5 -5 -5 -5 -5 -4 -3 -4 -5 -5 -4 -3 -4 -3 -3 -3 -3 -3 -3 -3 -3 -3 -3 -3 -3 -3 -4 -6 -5 -4 -5 -5
-7 -7 -7 -6 -6 -6 -5 -5 -5 -4 -4 -4 -4 -5 -5 -5 -5 -5 -5 -5 -4 -4 -5 -6 -6 -5 -5 -5 -4 -5 -3 -3 -4 -4 -4 -4 -3 -4 -4 -4 -4 -4 -4 -5 -6 -6 -6
-7 -7 -7 -6 -6 -5 -5 -5 -5 -5 -5 -5 -4 -5 -6 -5 -5 -5 -4 -4 -4 -5 -5 -5 -5 -6 -5 -7 -9 -6 -5 -4 -4 -4 -5 -5 -4 -4 -4 -5 -5 -4 -5 -6 -6 -6 -6
-7 -7 -6 -6 -6 -6 -5 -5 -5 -4 -5 -5 -5 -4 -7 -7 -5 -4 -4 -4 -5 -5 -7 -6 -7 -6 -6 -6 -7 -7 -7 -6 -6 -6 -6 -6 -5 -5 -5 -4 -5 -4 -4 -6 -6 -6 -6
-7 -7 -7 -7 -7 -6 -6 -5 -5 -5 -5 -5 -5 -4 -9 -9 -8 -7 -6 -7 -7 -6 -7 -8 -7 -7 -8 -8 -7 -7 -5 -6 -9 -9 -8 -7 -7 -6 -5 -4 -5 -5 -5 -6 -5 -6 -7
-8 -8 -8 -8 -8 -7 -7 -7 -6 -6 -6 -6 -6 -7 -12 -12 -10 -12 -11 -10 -10 -10 -9 -9 -9 -11 -10 -9 -9 -8 -7 -8 -10 -10 -9 -9 -7 -7 -6 -6 -6 -5 -6 -5 -6 -6 -5
-10 -10 -10 -10 -10 -11 -11 -11 -12 -11 -11 -11 -11 -11 -15 -17 -16 -17 -16 -11 -12 -12 -11 -11 -10 -12 -10 -10 -10 -9 -8 -9 -10 -10 -9 -10 -9 -6 -5 -5 -7 -6 -6 -6 -6 -5 -4
-12 -12 -13 -15 -16 -17 -17 -18 -18 -18 -18 -19 -20 -19 -21 -21 -22 -21 -21 -19 -18 -16 -16 -14 -13 -11 -12 -11 -11 -10 -10 -9 -9 -9 -10 -10 -10 -9 -7 -7 -8 -7 -7 -8 -7 -5 -6
-15 -17 -19 -20 -21 -21 -20 -20 -23 -24 -26 -26 -25 -25 -24 -24 -24 -24 -23 -23 -23 -22 -19 -18 -19 -17 -15 -14 -13 -12 -10 -9 -9 -10 -10 -10 -10 -10 -9 -9 -9 -8 -8 -8 -8 -7 -6
-19 -21 -22 -22 -23 -23 -23 -25 -26 -26 -26 -26 -26 -26 -25 -24 -24 -24 -24 -24 -24 -23 -22 -21 -21 -20 -19 -16 -15 -13 -12 -11 -10 -10 -10 -10 -10 -10 -9 -9 -10 -9 -6 -8 -8 -8 -8
-22 -23 -23 -23 -24 -24 -24 -25 -26 -26 -26 -26 -26 -26 -26 -25 -25 -25 -25 -25 -24 -23 -23 -22 -22 -21 -20 -19 -17 -15 -14 -11 -10 -10 -11 -10 -11 -11 -11 -10 -10 -5 -7 -8 -9 -9 -8
-23 -24 -24 -25 -25 -25 -25 -25 -26 -26 -26 -26 -26 -26 -26 -25 -26 -26 -25 -24 -24 -24 -24 -23 -23 -22 -21 -20 -18 -17 -16 -15 -13 -11 -12 -11 -12 -11 -11 -11 -10 -9 -7 -8 -9 -9 -9
-24 -24 -24 -24 -24 -25 -25 -25 -26 -26 -26 -26 -26 -26 -26 -25 -26 -25 -25 -25 -24 -24 -25 -24 -23 -23 -22 -22 -20 -18 -17 -16 -14 -12 -12 -12 -13 -13 -12 -12 -10 -8 -9 -9 -9 -9 -9
-23 -24 -24 -24 -25 -25 -25 -25 -26 -26 -26 -26 -26 -26 -26 -25 -26 -25 -25 -25 -25 -25 -24 -24 -24 -23 -22 -22 -21 -19 -18 -17 -15 -13 -14 -14 -14 -13 -12 -12 -10 -10 -10 -10 -10 -9 -9
-23 -24 -24 -25 -25 -25 -25 -26 -26 -26 -26 -26 -26 -26 -26 -25 -26 -25 -25 -25 -25 -25 -24 -24 -23 -23 -22 -22 -21 -19 -18 -18 -16 -15 -15 -15 -14 -13 -13 -13 -12 -11 -11 -10 -10 -9 -9
-24 -24 -24 -25 -25 -26 -26 -26 -26 -26 -26 -26 -26 -26 -26 -25 -25 -25 -25 -25 -25 -25 -24 -24 -23 -23 -23 -22 -21 -20 -19 -17 -17 -16 -15 -15 -13 -12 -12 -13 -13 -12 -11 -10 -10 -9 -9

GFSGBSN_500_temp_012.txt.gz
Temp
-4 -4 -4 -4 -4 -4 -4 -4 -4 -4 -4 -4 -4 -4 -4 -4 -3 -3 -3 -3 -3 -3 -3 -3 -2 -2 -2 -2 -2 -2 -2 -2 -2 -3 -3 -4 -4 -6 -5 -5 -7 -5 -6 -7 -7 -7 -8
-4 -4 -4 -4 -4 -4 -4 -4 -4 -4 -4 -4 -4 -4 -4 -4 -3 -3 -3 -3 -3 -3 -2 -3 -2 -3 -2 -2 -2 -2 -2 -2 -2 -2 -3 -3 -4 -6 -6 -6 -6 -6 -5 -7 -8 -7 -7
-4 -4 -4 -4 -4 -5 -5 -5 -5 -5 -5 -4 -4 -4 -4 -4 -3 -3 -3 -3 -2 -2 -2 -2 -3 -3 -2 -3 -2 -2 -2 -2 -3 -2 -2 -3 -5 -5 -6 -6 -7 -6 -5 -5 -6 -7 -8
-5 -5 -5 -4 -4 -4 -4 -4 -4 -4 -5 -4 -4 -4 -4 -3 -3 -3 -3 -3 -2 -3 -2 -2 -2 -3 -2 -3 -3 -2 -2 -2 -2 -3 -3 -3 -3 -5 -6 -6 -6 -6 -5 -5 -6 -8 -7
-5 -5 -5 -5 -5 -4 -4 -4 -4 -4 -4 -4 -4 -4 -4 -3 -3 -3 -3 -3 -2 -2 -2 -2 -2 -2 -2 -3 -3 -3 -3 -3 -3 -3 -3 -3 -2 -3 -4 -6 -7 -6 -6 -5 -6 -8 -8
-5 -5 -5 -5 -5 -4 -4 -5 -5 -4 -4 -4 -4 -4 -4 -3 -4 -3 -3 -3 -2 -2 -2 -2 -3 -3 -3 -2 -2 -3 -3 -3 -3 -3 -3 -3 -3 -3 -3 -4 -3 -6 -6 -6 -6 -8 -8
-5 -5 -5 -5 -5 -5 -5 -5 -5 -5 -4 -4 -4 -4 -4 -4 -4 -4 -3 -3 -2 -2 -2 -2 -2 -3 -3 -2 -2 -2 -3 -2 -2 -2 -3 -3 -3 -2 -3 -4 -5 -7 -7 -7 -7 -8 -8
-5 -5 -5 -5 -5 -5 -5 -5 -5 -5 -5 -4 -4 -5 -4 -4 -3 -4 -3 -3 -2 -1 -2 -2 -2 -2 -2 -2 -3 -2 -2 -3 -3 -3 -3 -2 -2 -3 -3 -4 -5 -6 -7 -7 -6 -8 -8
-5 -5 -5 -5 -5 -5 -4 -4 -4 -4 -4 -4 -4 -5 -5 -5 -4 -4 -4 -3 -2 -2 -1 -3 -3 -2 -3 -1 -2 -3 -2 -3 -3 -3 -3 -3 -3 -4 -4 -4 -4 -5 -5 -7 -6 -8 -8
-5 -5 -5 -5 -5 -5 -5 -5 -5 -5 -5 -4 -5 -5 -5 -5 -5 -4 -4 -4 -3 -3 -2 -2 -3 -2 -2 -2 -2 -3 -3 -3 -3 -3 -3 -3 -3 -3 -3 -4 -4 -4 -5 -7 -7 -7 -7
-6 -5 -5 -5 -5 -5 -5 -5 -5 -5 -5 -5 -5 -5 -5 -5 -5 -4 -4 -4 -4 -4 -3 -3 -2 -3 -3 -2 -3 -3 -3 -2 -3 -4 -3 -3 -3 -3 -3 -2 -4 -4 -6 -7 -7 -8 -7
-6 -6 -6 -6 -6 -6 -6 -5 -5 -5 -5 -5 -5 -5 -5 -5 -5 -5 -5 -5 -4 -4 -3 -3 -3 -3 -3 -3 -3 -3 -3 -3 -3 -3 -2 -3 -3 -3 -3 -3 -4 -4 -7 -7 -7 -8 -8
-7 -7 -7 -7 -7 -7 -6 -6 -6 -6 -6 -6 -6 -5 -5 -6 -5 -5 -5 -5 -5 -4 -4 -4 -4 -3 -3 -4 -4 -4 -3 -3 -3 -3 -2 -3 -3 -3 -3 -3 -3 -4 -5 -6 -6 -7 -5
-9 -9 -8 -8 -8 -8 -7 -7 -7 -7 -7 -6 -6 -6 -6 -6 -6 -5 -5 -5 -4 -4 -4 -5 -4 -4 -4 -4 -4 -4 -4 -3 -3 -3 -3 -3 -3 -3 -3 -3 -3 -3 -4 -4 -5 -6 -5
-8 -7 -7 -7 -7 -7 -7 -7 -7 -6 -6 -6 -6 -6 -6 -6 -6 -5 -5 -5 -4 -5 -4 -5 -5 -5 -5 -5 -4 -4 -4 -4 -4 -4 -4 -4 -3 -4 -4 -4 -4 -4 -4 -4 -5 -5 -6
-8 -7 -7 -6 -6 -6 -6 -6 -6 -5 -6 -5 -5 -5 -6 -5 -5 -5 -5 -5 -5 -5 -5 -5 -5 -5 -5 -5 -5 -4 -4 -3 -4 -5 -5 -4 -4 -4 -4 -4 -5 -4 -5 -5 -5 -5 -5
-9 -9 -8 -8 -7 -7 -7 -6 -5 -5 -5 -5 -4 -4 -7 -6 -5 -5 -4 -4 -5 -7 -6 -5 -6 -6 -5 -6 -5 -4 -3 -4 -4 -5 -7 -6 -5 -5 -5 -4 -4 -4 -4 -3 -5 -5 -4
-10 -10 -9 -9 -9 -9 -9 -9 -8 -7 -6 -6 -5 -5 -8 -6 -8 -6 -6 -6 -6 -6 -9 -7 -6 -6 -7 -8 -5 -5 -4 -4 -5 -5 -3 -5 -7 -4 -5 -4 -4 -4 -5 -5 -4 -3 -3
-11 -11 -12 -12 -12 -12 -12 -12 -11 -10 -9 -9 -9 -9 -10 -10 -9 -9 -8 -7 -6 -6 -6 -10 -8 -7 -7 -9 -7 -6 -4 -5 -6 -5 -4 -5 -3 -5 -5 -6 -6 -6 -4 -3 -4 -5 -3
-13 -13 -13 -14 -15 -16 -17 -19 -19 -18 -17 -16 -15 -14 -16 -16 -14 -13 -13 -12 -10 -9 -8 -9 -10 -9 -8 -8 -10 -8 -7 -7 -8 -7 -5 -7 -4 -3 -3 -4 -5 -4 -4 -5 -4 -4 -3
-14 -15 -17 -18 -19 -21 -22 -23 -23 -23 -22 -22 -22 -22 -22 -22 -21 -19 -18 -18 -16 -14 -13 -12 -12 -13 -11 -9 -10 -10 -9 -9 -9 -9 -8 -7 -4 -4 -3 -2 -6 -6 -5 -5 -4 -4 -3
-18 -20 -21 -22 -22 -23 -24 -24 -24 -24 -24 -25 -26 -26 -26 -26 -25 -24 -24 -23 -21 -21 -19 -19 -16 -16 -14 -12 -12 -12 -10 -10 -10 -10 -10 -9 -6 -6 -4 -3 -4 -7 -7 -5 -4 -5 -5
-22 -22 -23 -23 -23 -23 -24 -24 -24 -25 -25 -26 -26 -26 -26 -26 -26 -25 -25 -25 -25 -24 -23 -23 -21 -20 -19 -17 -15 -13 -12 -10 -10 -11 -10 -10 -9 -9 -6 -8 -8 -9 -3 -6 -6 -5 -5
-22 -22 -23 -23 -23 -24 -24 -24 -25 -25 -26 -26 -26 -26 -26 -26 -26 -26 -25 -25 -25 -25 -24 -23 -23 -23 -23 -21 -19 -15 -15 -12 -11 -11 -12 -10 -10 -10 -9 -10 -10 -3 -6 -7 -8 -8 -7
-22 -23 -23 -24 -24 -25 -25 -25 -25 -26 -26 -26 -26 -26 -26 -26 -26 -26 -25 -25 -25 -25 -25 -25 -24 -24 -23 -23 -21 -19 -17 -15 -13 -12 -12 -13 -12 -11 -10 -10 -10 -9 -7 -7 -8 -8 -8
-23 -23 -24 -24 -25 -25 -26 -26 -26 -26 -26 -26 -26 -26 -26 -26 -26 -26 -26 -25 -25 -25 -25 -25 -24 -24 -24 -23 -22 -21 -19 -18 -16 -14 -13 -14 -14 -14 -13 -11 -10 -10 -10 -10 -9 -9 -9
-23 -23 -24 -24 -25 -25 -26 -26 -26 -26 -26 -27 -26 -26 -26 -26 -26 -25 -25 -25 -25 -25 -25 -25 -25 -24 -24 -24 -22 -22 -21 -20 -18 -17 -14 -15 -14 -15 -14 -13 -11 -10 -10 -11 -10 -9 -8
-23 -23 -23 -24 -25 -25 -25 -26 -26 -26 -26 -26 -26 -26 -26 -26 -26 -25 -25 -25 -25 -25 -25 -25 -25 -25 -24 -23 -22 -22 -21 -21 -20 -17 -16 -15 -15 -14 -13 -13 -13 -12 -11 -11 -11 -9 -9
-22 -23 -23 -23 -24 -24 -25 -25 -25 -26 -26 -26 -26 -26 -26 -26 -26 -25 -25 -25 -25 -25 -25 -25 -24 -24 -23 -23 -21 -22 -21 -21 -20 -19 -17 -16 -15 -14 -14 -12 -13 -12 -12 -11 -10 -10 -9

GFSGBSN_500_temp_015.txt.gz
Temp
-4 -4 -4 -4 -4 -4 -4 -4 -4 -4 -4 -4 -4 -4 -4 -4 -3 -3 -3 -3 -3 -3 -3 -3 -3 -3 -3 -2 -3 -2 -3 -2 -3 -3 -4 -4 -3 -6 -6 -6 -6 -7 -7 -5 -5 -6 -6
-4 -4 -4 -4 -4 -4 -4 -4 -4 -4 -4 -4 -4 -4 -4 -4 -4 -3 -3 -3 -3 -3 -3 -3 -3 -3 -3 -3 -3 -2 -3 -3 -3 -3 -3 -3 -4 -5 -7 -6 -6 -7 -6 -5 -6 -6 -5
-5 -5 -5 -5 -4 -4 -5 -5 -4 -4 -4 -4 -4 -4 -4 -4 -4 -3 -3 -3 -3 -3 -3 -3 -3 -3 -3 -3 -3 -3 -2 -3 -3 -3 -3 -4 -4 -5 -7 -6 -7 -7 -7 -5 -6 -7 -4
-5 -5 -5 -5 -5 -5 -5 -5 -5 -5 -5 -5 -4 -4 -4 -4 -4 -4 -3 -2 -3 -3 -3 -3 -3 -3 -3 -3 -3 -2 -3 -3 -3 -3 -3 -3 -3 -5 -6 -6 -7 -6 -7 -6 -6 -6 -6
-5 -5 -5 -5 -5 -5 -5 -5 -5 -5 -5 -5 -5 -5 -4 -4 -3 -3 -3 -3 -2 -2 -3 -3 -3 -4 -3 -3 -3 -3 -3 -3 -3 -3 -3 -3 -3 -3 -6 -6 -6 -7 -6 -7 -6 -6 -6
-5 -5 -5 -5 -5 -5 -5 -5 -5 -5 -5 -5 -5 -5 -4 -4 -4 -3 -3 -3 -3 -3 -3 -3 -3 -3 -3 -3 -3 -3 -3 -3 -3 -3 -3 -3 -3 -3 -3 -3 -3 -5 -6 -7 -7 -7 -7
-5 -5 -5 -5 -5 -5 -5 -5 -5 -5 -5 -4 -4 -4 -4 -4 -4 -4 -3 -3 -3 -2 -3 -3 -3 -3 -3 -3 -3 -3 -3 -2 -3 -3 -3 -3 -3 -3 -3 -4 -5 -6 -7 -7 -7 -7 -7
-5 -5 -5 -5 -5 -5 -4 -4 -4 -4 -4 -4 -4 -4 -4 -4 -4 -3 -3 -3 -3 -3 -3 -3 -3 -3 -3 -2 -2 -3 -3 -3 -3 -3 -3 -2 -3 -4 -4 -4 -5 -6 -6 -7 -8 -8 -7
-6 -5 -5 -5 -5 -5 -5 -5 -5 -4 -4 -4 -4 -4 -5 -4 -4 -4 -3 -3 -3 -3 -2 -4 -3 -2 -4 -1 -3 -3 -3 -3 -3 -3 -3 -3 -3 -4 -4 -4 -5 -5 -5 -7 -8 -8 -8
-6 -6 -6 -6 -6 -5 -5 -5 -5 -5 -5 -5 -4 -4 -5 -5 -4 -4 -4 -4 -3 -3 -3 -3 -4 -3 -2 -3 -2 -3 -3 -3 -3 -3 -3 -3 -3 -3 -3 -4 -4 -5 -5 -7 -8 -8 -8
-7 -7 -7 -7 -7 -6 -6 -6 -6 -5 -5 -5 -5 -5 -5 -5 -5 -4 -4 -4 -4 -4 -3 -3 -2 -3 -3 -3 -3 -4 -4 -3 -3 -4 -3 -3 -4 -3 -3 -3 -4 -5 -6 -7 -8 -8 -8
-9 -9 -9 -8 -8 -8 -7 -7 -7 -7 -6 -6 -6 -5 -5 -5 -6 -5 -5 -5 -5 -4 -3 -4 -3 -3 -3 -3 -3 -3 -3 -3 -3 -3 -3 -3 -3 -3 -3 -3 -4 -5 -7 -7 -8 -8 -8
-9 -9 -8 -8 -8 -8 -8 -7 -7 -8 -7 -7 -7 -7 -7 -6 -6 -5 -6 -5 -5 -4 -4 -4 -3 -4 -4 -4 -3 -3 -3 -3 -3 -3 -3 -3 -3 -3 -3 -3 -3 -4 -6 -6 -6 -7 -3
-8 -8 -8 -8 -7 -7 -6 -6 -6 -7 -7 -7 -7 -7 -7 -6 -7 -7 -7 -6 -5 -4 -5 -4 -5 -5 -4 -4 -4 -4 -3 -3 -3 -3 -4 -3 -4 -3 -3 -3 -3 -3 -4 -4 -3 -4 -3
-8 -7 -7 -7 -7 -7 -7 -6 -7 -6 -6 -6 -6 -7 -7 -7 -7 -7 -7 -7 -6 -5 -5 -5 -6 -6 -5 -5 -5 -4 -4 -4 -4 -5 -4 -4 -3 -4 -3 -4 -4 -4 -4 -4 -5 -5 -5
-8 -9 -9 -8 -8 -8 -8 -7 -7 -7 -7 -6 -6 -7 -6 -6 -6 -6 -6 -7 -6 -6 -6 -6 -6 -6 -6 -6 -5 -5 -5 -4 -4 -4 -4 -4 -4 -4 -5 -5 -4 -4 -4 -4 -4 -4 -4
-10 -10 -10 -10 -10 -10 -10 -10 -9 -9 -9 -8 -7 -7 -6 -7 -7 -7 -7 -7 -7 -7 -6 -6 -6 -6 -6 -6 -6 -5 -5 -5 -5 -5 -4 -3 -3 -4 -5 -5 -4 -4 -3 -3 -4 -4 -3
-11 -12 -12 -12 -13 -13 -13 -12 -12 -12 -12 -11 -11 -10 -9 -9 -9 -8 -7 -6 -6 -7 -7 -6 -6 -6 -6 -7 -7 -6 -6 -5 -4 -4 -5 -4 -3 -3 -4 -5 -5 -4 -5 -5 -4 -2 -2
-13 -14 -14 -15 -15 -16 -18 -19 -19 -18 -18 -18 -18 -17 -14 -13 -12 -11 -10 -9 -8 -8 -9 -8 -6 -6 -6 -7 -8 -8 -6 -6 -5 -5 -5 -5 -4 -4 -3 -5 -5 -4 -4 -5 -4 -3 -3
-15 -16 -18 -19 -21 -22 -22 -22 -22 -22 -23 -23 -23 -23 -22 -20 -19 -17 -15 -13 -12 -10 -11 -10 -9 -8 -7 -7 -8 -8 -8 -7 -7 -6 -6 -5 -5 -4 -3 -4 -5 -4 -4 -4 -3 -3 -2
-18 -20 -21 -21 -22 -22 -23 -23 -23 -23 -23 -24 -24 -24 -25 -25 -23 -22 -20 -19 -16 -15 -14 -13 -13 -11 -10 -10 -10 -9 -8 -8 -8 -7 -7 -7 -5 -5 -4 -4 -5 -4 -4 -4 -3 -2 -2
-20 -21 -21 -22 -23 -23 -24 -24 -24 -24 -24 -25 -25 -25 -26 -26 -26 -26 -25 -24 -23 -22 -20 -20 -18 -15 -14 -13 -12 -12 -10 -10 -11 -10 -9 -8 -7 -7 -5 -4 -5 -5 -3 -3 -2 -3 -4
-21 -22 -22 -23 -23 -24 -25 -25 -25 -25 -25 -25 -25 -26 -26 -26 -27 -26 -26 -26 -25 -25 -25 -24 -23 -21 -20 -17 -15 -14 -14 -12 -11 -12 -11 -10 -9 -8 -6 -6 -6 -5 -3 -3 -3 -3 -4
-22 -22 -22 -23 -23 -24 -25 -25 -26 -26 -26 -26 -26 -26 -26 -26 -26 -26 -26 -26 -26 -25 -25 -24 -24 -24 -23 -22 -19 -17 -16 -14 -12 -12 -12 -11 -11 -10 -8 -9 -8 -3 -5 -6 -5 -4 -4
-22 -22 -22 -23 -24 -24 -25 -25 -26 -26 -26 -26 -26 -26 -26 -26 -26 -26 -26 -26 -26 -25 -25 -25 -25 -25 -24 -24 -23 -21 -19 -17 -15 -13 -13 -13 -12 -11 -10 -9 -7 -6 -7 -7 -7 -6 -5
-21 -22 -23 -23 -24 -24 -25 -25 -25 -26 -26 -26 -26 -26 -26 -26 -26 -26 -26 -26 -26 -26 -25 -25 -25 -25 -24 -24 -23 -23 -21 -20 -18 -15 -13 -13 -14 -13 -12 -11 -10 -8 -9 -8 -7 -8 -6
-21 -21 -21 -22 -23 -23 -24 -25 -25 -25 -26 -26 -26 -26 -26 -26 -27 -26 -26 -26 -26 -25 -26 -25 -25 -24 -24 -24 -24 -23 -22 -21 -20 -19 -16 -16 -14 -14 -13 -12 -11 -10 -10 -10 -10 -6 -7
-20 -21 -21 -21 -22 -23 -23 -24 -24 -25 -25 -26 -25 -26 -26 -26 -26 -26 -25 -25 -25 -25 -25 -25 -25 -24 -24 -24 -23 -23 -23 -22 -22 -20 -19 -18 -17 -15 -13 -14 -13 -12 -11 -11 -11 -9 -8
-20 -20 -20 -21 -22 -22 -22 -23 -23 -24 -24 -25 -25 -25 -25 -25 -25 -25 -25 -25 -25 -25 -25 -25 -25 -24 -24 -24 -24 -23 -23 -22 -22 -22 -21 -19 -17 -16 -15 -13 -13 -13 -12 -11 -11 -11 -10

GFSGBSN_500_temp_021.txt.gz
Temp
-5 -5 -5 -5 -5 -5 -5 -5 -5 -5 -5 -5 -5 -5 -5 -5 -5 -4 -4 -4 -4 -4 -4 -4 -4 -4 -4 -3 -2 -3 -3 -3 -3 -3 -3 -4 -4 -5 -5 -6 -7 -7 -7 -7 -6 -6 -6
-6 -6 -5 -5 -5 -5 -5 -5 -5 -5 -5 -5 -5 -5 -5 -5 -5 -4 -4 -4 -4 -4 -4 -4 -4 -4 -4 -3 -3 -4 -3 -3 -3 -3 -3 -3 -4 -6 -6 -6 -6 -7 -6 -6 -6 -7 -6
-5 -5 -5 -5 -5 -5 -5 -5 -5 -5 -5 -5 -5 -4 -4 -4 -5 -4 -5 -4 -4 -4 -4 -4 -4 -4 -4 -2 -3 -4 -3 -3 -3 -3 -3 -4 -4 -4 -5 -5 -6 -7 -6 -5 -6 -7 -7
-5 -5 -5 -5 -5 -5 -5 -5 -5 -5 -5 -5 -5 -5 -5 -5 -5 -5 -5 -4 -4 -4 -4 -4 -4 -4 -5 -2 -3 -4 -3 -4 -3 -3 -3 -3 -3 -4 -4 -4 -5 -6 -6 -5 -6 -6 -7
-5 -5 -5 -5 -5 -5 -5 -4 -5 -4 -4 -4 -4 -5 -5 -4 -4 -4 -5 -5 -4 -5 -4 -4 -4 -4 -4 -3 -3 -4 -4 -3 -3 -3 -3 -3 -3 -3 -4 -4 -4 -5 -5 -6 -6 -7 -6
-6 -6 -5 -5 -5 -5 -5 -5 -5 -4 -4 -4 -4 -4 -4 -4 -4 -4 -4 -4 -5 -5 -5 -4 -4 -4 -4 -4 -3 -4 -4 -3 -4 -3 -3 -3 -3 -4 -4 -3 -2 -4 -5 -6 -7 -7 -6
-6 -6 -6 -6 -6 -6 -6 -6 -6 -6 -5 -5 -4 -4 -4 -4 -4 -4 -4 -4 -4 -4 -5 -4 -4 -4 -4 -4 -4 -4 -4 -3 -3 -3 -3 -4 -3 -3 -5 -4 -5 -6 -6 -7 -7 -7 -6
-7 -7 -7 -7 -7 -7 -7 -7 -7 -6 -6 -6 -5 -5 -5 -5 -4 -4 -4 -4 -4 -4 -4 -4 -4 -4 -4 -4 -4 -4 -4 -3 -3 -4 -4 -3 -4 -5 -5 -5 -5 -5 -6 -7 -8 -7 -6
-8 -8 -8 -8 -8 -8 -8 -8 -7 -7 -7 -7 -6 -6 -6 -6 -5 -4 -4 -4 -4 -4 -4 -5 -4 -5 -5 -4 -4 -5 -4 -4 -4 -4 -3 -3 -4 -4 -4 -4 -4 -5 -5 -6 -7 -8 -6
-8 -8 -8 -8 -8 -8 -8 -8 -8 -8 -8 -8 -7 -7 -6 -7 -7 -6 -5 -4 -4 -3 -4 -4 -4 -4 -5 -5 -4 -4 -4 -4 -3 -3 -4 -3 -3 -4 -4 -4 -4 -4 -6 -7 -7 -8 -8
-9 -8 -8 -8 -8 -8 -8 -7 -7 -7 -7 -7 -7 -7 -7 -7 -8 -8 -6 -6 -5 -4 -4 -4 -4 -4 -4 -5 -5 -4 -4 -4 -3 -4 -4 -3 -4 -4 -4 -5 -5 -5 -6 -7 -8 -8 -8
-8 -8 -8 -8 -8 -7 -7 -7 -7 -7 -7 -7 -7 -7 -7 -7 -8 -8 -8 -7 -6 -6 -4 -4 -4 -4 -4 -4 -4 -5 -4 -4 -4 -4 -4 -4 -4 -3 -4 -4 -4 -5 -6 -7 -7 -8 -6
-8 -8 -8 -8 -8 -8 -7 -8 -8 -8 -8 -8 -8 -7 -7 -7 -7 -8 -8 -7 -7 -6 -5 -5 -5 -5 -5 -5 -4 -5 -4 -4 -4 -4 -3 -4 -3 -3 -3 -4 -4 -3 -5 -6 -6 -5 -2
-8 -8 -9 -9 -10 -10 -10 -10 -9 -9 -9 -9 -9 -8 -7 -7 -7 -8 -8 -8 -8 -7 -7 -6 -6 -6 -6 -5 -5 -5 -5 -4 -4 -4 -4 -4 -3 -3 -3 -3 -4 -4 -4 -3 -3 -3 -4
-10 -11 -11 -11 -11 -11 -12 -12 -13 -13 -12 -11 -11 -10 -8 -8 -8 -8 -8 -8 -9 -8 -7 -7 -7 -7 -7 -7 -6 -6 -5 -5 -5 -5 -5 -4 -4 -4 -4 -4 -5 -4 -4 -5 -5 -4 -4
-12 -12 -13 -13 -15 -16 -17 -18 -19 -19 -20 -19 -19 -18 -16 -13 -12 -10 -9 -10 -9 -8 -8 -7 -8 -8 -8 -8 -8 -7 -7 -6 -6 -5 -5 -5 -4 -4 -5 -5 -5 -4 -5 -5 -5 -4 -4
-13 -14 -15 -17 -18 -18 -18 -19 -20 -20 -21 -22 -23 -23 -22 -21 -20 -18 -15 -13 -12 -10 -9 -9 -8 -8 -8 -8 -9 -8 -7 -7 -6 -6 -5 -5 -5 -5 -5 -3 -4 -4 -3 -3 -4 -4 -3
-14 -15 -17 -18 -18 -18 -18 -19 -20 -21 -22 -23 -24 -24 -24 -24 -23 -23 -21 -19 -17 -15 -11 -10 -9 -9 -9 -9 -9 -10 -8 -8 -7 -6 -6 -6 -5 -5 -5 -5 -5 -5 -5 -5 -5 -4 -3
-16 -17 -18 -18 -18 -18 -19 -19 -20 -21 -22 -23 -24 -25 -25 -25 -24 -24 -23 -22 -21 -19 -16 -13 -11 -10 -10 -10 -10 -10 -10 -8 -8 -8 -7 -6 -6 -6 -5 -5 -5 -4 -4 -4 -4 -4 -2
-17 -18 -18 -18 -18 -18 -19 -20 -21 -21 -22 -24 -24 -25 -26 -26 -25 -25 -24 -24 -23 -22 -20 -17 -15 -13 -12 -11 -11 -11 -11 -10 -9 -8 -8 -7 -7 -7 -6 -5 -6 -5 -4 -4 -4 -3 -2
-18 -18 -18 -19 -19 -19 -19 -20 -21 -22 -22 -24 -24 -25 -26 -26 -26 -26 -25 -25 -25 -24 -23 -21 -20 -18 -16 -14 -13 -12 -12 -11 -10 -9 -9 -9 -8 -7 -7 -6 -6 -5 -5 -5 -4 -4 -3
-19 -18 -19 -18 -19 -19 -19 -20 -21 -22 -23 -23 -24 -25 -26 -26 -27 -27 -26 -26 -26 -26 -25 -24 -23 -23 -20 -18 -15 -14 -13 -13 -11 -10 -10 -9 -9 -8 -8 -7 -6 -6 -5 -5 -5 -4 -4
-18 -18 -18 -18 -18 -19 -20 -20 -21 -22 -22 -23 -24 -25 -26 -26 -26 -26 -26 -26 -26 -26 -27 -26 -24 -24 -23 -23 -19 -16 -15 -14 -13 -12 -11 -10 -9 -9 -8 -8 -7 -6 -5 -5 -6 -5 -5
-18 -18 -18 -18 -18 -19 -20 -20 -20 -21 -22 -22 -24 -24 -25 -26 -26 -26 -26 -26 -26 -26 -26 -26 -26 -25 -24 -24 -23 -20 -16 -15 -14 -13 -12 -11 -10 -10 -9 -8 -7 -6 -6 -6 -6 -6 -5
-18 -18 -18 -18 -18 -18 -20 -20 -20 -21 -22 -22 -23 -24 -25 -26 -26 -26 -26 -26 -26 -26 -26 -26 -26 -26 -25 -24 -23 -23 -20 -17 -16 -14 -13 -12 -12 -11 -10 -9 -7 -6 -6 -6 -6 -5 -5
-18 -18 -18 -18 -18 -18 -20 -20 -20 -21 -21 -22 -22 -23 -24 -25 -25 -26 -26 -26 -26 -26 -26 -26 -26 -26 -25 -25 -25 -24 -22 -20 -18 -16 -14 -13 -13 -12 -10 -9 -8 -7 -7 -6 -6 -5 -6
-18 -18 -18 -18 -18 -18 -19 -19 -20 -20 -21 -21 -22 -22 -23 -24 -25 -25 -25 -26 -26 -26 -26 -26 -26 -26 -25 -25 -25 -25 -24 -23 -20 -18 -17 -15 -13 -12 -12 -10 -8 -7 -8 -7 -6 -6 -6
-18 -18 -18 -18 -18 -18 -18 -18 -19 -19 -20 -21 -21 -22 -22 -23 -24 -25 -25 -25 -25 -25 -26 -25 -25 -25 -25 -25 -25 -25 -24 -23 -22 -20 -19 -17 -15 -13 -12 -10 -8 -7 -9 -7 -7 -7 -6
-18 -18 -18 -18 -17 -17 -18 -18 -19 -19 -19 -20 -20 -21 -22 -22 -23 -24 -24 -24 -25 -25 -25 -25 -25 -25 -25 -25 -25 -25 -24 -24 -23 -20 -19 -17 -16 -15 -13 -10 -9 -8 -9 -9 -8 -8 -7

GFSGBSN_500_temp_024.txt.gz
Temp
-5 -5 -5 -5 -5 -5 -5 -5 -5 -5 -5 -5 -5 -5 -5 -5 -5 -5 -5 -5 -5 -4 -4 -4 -4 -4 -4 -3 -3 -4 -3 -3 -3 -3 -3 -4 -4 -5 -5 -6 -6 -7 -7 -6 -6 -7 -6
-6 -5 -5 -5 -5 -5 -5 -5 -5 -5 -5 -5 -5 -5 -5 -5 -5 -5 -5 -5 -5 -4 -4 -4 -4 -4 -4 -3 -3 -4 -3 -4 -4 -3 -3 -3 -4 -5 -5 -6 -6 -7 -7 -7 -7 -7 -6
-6 -5 -5 -5 -5 -5 -5 -5 -5 -5 -5 -5 -4 -4 -4 -4 -4 -4 -5 -5 -5 -5 -5 -5 -4 -4 -5 -3 -3 -4 -4 -3 -4 -4 -4 -4 -4 -4 -5 -6 -6 -7 -7 -7 -7 -7 -7
-6 -5 -5 -5 -5 -5 -5 -5 -5 -5 -5 -5 -5 -4 -4 -4 -4 -4 -4 -5 -5 -5 -5 -5 -5 -4 -5 -3 -4 -4 -4 -4 -3 -4 -4 -3 -3 -4 -4 -4 -6 -6 -6 -6 -7 -7 -7
-6 -6 -6 -6 -5 -5 -5 -5 -5 -5 -5 -5 -5 -4 -4 -4 -4 -4 -4 -4 -4 -5 -5 -5 -5 -4 -5 -4 -4 -4 -4 -4 -4 -3 -3 -3 -4 -3 -3 -3 -4 -5 -5 -6 -7 -7 -7
-6 -6 -6 -6 -6 -6 -6 -6 -6 -6 -5 -5 -5 -5 -5 -4 -4 -4 -4 -4 -4 -4 -4 -5 -5 -5 -4 -4 -4 -4 -4 -4 -4 -3 -3 -4 -4 -4 -4 -3 -3 -4 -5 -5 -6 -6 -7
-7 -7 -7 -7 -8 -8 -8 -8 -8 -7 -6 -6 -6 -6 -6 -5 -5 -4 -4 -4 -4 -4 -4 -4 -5 -5 -5 -5 -4 -4 -4 -4 -3 -3 -4 -4 -4 -3 -4 -4 -5 -5 -5 -6 -6 -6 -7
-8 -8 -8 -8 -8 -8 -8 -8 -8 -8 -7 -7 -7 -7 -7 -6 -6 -5 -5 -4 -4 -4 -4 -4 -4 -5 -5 -5 -4 -4 -4 -4 -4 -4 -4 -4 -4 -5 -5 -5 -5 -5 -5 -6 -7 -7 -7
-8 -8 -8 -8 -8 -8 -8 -7 -7 -7 -7 -7 -7 -7 -7 -7 -7 -7 -6 -5 -5 -4 -4 -5 -4 -5 -5 -4 -5 -4 -4 -4 -4 -4 -4 -4 -5 -5 -5 -4 -4 -5 -5 -6 -7 -7 -7
-9 -8 -8 -8 -8 -8 -7 -7 -7 -7 -7 -7 -7 -7 -7 -7 -7 -7 -7 -7 -6 -5 -4 -4 -5 -4 -5 -4 -4 -4 -4 -4 -4 -4 -4 -4 -4 -4 -4 -4 -4 -4 -5 -6 -7 -7 -7
-8 -8 -8 -8 -7 -7 -7 -6 -6 -6 -6 -6 -7 -7 -7 -7 -7 -7 -7 -7 -7 -7 -6 -4 -4 -4 -5 -5 -5 -4 -5 -4 -4 -4 -4 -3 -4 -5 -4 -5 -5 -5 -6 -6 -7 -7 -7
-8 -7 -7 -7 -7 -7 -7 -8 -8 -7 -7 -7 -7 -7 -7 -7 -6 -7 -7 -7 -7 -7 -7 -6 -5 -5 -5 -5 -4 -4 -5 -5 -5 -5 -4 -4 -4 -4 -5 -5 -4 -5 -5 -5 -6 -7 -6
-8 -8 -8 -9 -8 -9 -10 -11 -11 -12 -13 -13 -12 -9 -7 -7 -7 -7 -7 -7 -7 -7 -7 -7 -6 -6 -6 -5 -5 -5 -5 -4 -4 -4 -3 -4 -3 -4 -4 -4 -4 -4 -4 -5 -5 -5 -3
-9 -10 -10 -11 -11 -12 -13 -15 -16 -17 -17 -17 -17 -17 -15 -12 -10 -9 -8 -8 -8 -8 -8 -7 -7 -7 -7 -7 -6 -6 -5 -5 -4 -5 -5 -4 -4 -4 -4 -4 -4 -3 -4 -3 -3 -4 -4
-11 -12 -12 -13 -14 -15 -17 -17 -17 -17 -17 -18 -18 -18 -19 -18 -17 -16 -14 -12 -12 -10 -7 -7 -7 -8 -8 -8 -8 -7 -7 -6 -5 -5 -5 -4 -4 -4 -4 -4 -4 -4 -3 -4 -5 -4 -4
-12 -13 -13 -15 -16 -17 -17 -17 -17 -17 -18 -18 -19 -19 -20 -21 -22 -22 -21 -19 -17 -12 -10 -10 -10 -9 -9 -9 -8 -8 -8 -7 -6 -6 -6 -5 -5 -4 -5 -5 -5 -4 -5 -5 -5 -4 -4
-13 -14 -15 -16 -17 -17 -17 -17 -17 -18 -19 -19 -20 -20 -22 -23 -23 -24 -24 -23 -21 -18 -14 -13 -12 -10 -10 -9 -10 -9 -8 -7 -7 -7 -5 -6 -5 -5 -5 -4 -4 -4 -4 -4 -5 -4 -4
-14 -15 -16 -17 -18 -18 -17 -18 -18 -18 -19 -20 -21 -22 -23 -23 -25 -25 -25 -24 -24 -22 -19 -16 -14 -13 -12 -10 -11 -11 -9 -8 -8 -6 -6 -6 -6 -6 -5 -5 -5 -5 -5 -5 -4 -3 -3
-15 -16 -17 -18 -18 -18 -18 -17 -18 -18 -19 -20 -21 -22 -23 -24 -25 -25 -25 -25 -24 -23 -22 -20 -18 -16 -14 -14 -13 -12 -10 -9 -9 -8 -7 -6 -6 -7 -6 -6 -5 -5 -5 -4 -5 -5 -4
-16 -17 -17 -18 -18 -18 -18 -17 -18 -19 -20 -20 -22 -23 -24 -24 -25 -26 -26 -26 -25 -24 -23 -22 -21 -18 -17 -17 -15 -13 -12 -11 -10 -9 -8 -7 -7 -7 -6 -6 -6 -5 -4 -5 -5 -4 -3
-16 -17 -18 -18 -18 -18 -17 -17 -18 -19 -20 -21 -22 -23 -24 -24 -25 -26 -26 -26 -26 -25 -24 -23 -23 -22 -20 -19 -18 -16 -14 -12 -11 -10 -9 -9 -8 -7 -7 -6 -6 -5 -5 -5 -4 -4 -3
-17 -18 -18 -18 -18 -18 -18 -18 -18 -19 -20 -21 -22 -23 -24 -24 -25 -26 -26 -26 -26 -26 -26 -25 -24 -24 -24 -20 -19 -18 -15 -14 -12 -10 -10 -10 -9 -8 -7 -7 -6 -5 -5 -5 -5 -4 -4
-17 -18 -18 -18 -18 -17 -17 -17 -18 -19 -20 -21 -22 -22 -23 -24 -25 -25 -26 -26 -26 -26 -26 -26 -26 -24 -23 -23 -21 -19 -17 -16 -13 -12 -11 -10 -10 -8 -8 -8 -8 -6 -5 -5 -5 -5 -5
-17 -18 -18 -18 -17 -18 -17 -18 -18 -19 -20 -21 -21 -22 -23 -23 -25 -25 -25 -26 -26 -26 -26 -26 -26 -25 -24 -23 -23 -20 -19 -17 -15 -13 -12 -11 -10 -10 -10 -8 -8 -6 -7 -7 -7 -6 -6
-17 -18 -18 -18 -18 -17 -18 -17 -18 -19 -19 -20 -21 -22 -22 -23 -23 -25 -25 -25 -26 -26 -26 -26 -26 -26 -25 -24 -23 -22 -20 -18 -16 -15 -13 -12 -11 -11 -10 -9 -9 -8 -7 -7 -7 -6 -6
-17 -18 -18 -18 -17 -17 -18 -17 -18 -19 -19 -19 -20 -21 -22 -23 -23 -24 -25 -25 -25 -25 -25 -26 -26 -26 -26 -25 -24 -23 -24 -22 -19 -16 -15 -14 -13 -11 -11 -10 -9 -9 -8 -7 -6 -7 -7
-17 -17 -18 -18 -17 -17 -18 -17 -18 -19 -19 -19 -19 -20 -21 -22 -23 -23 -24 -25 -25 -25 -25 -26 -26 -26 -26 -25 -25 -24 -23 -22 -21 -19 -17 -16 -14 -12 -12 -10 -10 -10 -9 -7 -8 -9 -7
-17 -17 -18 -18 -17 -17 -17 -17 -18 -18 -19 -19 -19 -19 -20 -21 -22 -23 -23 -24 -24 -25 -25 -25 -25 -26 -25 -25 -25 -25 -24 -23 -21 -20 -20 -17 -15 -14 -13 -11 -10 -9 -9 -8 -8 -8 -7
-17 -17 -17 -17 -17 -17 -17 -17 -18 -18 -18 -19 -19 -19 -20 -20 -21 -22 -22 -23 -24 -24 -24 -24 -25 -25 -25 -25 -24 -24 -24 -23 -23 -20 -20 -18 -16 -16 -14 -12 -10 -11 -10 -8 -8 -8 -7

GFSGBSN_500_temp_027.txt.gz
Temp
-5 -5 -5 -5 -5 -5 -5 -5 -5 -5 -5 -5 -5 -5 -5 -4 -4 -4 -5 -4 -5 -5 -4 -4 -4 -4 -4 -3 -3 -4 -3 -3 -3 -3 -3 -4 -4 -5 -5 -6 -6 -5 -6 -6 -5 -6 -6
-5 -5 -5 -5 -5 -5 -5 -5 -5 -5 -4 -4 -4 -4 -4 -5 -5 -5 -4 -4 -4 -4 -5 -5 -4 -4 -4 -4 -3 -4 -4 -3 -3 -3 -3 -3 -4 -5 -6 -6 -6 -7 -6 -6 -6 -7 -7
-5 -5 -5 -5 -5 -5 -5 -5 -5 -5 -5 -5 -4 -4 -4 -4 -4 -4 -4 -4 -4 -4 -4 -5 -5 -4 -4 -4 -4 -4 -4 -3 -3 -3 -3 -4 -4 -4 -5 -6 -6 -7 -7 -6 -6 -6 -7
-6 -6 -6 -6 -5 -5 -5 -5 -5 -5 -5 -5 -5 -4 -4 -4 -4 -4 -4 -4 -4 -4 -5 -5 -5 -5 -5 -4 -4 -4 -5 -4 -4 -4 -3 -3 -4 -4 -5 -6 -6 -6 -6 -7 -7 -7 -7
-6 -6 -6 -6 -6 -6 -6 -6 -6 -6 -6 -6 -5 -5 -5 -5 -4 -4 -4 -4 -4 -4 -4 -5 -5 -5 -5 -5 -4 -4 -4 -4 -4 -4 -4 -3 -3 -4 -4 -4 -5 -6 -5 -6 -8 -7 -8
-7 -7 -7 -7 -7 -7 -7 -7 -7 -7 -7 -7 -7 -6 -6 -5 -5 -5 -4 -4 -4 -4 -4 -4 -4 -5 -4 -5 -4 -4 -5 -4 -4 -4 -4 -4 -4 -4 -4 -4 -3 -5 -5 -8 -8 -8 -8
-8 -8 -8 -8 -8 -8 -8 -8 -7 -7 -7 -7 -7 -7 -7 -6 -6 -6 -5 -5 -5 -4 -4 -5 -4 -4 -4 -5 -5 -4 -4 -4 -4 -4 -4 -4 -4 -3 -4 -4 -5 -6 -9 -8 -8 -8 -8
-9 -8 -8 -8 -8 -8 -8 -8 -7 -7 -7 -7 -7 -7 -7 -7 -7 -7 -6 -6 -5 -5 -4 -5 -4 -4 -4 -5 -5 -5 -5 -4 -4 -4 -4 -4 -3 -4 -5 -5 -5 -6 -6 -8 -8 -8 -8
-9 -8 -8 -8 -7 -7 -7 -7 -7 -6 -6 -6 -6 -6 -6 -6 -6 -7 -7 -7 -7 -6 -5 -5 -5 -4 -5 -4 -5 -5 -5 -5 -4 -5 -4 -4 -4 -5 -5 -4 -4 -5 -5 -7 -8 -8 -8
-8 -8 -8 -7 -7 -7 -6 -7 -6 -6 -6 -6 -6 -6 -6 -6 -6 -6 -6 -6 -7 -7 -6 -5 -6 -5 -5 -5 -4 -5 -5 -5 -4 -4 -5 -4 -5 -5 -4 -4 -4 -5 -5 -6 -9 -9 -8
-8 -7 -7 -7 -7 -7 -8 -7 -8 -8 -8 -8 -8 -8 -8 -6 -6 -5 -6 -6 -7 -6 -7 -6 -5 -5 -6 -5 -5 -5 -5 -5 -4 -4 -5 -3 -4 -4 -4 -4 -5 -4 -5 -6 -7 -9 -9
-8 -8 -8 -8 -9 -9 -10 -10 -11 -12 -13 -13 -13 -14 -13 -12 -10 -7 -6 -6 -7 -7 -6 -8 -6 -6 -6 -6 -6 -5 -5 -6 -6 -6 -5 -5 -5 -5 -5 -5 -5 -5 -5 -5 -6 -7 -7
-8 -9 -9 -10 -11 -11 -12 -13 -15 -16 -16 -16 -16 -17 -17 -17 -17 -15 -12 -11 -9 -8 -11 -12 -7 -7 -7 -6 -6 -6 -5 -5 -4 -4 -4 -4 -4 -5 -5 -5 -5 -5 -5 -5 -5 -5 -3
-10 -10 -11 -12 -12 -13 -15 -16 -17 -17 -16 -16 -16 -17 -17 -18 -18 -19 -17 -16 -14 -13 -16 -11 -8 -6 -6 -7 -7 -6 -6 -6 -6 -6 -6 -5 -5 -4 -4 -4 -4 -4 -5 -4 -3 -4 -5
-11 -11 -13 -14 -14 -15 -16 -16 -17 -16 -16 -16 -17 -17 -18 -19 -19 -20 -20 -20 -21 -21 -16 -13 -11 -9 -9 -9 -9 -8 -7 -6 -6 -6 -5 -5 -5 -5 -5 -5 -5 -4 -4 -4 -7 -7 -6
-12 -13 -14 -15 -16 -17 -17 -16 -17 -17 -17 -17 -17 -17 -18 -19 -19 -22 -23 -24 -23 -22 -20 -17 -16 -14 -14 -14 -11 -9 -8 -7 -7 -6 -7 -7 -9 -6 -5 -5 -5 -5 -5 -5 -6 -7 -6
-13 -14 -15 -16 -16 -17 -17 -17 -17 -17 -17 -17 -17 -18 -19 -20 -20 -24 -24 -23 -23 -23 -23 -20 -19 -16 -15 -14 -11 -12 -11 -10 -8 -8 -7 -7 -10 -9 -8 -4 -4 -4 -5 -5 -5 -5 -6
-14 -15 -15 -16 -17 -17 -17 -17 -17 -17 -17 -17 -18 -19 -20 -21 -23 -25 -25 -25 -24 -24 -24 -23 -20 -18 -16 -15 -13 -11 -14 -13 -8 -8 -6 -7 -9 -8 -5 -5 -5 -5 -5 -4 -4 -4 -6
-15 -15 -16 -17 -17 -17 -17 -17 -17 -17 -17 -18 -19 -20 -20 -21 -22 -24 -25 -25 -26 -26 -24 -24 -22 -21 -17 -16 -16 -13 -14 -9 -8 -9 -9 -11 -8 -8 -10 -9 -6 -5 -5 -5 -5 -6 -6
-15 -16 -16 -17 -17 -17 -17 -16 -17 -17 -18 -18 -19 -20 -21 -22 -22 -24 -25 -25 -26 -26 -25 -24 -23 -22 -19 -18 -17 -16 -14 -10 -10 -10 -8 -7 -6 -6 -8 -6 -7 -5 -5 -5 -5 -5 -6
-16 -16 -16 -17 -17 -17 -16 -16 -17 -17 -18 -19 -19 -20 -21 -22 -23 -24 -24 -25 -25 -26 -25 -25 -24 -23 -22 -19 -18 -17 -15 -12 -12 -10 -11 -9 -8 -7 -8 -10 -10 -7 -6 -5 -5 -5 -5
-16 -16 -17 -17 -17 -17 -16 -17 -17 -18 -18 -18 -19 -21 -21 -23 -23 -24 -25 -25 -25 -25 -25 -25 -25 -24 -24 -21 -20 -18 -16 -14 -13 -10 -11 -10 -9 -9 -9 -10 -10 -9 -10 -6 -7 -5 -5
-16 -16 -17 -17 -17 -17 -17 -17 -17 -18 -18 -18 -19 -20 -21 -22 -23 -24 -25 -25 -25 -25 -26 -25 -25 -25 -24 -23 -21 -20 -18 -16 -13 -12 -11 -10 -10 -10 -9 -9 -9 -8 -7 -7 -10 -7 -6
-16 -16 -17 -17 -17 -17 -17 -17 -17 -18 -18 -18 -19 -19 -21 -22 -23 -24 -24 -25 -25 -25 -25 -25 -25 -25 -24 -24 -22 -20 -19 -17 -15 -13 -12 -11 -11 -10 -10 -10 -10 -7 -8 -7 -7 -9 -8
-16 -16 -17 -17 -17 -17 -17 -17 -17 -18 -18 -18 -18 -19 -20 -21 -21 -23 -24 -24 -25 -25 -25 -25 -25 -25 -25 -24 -23 -21 -20 -18 -17 -15 -14 -13 -12 -11 -10 -10 -10 -9 -10 -9 -8 -7 -7
-16 -17 -17 -17 -17 -17 -17 -17 -17 -17 -18 -18 -18 -19 -19 -20 -21 -22 -24 -24 -24 -25 -25 -25 -26 -25 -25 -24 -23 -22 -22 -21 -18 -17 -16 -15 -13 -12 -11 -12 -13 -13 -13 -9 -8 -8 -7
-16 -17 -17 -17 -17 -17 -17 -17 -17 -17 -18 -18 -18 -18 -19 -20 -21 -21 -22 -23 -24 -24 -24 -25 -25 -25 -25 -24 -23 -24 -22 -22 -21 -20 -17 -16 -15 -14 -12 -12 -13 -14 -13 -10 -10 -11 -9
-16 -17 -17 -17 -17 -17 -16 -17 -17 -17 -17 -17 -18 -18 -18 -19 -20 -21 -21 -22 -23 -24 -24 -25 -25 -25 -24 -24 -23 -23 -24 -22 -22 -21 -20 -17 -16 -15 -14 -13 -14 -14 -14 -13 -12 -10 -8
-16 -17 -17 -17 -17 -16 -16 -17 -17 -17 -17 -17 -18 -18 -18 -19 -19 -20 -21 -21 -22 -22 -23 -24 -24 -24 -24 -24 -23 -23 -24 -23 -23 -22 -21 -20 -18 -17 -16 -14 -14 -14 -13 -12 -10 -9 -7

GFSGBSN_500_temp_030.txt.gz
Temp
-5 -5 -5 -5 -5 -5 -5 -4 -5 -5 -5 -5 -5 -5 -4 -4 -4 -4 -4 -4 -4 -4 -4 -4 -4 -4 -4 -3 -3 -4 -3 -3 -3 -3 -3 -3 -3 -4 -4 -5 -5 -6 -5 -6 -6 -5 -7
-6 -5 -5 -5 -5 -5 -5 -5 -5 -5 -5 -5 -5 -4 -4 -4 -4 -5 -5 -4 -4 -4 -4 -4 -4 -4 -4 -4 -3 -4 -4 -3 -3 -3 -3 -3 -3 -4 -5 -5 -5 -6 -6 -6 -5 -6 -7
-6 -6 -6 -6 -6 -6 -6 -5 -5 -5 -5 -5 -5 -5 -5 -4 -4 -4 -4 -5 -4 -4 -4 -4 -4 -4 -4 -5 -3 -4 -4 -3 -3 -3 -3 -3 -4 -4 -5 -5 -5 -6 -7 -7 -7 -8 -8
-6 -6 -6 -6 -6 -6 -6 -6 -6 -7 -7 -6 -6 -6 -6 -5 -5 -5 -4 -4 -4 -4 -4 -4 -4 -4 -4 -5 -4 -4 -4 -4 -4 -3 -3 -4 -4 -4 -4 -5 -5 -5 -6 -7 -7 -7 -7
-7 -7 -7 -7 -7 -7 -7 -7 -7 -7 -7 -7 -6 -6 -6 -6 -6 -5 -5 -5 -5 -4 -4 -4 -4 -4 -5 -5 -4 -4 -4 -4 -4 -4 -3 -4 -4 -4 -4 -4 -5 -5 -5 -5 -8 -7 -6
-7 -8 -8 -8 -8 -8 -8 -7 -7 -7 -7 -7 -7 -6 -6 -6 -6 -6 -6 -5 -5 -5 -4 -4 -4 -4 -4 -5 -5 -4 -5 -5 -4 -4 -4 -4 -4 -4 -4 -4 -2 -4 -5 -6 -6 -7 -7
-8 -8 -8 -8 -8 -7 -7 -7 -7 -7 -7 -7 -7 -7 -6 -6 -6 -6 -6 -6 -6 -5 -5 -5 -4 -4 -4 -4 -5 -5 -5 -5 -5 -4 -4 -4 -4 -3 -4 -4 -4 -5 -6 -6 -8 -7 -7
-8 -8 -8 -7 -7 -7 -7 -7 -6 -6 -6 -6 -6 -6 -6 -6 -6 -6 -6 -6 -6 -6 -5 -5 -5 -4 -5 -4 -4 -5 -5 -4 -5 -4 -4 -4 -3 -4 -4 -5 -5 -5 -5 -8 -8 -8 -7
-8 -7 -7 -7 -7 -6 -6 -6 -6 -6 -6 -6 -6 -6 -6 -5 -6 -6 -6 -6 -6 -6 -5 -5 -6 -5 -6 -5 -4 -5 -5 -5 -5 -5 -5 -4 -4 -4 -4 -4 -4 -5 -5 -6 -8 -8 -7
-7 -7 -7 -7 -7 -7 -7 -6 -7 -7 -7 -7 -8 -9 -9 -9 -7 -7 -6 -6 -6 -6 -5 -5 -6 -6 -6 -5 -5 -5 -5 -5 -5 -5 -5 -5 -5 -4 -5 -4 -4 -4 -5 -6 -8 -8 -7
-8 -8 -7 -7 -7 -7 -7 -8 -9 -10 -10 -11 -13 -14 -14 -14 -15 -14 -12 -11 -8 -6 -6 -8 -7 -6 -6 -6 -6 -5 -5 -6 -5 -5 -5 -4 -4 -4 -5 -4 -4 -4 -5 -5 -7 -8 -8
-8 -8 -8 -8 -8 -8 -9 -10 -11 -13 -14 -15 -15 -15 -15 -15 -15 -16 -16 -15 -14 -9 -7 -13 -11 -7 -7 -7 -7 -7 -6 -6 -7 -7 -6 -5 -5 -5 -5 -5 -5 -6 -6 -7 -6 -9 -8
-9 -9 -9 -9 -10 -10 -10 -12 -13 -15 -16 -16 -15 -15 -16 -16 -16 -16 -16 -16 -17 -14 -14 -15 -12 -8 -7 -6 -8 -7 -7 -6 -5 -5 -5 -6 -5 -5 -5 -6 -6 -5 -6 -7 -7 -6 -5
-9 -10 -11 -11 -12 -12 -12 -14 -15 -16 -16 -16 -16 -15 -16 -16 -16 -16 -17 -17 -18 -19 -20 -15 -13 -11 -9 -8 -8 -9 -8 -7 -7 -6 -7 -5 -5 -5 -5 -5 -5 -4 -5 -4 -4 -5 -6
-10 -11 -12 -12 -13 -13 -14 -15 -16 -16 -16 -16 -16 -15 -15 -16 -17 -17 -18 -18 -20 -21 -20 -17 -15 -16 -14 -14 -10 -14 -10 -7 -7 -7 -6 -6 -5 -6 -5 -5 -6 -5 -4 -5 -6 -7 -8
-11 -12 -13 -13 -14 -14 -15 -16 -16 -16 -16 -16 -16 -15 -15 -17 -17 -18 -19 -21 -22 -22 -21 -21 -18 -17 -16 -15 -13 -12 -12 -12 -9 -7 -8 -7 -10 -7 -7 -7 -6 -5 -6 -6 -7 -7 -7
-12 -13 -14 -14 -14 -15 -15 -16 -16 -16 -16 -16 -16 -17 -16 -18 -20 -20 -23 -23 -23 -23 -22 -22 -22 -19 -16 -15 -13 -11 -12 -13 -13 -13 -9 -8 -9 -9 -9 -7 -5 -6 -7 -7 -6 -6 -7
-13 -14 -14 -14 -15 -15 -16 -16 -16 -16 -16 -17 -16 -17 -17 -18 -19 -21 -24 -22 -24 -24 -24 -23 -23 -21 -17 -15 -15 -14 -13 -12 -12 -12 -11 -9 -9 -10 -9 -9 -8 -6 -6 -5 -5 -5 -6
-14 -14 -14 -15 -15 -16 -16 -16 -16 -16 -16 -16 -17 -17 -18 -19 -20 -21 -22 -23 -24 -24 -24 -24 -23 -23 -19 -16 -14 -14 -13 -13 -12 -13 -13 -13 -10 -9 -9 -9 -9 -7 -6 -6 -7 -6 -5
-14 -15 -15 -15 -16 -16 -16 -16 -16 -16 -17 -17 -17 -18 -19 -20 -21 -21 -23 -24 -24 -24 -25 -25 -25 -23 -20 -20 -18 -15 -14 -14 -13 -13 -11 -11 -9 -9 -9 -7 -8 -9 -9 -8 -8 -5 -6
-15 -15 -15 -16 -16 -17 -16 -17 -16 -17 -17 -17 -18 -18 -19 -20 -21 -22 -23 -24 -24 -25 -25 -25 -25 -24 -23 -22 -18 -17 -15 -14 -14 -13 -12 -12 -10 -10 -10 -10 -9 -8 -7 -7 -5 -6 -6
-15 -15 -15 -16 -16 -17 -17 -17 -16 -16 -17 -18 -18 -18 -19 -19 -21 -22 -23 -24 -25 -25 -25 -25 -25 -24 -23 -23 -21 -19 -16 -15 -14 -13 -13 -11 -10 -11 -11 -9 -10 -10 -9 -7 -9 -8 -8
-15 -15 -15 -16 -17 -17 -17 -16 -16 -16 -17 -18 -18 -18 -19 -19 -20 -21 -23 -24 -24 -25 -25 -25 -25 -25 -24 -25 -23 -20 -19 -17 -15 -14 -13 -12 -12 -11 -9 -9 -9 -10 -10 -9 -9 -9 -9
-15 -15 -16 -16 -17 -16 -17 -16 -16 -17 -17 -17 -18 -18 -19 -19 -20 -21 -22 -24 -24 -24 -25 -25 -25 -25 -24 -24 -23 -20 -19 -18 -16 -14 -14 -13 -10 -10 -10 -10 -10 -10 -10 -10 -10 -9 -9
-15 -16 -16 -16 -17 -17 -16 -16 -16 -17 -17 -18 -17 -18 -18 -19 -19 -21 -22 -23 -24 -24 -25 -25 -25 -25 -25 -24 -23 -21 -19 -20 -18 -16 -14 -14 -12 -11 -11 -10 -10 -11 -10 -10 -10 -10 -9
-15 -16 -16 -16 -17 -17 -16 -16 -16 -17 -17 -18 -17 -18 -18 -19 -19 -20 -21 -22 -23 -24 -24 -24 -25 -25 -25 -23 -23 -22 -20 -21 -20 -18 -15 -14 -14 -12 -12 -11 -11 -11 -11 -10 -11 -10 -10
-16 -16 -16 -16 -17 -17 -17 -17 -17 -17 -17 -17 -17 -18 -18 -18 -19 -20 -21 -22 -22 -23 -24 -24 -25 -25 -24 -24 -23 -22 -20 -20 -20 -19 -17 -15 -14 -14 -13 -11 -11 -11 -11 -11 -11 -11 -10
-16 -16 -16 -16 -17 -16 -16 -16 -16 -17 -17 -17 -17 -17 -18 -18 -18 -19 -20 -20 -21 -22 -23 -24 -24 -24 -24 -23 -23 -22 -21 -20 -20 -19 -18 -17 -16 -15 -15 -13 -12 -12 -11 -12 -11 -10 -10
-17 -17 -17 -17 -17 -17 -16 -16 -17 -17 -17 -17 -17 -17 -18 -18 -18 -19 -19 -19 -20 -20 -21 -22 -23 -23 -23 -23 -23 -22 -21 -22 -21 -19 -19 -18 -18 -16 -16 -14 -13 -13 -12 -12 -12 -12 -11

GFSGBSN_500_temp_036.txt.gz
Temp
-6 -6 -6 -6 -6 -5 -5 -5 -5 -5 -5 -5 -5 -5 -5 -5 -5 -4 -4 -4 -4 -4 -4 -4 -4 -4 -4 -5 -4 -4 -4 -4 -4 -4 -3 -4 -4 -4 -4 -4 -4 -5 -5 -5 -3 -3 -4
-6 -6 -6 -6 -6 -6 -6 -6 -6 -6 -6 -6 -5 -5 -5 -5 -5 -5 -5 -4 -4 -4 -4 -4 -4 -4 -4 -5 -4 -4 -4 -4 -4 -4 -4 -3 -4 -5 -5 -5 -3 -6 -6 -5 -4 -4 -6
-6 -6 -6 -6 -6 -6 -6 -6 -6 -6 -6 -6 -6 -6 -6 -6 -6 -5 -5 -5 -5 -5 -4 -4 -4 -4 -4 -5 -4 -4 -5 -4 -4 -4 -4 -4 -4 -4 -5 -5 -5 -6 -6 -5 -4 -5 -6
-7 -7 -7 -7 -7 -7 -7 -7 -7 -7 -7 -7 -6 -6 -6 -6 -6 -6 -6 -6 -5 -5 -5 -4 -4 -4 -4 -5 -5 -5 -5 -5 -4 -5 -5 -4 -4 -4 -5 -5 -5 -4 -4 -4 -4 -6 -7
-7 -8 -8 -8 -8 -8 -7 -7 -7 -7 -7 -7 -7 -6 -6 -6 -6 -6 -6 -6 -5 -5 -5 -5 -5 -4 -5 -5 -5 -4 -4 -5 -5 -5 -5 -5 -4 -4 -5 -4 -6 -4 -3 -3 -4 -6 -7
-8 -8 -8 -7 -7 -7 -7 -7 -7 -7 -7 -6 -6 -6 -6 -6 -6 -6 -6 -6 -6 -5 -6 -5 -5 -5 -5 -5 -5 -5 -5 -5 -5 -5 -5 -5 -4 -4 -4 -4 -2 -3 -3 -3 -4 -5 -6
-8 -7 -7 -7 -7 -7 -7 -7 -7 -7 -7 -6 -6 -6 -6 -6 -6 -6 -6 -6 -5 -5 -6 -5 -5 -5 -6 -6 -5 -5 -5 -6 -5 -5 -4 -5 -4 -3 -4 -4 -4 -5 -5 -4 -5 -6 -6
-7 -8 -8 -8 -8 -7 -7 -7 -7 -7 -7 -7 -6 -6 -6 -6 -6 -6 -6 -6 -5 -5 -5 -7 -6 -5 -5 -5 -5 -6 -5 -5 -5 -5 -5 -5 -3 -5 -5 -5 -5 -5 -5 -4 -7 -6 -6
-8 -8 -8 -8 -8 -8 -8 -7 -7 -7 -7 -7 -8 -7 -7 -8 -9 -8 -8 -9 -8 -7 -6 -6 -6 -6 -6 -5 -5 -6 -7 -6 -6 -6 -5 -5 -4 -5 -5 -5 -5 -5 -5 -5 -5 -7 -7
-8 -8 -8 -8 -8 -8 -8 -8 -8 -7 -8 -8 -8 -10 -10 -13 -12 -13 -14 -14 -14 -14 -10 -9 -9 -8 -7 -6 -5 -7 -7 -8 -7 -6 -7 -6 -6 -6 -6 -6 -6 -5 -5 -6 -6 -7 -7
-9 -8 -8 -8 -8 -8 -8 -8 -8 -8 -9 -9 -11 -12 -14 -14 -15 -15 -15 -15 -15 -15 -15 -14 -13 -12 -10 -8 -6 -7 -7 -7 -8 -7 -7 -5 -6 -5 -5 -5 -6 -5 -6 -6 -6 -8 -7
-9 -9 -9 -9 -8 -8 -8 -8 -9 -10 -12 -12 -13 -14 -15 -15 -15 -15 -15 -14 -14 -14 -14 -14 -15 -15 -15 -12 -10 -8 -8 -6 -7 -8 -7 -6 -7 -7 -6 -6 -6 -6 -6 -7 -7 -8 -8
-10 -9 -9 -9 -9 -9 -9 -9 -11 -12 -13 -14 -14 -15 -15 -16 -15 -15 -15 -15 -15 -15 -15 -15 -15 -15 -15 -15 -14 -13 -9 -7 -8 -8 -7 -8 -7 -6 -7 -7 -7 -6 -7 -7 -8 -9 -8
-10 -10 -10 -10 -10 -10 -10 -11 -12 -13 -14 -15 -15 -15 -16 -16 -15 -15 -15 -15 -15 -15 -15 -16 -16 -17 -17 -16 -16 -15 -11 -11 -8 -8 -9 -9 -9 -7 -8 -7 -7 -6 -6 -6 -5 -6 -5
-10 -10 -10 -10 -11 -11 -11 -12 -13 -14 -15 -15 -15 -16 -16 -16 -15 -15 -16 -16 -16 -16 -17 -18 -19 -19 -19 -19 -17 -16 -15 -14 -12 -10 -9 -10 -8 -8 -8 -8 -8 -8 -6 -6 -6 -6 -6
-10 -10 -11 -11 -11 -11 -13 -13 -14 -15 -15 -15 -16 -16 -16 -16 -16 -16 -16 -17 -17 -17 -19 -20 -21 -22 -22 -21 -19 -16 -17 -16 -16 -13 -9 -10 -8 -9 -8 -10 -8 -6 -7 -6 -6 -6 -6
-11 -11 -11 -12 -12 -13 -14 -14 -14 -15 -16 -16 -16 -16 -16 -16 -16 -16 -17 -17 -18 -19 -20 -21 -22 -23 -23 -23 -21 -17 -16 -16 -16 -15 -11 -10 -8 -8 -11 -10 -7 -7 -8 -8 -9 -7 -6
-11 -12 -12 -12 -12 -14 -14 -15 -15 -15 -16 -16 -16 -16 -16 -16 -17 -18 -18 -19 -19 -20 -21 -22 -23 -24 -24 -24 -24 -20 -16 -16 -16 -15 -15 -11 -8 -9 -10 -7 -9 -9 -8 -9 -8 -6 -6
-12 -12 -13 -13 -14 -14 -15 -15 -15 -16 -16 -16 -16 -16 -17 -17 -17 -18 -18 -19 -20 -20 -21 -22 -23 -24 -24 -24 -24 -23 -18 -16 -15 -16 -15 -14 -10 -9 -9 -10 -11 -10 -9 -7 -7 -8 -6
-12 -13 -13 -14 -15 -15 -15 -15 -16 -16 -16 -16 -16 -16 -17 -17 -17 -17 -18 -19 -20 -22 -22 -23 -23 -24 -24 -24 -24 -24 -19 -16 -16 -15 -15 -14 -10 -9 -9 -10 -10 -9 -9 -9 -8 -7 -6
-13 -13 -14 -15 -15 -15 -15 -16 -16 -17 -16 -16 -16 -17 -17 -17 -18 -18 -18 -19 -20 -21 -23 -23 -23 -24 -24 -24 -24 -24 -20 -17 -16 -15 -14 -13 -11 -10 -9 -9 -10 -9 -10 -10 -9 -7 -6
-13 -15 -16 -16 -16 -16 -16 -16 -16 -16 -16 -16 -16 -17 -17 -18 -18 -18 -19 -20 -20 -21 -23 -23 -24 -24 -25 -25 -24 -24 -20 -17 -17 -17 -14 -14 -13 -10 -9 -10 -10 -10 -9 -10 -10 -8 -7
-15 -16 -16 -16 -16 -17 -17 -17 -16 -16 -16 -16 -17 -17 -18 -18 -18 -18 -19 -20 -21 -21 -23 -23 -24 -24 -25 -24 -24 -23 -21 -18 -17 -17 -14 -14 -13 -11 -11 -11 -11 -11 -11 -11 -10 -9 -8
-15 -16 -16 -16 -17 -17 -17 -17 -16 -16 -16 -16 -17 -17 -17 -18 -18 -18 -19 -20 -21 -21 -22 -23 -24 -24 -24 -24 -24 -24 -19 -17 -17 -17 -14 -14 -13 -12 -12 -12 -11 -11 -11 -11 -10 -10 -10
-17 -16 -16 -17 -17 -17 -17 -16 -16 -16 -16 -16 -17 -17 -17 -17 -18 -18 -19 -20 -21 -21 -22 -24 -24 -24 -24 -24 -23 -22 -19 -17 -17 -18 -15 -14 -13 -13 -13 -12 -11 -11 -11 -10 -10 -10 -9
-16 -16 -16 -16 -16 -16 -16 -16 -16 -16 -16 -16 -17 -17 -17 -18 -18 -19 -19 -20 -20 -21 -22 -22 -23 -24 -23 -24 -24 -22 -19 -18 -17 -17 -15 -14 -13 -13 -13 -12 -12 -11 -11 -11 -10 -10 -10
-16 -16 -16 -16 -16 -16 -16 -16 -16 -16 -16 -16 -16 -17 -17 -18 -18 -18 -19 -19 -20 -21 -22 -22 -23 -23 -23 -23 -22 -21 -21 -19 -18 -18 -15 -13 -13 -13 -12 -12 -12 -10 -10 -10 -11 -10 -10
-16 -16 -16 -16 -16 -16 -16 -16 -15 -16 -16 -16 -16 -16 -16 -17 -18 -18 -19 -19 -20 -21 -21 -22 -23 -23 -23 -23 -21 -20 -20 -19 -19 -17 -15 -13 -13 -13 -12 -12 -11 -10 -10 -10 -10 -10 -10
-16 -16 -16 -16 -16 -16 -16 -16 -15 -15 -16 -15 -15 -15 -15 -16 -17 -18 -18 -19 -20 -20 -21 -22 -23 -23 -22 -22 -21 -20 -20 -18 -19 -18 -17 -15 -13 -13 -12 -12 -11 -10 -10 -10 -10 -9 -10

GFSGBSN_500_temp_042.txt.gz
Temp
-7 -7 -7 -7 -7 -7 -7 -7 -7 -7 -7 -7 -7 -6 -6 -6 -6 -6 -6 -6 -5 -5 -5 -5 -5 -5 -5 -5 -5 -5 -5 -5 -4 -4 -4 -4 -4 -5 -5 -6 -6 -5 -5 -6 -5 -5 -5
-8 -7 -7 -7 -7 -8 -8 -8 -7 -7 -7 -7 -7 -7 -7 -6 -6 -6 -6 -6 -6 -6 -6 -5 -5 -5 -5 -5 -5 -5 -5 -5 -5 -5 -5 -4 -4 -5 -5 -5 -6 -7 -7 -5 -5 -6 -6
-8 -8 -8 -8 -8 -8 -8 -8 -7 -7 -7 -7 -7 -7 -7 -6 -6 -6 -6 -6 -6 -6 -6 -6 -6 -6 -6 -5 -5 -5 -5 -5 -5 -5 -5 -5 -4 -4 -5 -5 -7 -8 -8 -4 -5 -6 -6
-8 -8 -8 -8 -8 -8 -8 -8 -8 -8 -7 -7 -7 -7 -7 -7 -7 -6 -6 -6 -6 -6 -6 -6 -6 -6 -6 -6 -6 -6 -5 -5 -5 -5 -5 -5 -4 -4 -4 -4 -6 -6 -6 -4 -5 -5 -6
-8 -8 -8 -8 -8 -8 -8 -8 -8 -7 -7 -7 -7 -7 -7 -7 -7 -7 -7 -7 -6 -6 -6 -6 -6 -5 -6 -6 -6 -6 -6 -6 -6 -5 -5 -5 -4 -5 -5 -4 -5 -6 -6 -4 -5 -6 -6
-8 -8 -8 -8 -8 -8 -8 -8 -8 -8 -8 -7 -8 -7 -7 -7 -7 -7 -7 -7 -6 -7 -6 -6 -6 -6 -6 -6 -6 -6 -6 -6 -6 -6 -6 -5 -5 -5 -5 -4 -4 -5 -5 -5 -6 -6 -6
-8 -8 -8 -8 -8 -8 -8 -8 -8 -8 -8 -8 -8 -8 -7 -7 -7 -7 -7 -7 -6 -6 -6 -6 -6 -6 -6 -6 -6 -6 -6 -6 -6 -6 -6 -6 -5 -5 -5 -6 -6 -6 -6 -6 -7 -7 -7
-8 -8 -9 -9 -9 -8 -8 -8 -9 -8 -9 -8 -8 -8 -7 -7 -7 -7 -7 -7 -7 -7 -7 -6 -6 -6 -6 -6 -6 -6 -6 -6 -6 -6 -6 -6 -5 -6 -6 -6 -6 -6 -6 -6 -7 -7 -7
-9 -9 -9 -9 -9 -9 -9 -9 -9 -9 -9 -8 -8 -9 -8 -8 -8 -8 -8 -8 -8 -9 -8 -7 -7 -7 -8 -7 -7 -7 -6 -7 -7 -7 -7 -6 -6 -6 -7 -7 -6 -6 -5 -7 -8 -8 -9
-9 -9 -9 -9 -9 -9 -9 -9 -9 -9 -9 -9 -9 -9 -9 -9 -10 -9 -8 -9 -10 -10 -9 -9 -9 -10 -10 -10 -9 -9 -8 -7 -7 -7 -7 -7 -7 -6 -7 -7 -7 -6 -6 -7 -8 -9 -9
-9 -9 -9 -9 -9 -9 -10 -10 -10 -10 -10 -9 -10 -10 -10 -11 -11 -11 -12 -12 -12 -13 -12 -12 -12 -12 -13 -13 -12 -11 -11 -10 -9 -8 -8 -7 -7 -7 -6 -7 -8 -7 -7 -7 -8 -9 -9
-9 -9 -9 -10 -10 -10 -10 -10 -10 -10 -10 -10 -11 -11 -12 -12 -12 -13 -13 -14 -14 -14 -15 -14 -14 -14 -14 -14 -14 -14 -14 -13 -11 -11 -9 -8 -8 -7 -6 -8 -8 -9 -8 -8 -9 -9 -9
-10 -10 -10 -10 -11 -11 -11 -11 -11 -11 -11 -12 -12 -13 -14 -14 -14 -14 -15 -15 -15 -15 -15 -15 -15 -15 -14 -14 -14 -14 -14 -14 -14 -13 -12 -10 -9 -8 -8 -8 -8 -9 -8 -9 -9 -9 -4
-10 -10 -11 -11 -11 -12 -11 -11 -11 -12 -12 -14 -14 -15 -14 -14 -14 -15 -15 -15 -15 -15 -15 -15 -15 -15 -15 -14 -14 -14 -15 -15 -15 -14 -14 -12 -11 -10 -9 -8 -8 -8 -8 -8 -8 -7 -5
-10 -11 -11 -11 -12 -11 -12 -12 -12 -13 -14 -15 -15 -15 -15 -15 -15 -15 -15 -15 -15 -15 -15 -16 -16 -15 -16 -16 -16 -15 -15 -15 -15 -15 -14 -14 -11 -11 -11 -11 -10 -9 -8 -8 -9 -7 -6
-10 -11 -11 -12 -12 -12 -12 -12 -14 -15 -15 -16 -15 -15 -15 -15 -15 -15 -15 -15 -15 -16 -16 -16 -16 -16 -16 -16 -16 -16 -16 -16 -16 -15 -15 -15 -13 -13 -12 -12 -11 -9 -9 -10 -9 -7 -6
-10 -11 -11 -12 -12 -12 -12 -13 -15 -16 -16 -16 -16 -15 -15 -16 -15 -15 -15 -15 -16 -16 -17 -17 -17 -17 -17 -17 -17 -17 -17 -17 -17 -16 -16 -15 -15 -12 -12 -13 -12 -10 -10 -9 -9 -8 -6
-11 -12 -12 -13 -13 -14 -15 -15 -15 -16 -17 -16 -16 -16 -15 -15 -15 -16 -16 -16 -16 -16 -17 -17 -18 -18 -18 -18 -18 -19 -18 -19 -19 -19 -18 -17 -15 -13 -13 -13 -12 -12 -10 -9 -9 -6 -6
-13 -13 -13 -14 -15 -15 -15 -16 -16 -16 -16 -16 -16 -16 -15 -15 -16 -16 -17 -17 -17 -17 -18 -18 -19 -19 -19 -20 -20 -20 -20 -20 -21 -22 -23 -21 -18 -15 -13 -14 -14 -13 -11 -10 -9 -9 -7
-14 -14 -15 -16 -15 -16 -16 -16 -15 -15 -15 -15 -16 -16 -15 -16 -16 -17 -18 -18 -18 -18 -19 -19 -20 -20 -21 -21 -21 -21 -22 -23 -23 -24 -24 -22 -20 -16 -14 -14 -14 -13 -12 -11 -9 -9 -7
-14 -15 -15 -16 -16 -16 -15 -15 -15 -15 -15 -15 -15 -15 -16 -16 -16 -17 -17 -18 -18 -19 -20 -20 -21 -21 -21 -22 -22 -23 -23 -24 -24 -24 -24 -23 -22 -20 -16 -15 -14 -13 -12 -11 -9 -8 -7
-16 -15 -16 -16 -16 -15 -15 -15 -16 -16 -15 -15 -15 -16 -16 -16 -16 -17 -16 -17 -18 -19 -20 -21 -22 -22 -23 -23 -23 -23 -24 -25 -25 -25 -25 -24 -21 -19 -16 -15 -14 -13 -12 -11 -9 -8 -8
-16 -16 -16 -16 -15 -15 -15 -15 -15 -15 -15 -15 -15 -16 -16 -16 -17 -17 -16 -17 -19 -20 -21 -22 -22 -23 -23 -23 -24 -24 -24 -25 -25 -25 -25 -23 -20 -19 -16 -16 -15 -14 -12 -12 -10 -9 -8
-16 -16 -16 -16 -16 -15 -15 -15 -15 -15 -15 -15 -15 -15 -15 -15 -16 -16 -17 -18 -19 -21 -21 -22 -23 -23 -23 -24 -24 -24 -24 -24 -25 -25 -24 -22 -20 -19 -17 -16 -15 -14 -12 -12 -11 -10 -9
-16 -16 -16 -16 -16 -16 -15 -16 -15 -15 -15 -15 -15 -15 -15 -16 -16 -17 -17 -18 -20 -21 -22 -23 -23 -23 -24 -24 -24 -24 -25 -24 -24 -24 -21 -20 -19 -17 -17 -15 -15 -14 -14 -13 -12 -11 -9
-16 -16 -16 -16 -16 -16 -15 -16 -16 -16 -15 -15 -15 -15 -16 -16 -16 -17 -18 -19 -20 -22 -22 -23 -22 -23 -23 -23 -23 -23 -23 -23 -21 -20 -19 -20 -18 -16 -16 -15 -14 -13 -13 -12 -12 -11 -10
-16 -16 -16 -16 -16 -16 -16 -16 -16 -16 -16 -16 -16 -16 -16 -16 -16 -17 -18 -18 -20 -22 -23 -22 -22 -22 -22 -22 -22 -22 -22 -21 -20 -19 -19 -18 -17 -15 -15 -15 -14 -13 -13 -12 -12 -11 -10
-16 -16 -16 -16 -16 -16 -16 -17 -17 -17 -16 -16 -16 -16 -16 -17 -17 -17 -17 -18 -20 -22 -22 -22 -22 -22 -21 -21 -20 -20 -20 -20 -19 -19 -18 -17 -16 -16 -15 -15 -15 -14 -13 -13 -12 -11 -10
-16 -16 -16 -16 -16 -16 -17 -17 -17 -17 -16 -16 -16 -16 -17 -17 -17 -17 -17 -18 -19 -21 -22 -21 -21 -21 -20 -20 -20 -20 -20 -19 -19 -19 -19 -18 -16 -15 -15 -14 -14 -14 -13 -12 -12 -11 -10

GFSGBSN_500_temp_045.txt.gz
Temp
-7 -7 -7 -7 -8 -8 -8 -8 -8 -7 -7 -7 -7 -7 -7 -7 -6 -6 -6 -6 -6 -6 -6 -6 -6 -5 -5 -5 -5 -5 -5 -5 -5 -5 -4 -4 -4 -5 -5 -6 -6 -6 -6 -5 -5 -5 -5
-8 -8 -8 -8 -8 -8 -8 -8 -8 -7 -7 -7 -7 -7 -7 -7 -6 -6 -6 -6 -6 -6 -6 -6 -6 -6 -6 -5 -5 -5 -5 -5 -5 -5 -5 -5 -4 -4 -4 -6 -5 -5 -5 -5 -5 -5 -5
-8 -8 -8 -8 -8 -8 -8 -8 -8 -8 -7 -7 -7 -7 -7 -7 -7 -6 -7 -6 -6 -6 -6 -6 -6 -6 -6 -6 -6 -6 -6 -5 -5 -5 -5 -5 -4 -4 -4 -5 -5 -5 -5 -5 -6 -6 -5
-8 -8 -8 -8 -8 -8 -8 -8 -8 -8 -7 -7 -7 -7 -7 -7 -7 -7 -7 -7 -6 -6 -6 -6 -6 -6 -6 -6 -6 -6 -6 -6 -6 -6 -6 -5 -5 -4 -5 -5 -5 -5 -4 -5 -5 -6 -6
-8 -8 -8 -8 -8 -8 -8 -8 -8 -8 -7 -8 -8 -7 -7 -7 -8 -7 -7 -7 -7 -6 -7 -6 -6 -6 -6 -6 -6 -6 -6 -6 -6 -6 -6 -5 -5 -5 -5 -5 -5 -6 -4 -4 -5 -6 -6
-8 -8 -8 -8 -8 -8 -8 -8 -8 -8 -8 -8 -8 -8 -7 -8 -8 -7 -7 -7 -7 -6 -7 -6 -6 -6 -6 -6 -6 -6 -6 -6 -6 -6 -6 -6 -5 -6 -5 -5 -4 -6 -5 -4 -5 -6 -7
-8 -8 -8 -8 -8 -8 -8 -8 -8 -8 -8 -8 -8 -8 -8 -8 -7 -8 -8 -7 -7 -6 -6 -6 -7 -6 -6 -6 -6 -6 -6 -6 -6 -6 -6 -6 -6 -5 -7 -6 -6 -7 -6 -5 -6 -6 -7
-9 -9 -9 -9 -9 -9 -9 -9 -9 -9 -9 -9 -9 -9 -8 -8 -8 -8 -8 -8 -7 -7 -6 -6 -6 -7 -6 -6 -6 -6 -6 -7 -6 -6 -6 -6 -6 -6 -7 -6 -7 -7 -7 -6 -7 -6 -6
-9 -9 -9 -9 -9 -9 -9 -9 -9 -9 -10 -9 -9 -9 -9 -9 -8 -8 -8 -9 -8 -8 -8 -7 -7 -7 -7 -7 -7 -7 -6 -7 -7 -7 -7 -6 -6 -6 -7 -7 -7 -7 -7 -7 -8 -7 -6
-9 -9 -9 -10 -10 -10 -10 -10 -10 -10 -10 -10 -10 -10 -10 -9 -9 -9 -9 -10 -10 -9 -9 -8 -8 -9 -8 -8 -8 -8 -8 -7 -8 -8 -7 -7 -6 -7 -6 -7 -7 -7 -7 -8 -9 -8 -8
-9 -10 -10 -10 -10 -10 -10 -10 -10 -10 -11 -10 -10 -10 -10 -10 -10 -10 -11 -11 -11 -11 -10 -10 -10 -11 -12 -11 -10 -10 -9 -9 -8 -9 -8 -8 -8 -6 -6 -7 -8 -8 -7 -7 -9 -9 -9
-10 -10 -10 -10 -10 -10 -11 -11 -11 -11 -11 -11 -10 -11 -11 -12 -12 -12 -12 -12 -13 -13 -13 -13 -13 -13 -14 -14 -14 -13 -13 -12 -12 -11 -10 -9 -9 -8 -7 -8 -8 -9 -8 -8 -8 -9 -9
-10 -10 -10 -10 -10 -11 -11 -11 -12 -11 -11 -11 -11 -12 -12 -13 -13 -14 -14 -14 -14 -14 -15 -14 -15 -15 -15 -14 -14 -14 -14 -14 -14 -14 -13 -11 -10 -9 -9 -8 -9 -9 -8 -9 -9 -8 -5
-10 -10 -10 -11 -11 -11 -12 -12 -13 -12 -12 -12 -12 -14 -14 -14 -14 -14 -15 -15 -15 -15 -15 -15 -15 -15 -14 -14 -14 -14 -14 -14 -14 -14 -14 -14 -13 -11 -10 -9 -10 -10 -9 -8 -8 -7 -6
-11 -11 -11 -11 -11 -11 -12 -13 -13 -12 -13 -14 -15 -15 -15 -15 -15 -15 -15 -15 -15 -15 -15 -15 -15 -15 -15 -15 -15 -15 -15 -15 -15 -15 -15 -14 -14 -13 -12 -11 -11 -10 -9 -9 -9 -7 -7
-11 -11 -12 -12 -12 -13 -13 -14 -14 -14 -14 -15 -16 -16 -16 -15 -15 -15 -15 -15 -15 -15 -15 -15 -16 -15 -15 -15 -15 -16 -16 -15 -16 -16 -15 -15 -14 -14 -14 -14 -12 -12 -10 -11 -10 -8 -6
-11 -12 -13 -13 -13 -14 -14 -15 -15 -15 -15 -15 -16 -16 -15 -15 -15 -15 -15 -15 -16 -16 -16 -16 -16 -16 -16 -16 -16 -17 -16 -16 -16 -16 -16 -16 -15 -14 -14 -15 -14 -12 -13 -11 -10 -8 -7
-12 -13 -13 -14 -14 -15 -15 -15 -15 -15 -15 -15 -15 -15 -15 -15 -15 -15 -15 -15 -16 -16 -16 -17 -17 -17 -17 -17 -18 -18 -18 -18 -18 -17 -17 -17 -16 -15 -15 -15 -15 -15 -12 -12 -12 -9 -8
-13 -13 -15 -15 -15 -16 -15 -15 -15 -15 -15 -15 -15 -15 -15 -15 -15 -16 -15 -16 -16 -16 -16 -17 -17 -18 -18 -18 -19 -19 -19 -20 -19 -19 -18 -18 -17 -16 -15 -15 -15 -15 -14 -13 -11 -10 -9
-14 -15 -15 -16 -16 -15 -15 -15 -15 -15 -15 -14 -14 -14 -15 -15 -15 -15 -16 -16 -16 -16 -17 -18 -18 -19 -20 -20 -20 -20 -20 -21 -21 -20 -20 -20 -19 -18 -17 -16 -16 -16 -15 -14 -13 -12 -9
-15 -15 -16 -16 -15 -15 -15 -15 -15 -15 -14 -14 -14 -14 -14 -14 -14 -15 -15 -15 -16 -17 -17 -19 -21 -21 -21 -21 -21 -21 -22 -22 -22 -22 -21 -21 -21 -20 -18 -17 -17 -16 -15 -14 -13 -11 -10
-15 -16 -16 -16 -15 -15 -16 -15 -15 -15 -15 -14 -14 -14 -14 -14 -14 -15 -15 -16 -16 -17 -20 -21 -22 -22 -22 -22 -22 -22 -23 -23 -22 -23 -23 -23 -23 -22 -21 -20 -18 -16 -14 -14 -12 -11 -10
-16 -16 -16 -16 -15 -16 -16 -15 -15 -15 -15 -15 -15 -15 -15 -15 -15 -16 -16 -16 -17 -19 -22 -22 -22 -22 -23 -23 -23 -23 -23 -23 -23 -23 -23 -24 -25 -24 -24 -23 -21 -16 -14 -13 -12 -11 -10
-16 -16 -16 -16 -16 -16 -16 -16 -16 -16 -15 -15 -15 -15 -16 -16 -16 -16 -16 -17 -20 -22 -22 -22 -22 -22 -23 -23 -23 -23 -23 -23 -24 -24 -24 -24 -25 -24 -23 -21 -21 -16 -15 -14 -12 -10 -10
-16 -16 -16 -16 -16 -16 -16 -16 -16 -16 -16 -16 -16 -16 -16 -16 -16 -16 -16 -18 -21 -22 -22 -22 -22 -22 -22 -23 -23 -23 -23 -23 -24 -24 -24 -25 -24 -23 -21 -20 -19 -17 -16 -14 -12 -11 -10
-16 -16 -16 -16 -16 -16 -16 -16 -17 -17 -16 -16 -16 -16 -16 -16 -16 -16 -16 -19 -21 -21 -21 -21 -21 -21 -22 -22 -22 -22 -23 -23 -23 -24 -24 -24 -22 -22 -20 -18 -16 -17 -16 -14 -12 -12 -11
-16 -16 -16 -17 -16 -16 -16 -17 -17 -17 -17 -16 -16 -16 -16 -17 -17 -17 -16 -18 -19 -19 -20 -20 -21 -21 -21 -21 -21 -20 -21 -21 -21 -21 -20 -20 -20 -19 -19 -16 -16 -16 -15 -14 -14 -12 -11
-16 -16 -16 -17 -16 -16 -17 -17 -17 -17 -17 -17 -17 -17 -16 -17 -17 -17 -17 -18 -18 -19 -19 -19 -20 -20 -20 -20 -20 -20 -21 -20 -20 -20 -20 -20 -20 -19 -17 -16 -15 -16 -15 -15 -14 -13 -11
-16 -16 -17 -17 -17 -17 -17 -17 -17 -17 -17 -17 -17 -17 -17 -17 -18 -18 -18 -18 -18 -19 -19 -20 -19 -20 -20 -20 -20 -20 -20 -20 -19 -19 -19 -19 -18 -17 -16 -17 -14 -15 -15 -14 -14 -13 -11

GFSGBSN_500_temp_048.txt.gz
Temp
-7 -7 -7 -7 -7 -7 -7 -7 -7 -7 -7 -7 -7 -7 -7 -7 -7 -7 -6 -6 -6 -6 -6 -6 -6 -5 -5 -5 -5 -5 -5 -5 -5 -5 -5 -4 -4 -4 -5 -6 -6 -6 -5 -5 -5 -6 -4
-8 -8 -8 -8 -8 -8 -8 -7 -7 -7 -7 -7 -7 -7 -7 -7 -7 -6 -6 -6 -6 -6 -6 -6 -6 -6 -6 -6 -6 -5 -5 -5 -5 -5 -5 -5 -5 -4 -4 -5 -5 -5 -5 -5 -5 -5 -5
-7 -7 -7 -7 -7 -7 -7 -8 -8 -8 -7 -7 -7 -7 -7 -7 -7 -7 -6 -6 -6 -6 -6 -6 -6 -6 -6 -6 -6 -6 -6 -5 -5 -5 -5 -5 -5 -5 -4 -5 -5 -4 -5 -5 -5 -5 -5
-7 -7 -7 -7 -7 -7 -7 -7 -7 -7 -7 -7 -7 -7 -7 -7 -7 -7 -7 -7 -7 -7 -6 -6 -6 -6 -6 -6 -6 -6 -6 -6 -6 -6 -5 -5 -5 -5 -5 -5 -5 -5 -4 -5 -5 -5 -6
-7 -8 -8 -8 -8 -8 -8 -8 -8 -8 -8 -8 -8 -7 -7 -7 -7 -7 -7 -7 -7 -7 -7 -6 -6 -6 -6 -6 -6 -6 -6 -6 -6 -6 -6 -6 -6 -5 -6 -5 -5 -5 -5 -5 -5 -6 -6
-8 -8 -8 -8 -8 -8 -8 -8 -8 -8 -8 -8 -8 -7 -7 -8 -8 -7 -7 -7 -7 -7 -7 -7 -6 -6 -6 -6 -6 -6 -6 -6 -6 -6 -6 -6 -6 -6 -6 -6 -6 -6 -6 -5 -5 -6 -6
-8 -8 -8 -8 -8 -8 -8 -8 -8 -8 -8 -8 -8 -8 -8 -8 -8 -8 -8 -7 -7 -7 -7 -7 -6 -6 -6 -6 -6 -6 -6 -6 -6 -6 -6 -6 -6 -6 -6 -6 -6 -6 -6 -6 -6 -7 -7
-8 -9 -9 -9 -9 -9 -9 -9 -9 -9 -9 -9 -9 -9 -9 -9 -9 -9 -9 -8 -8 -7 -7 -7 -7 -7 -6 -6 -6 -6 -7 -7 -6 -6 -6 -6 -6 -6 -6 -6 -6 -7 -7 -6 -6 -6 -6
-9 -9 -9 -9 -9 -10 -10 -9 -9 -9 -9 -9 -10 -10 -10 -10 -10 -9 -9 -9 -8 -8 -8 -7 -8 -7 -7 -7 -7 -6 -6 -7 -7 -7 -7 -6 -6 -6 -6 -6 -6 -7 -7 -7 -7 -6 -6
-9 -9 -9 -10 -10 -10 -10 -10 -10 -10 -10 -10 -10 -11 -10 -10 -10 -10 -10 -9 -9 -9 -9 -8 -8 -8 -8 -8 -7 -7 -7 -7 -7 -7 -7 -7 -7 -6 -6 -6 -6 -7 -7 -7 -7 -7 -7
-9 -10 -10 -10 -10 -10 -10 -10 -10 -10 -10 -11 -11 -11 -11 -11 -10 -11 -11 -11 -11 -10 -11 -9 -9 -10 -9 -9 -9 -8 -8 -8 -8 -8 -7 -7 -7 -7 -7 -6 -6 -7 -7 -8 -7 -7 -8
-10 -10 -10 -10 -10 -11 -11 -11 -11 -11 -11 -11 -11 -12 -12 -11 -11 -11 -12 -12 -13 -12 -12 -11 -12 -12 -12 -11 -11 -11 -10 -10 -10 -10 -9 -9 -7 -7 -7 -7 -7 -7 -8 -8 -8 -8 -7
-10 -10 -10 -11 -11 -11 -11 -12 -12 -12 -12 -12 -12 -12 -13 -13 -12 -13 -13 -13 -13 -13 -14 -13 -13 -14 -14 -14 -14 -14 -13 -13 -12 -12 -11 -11 -9 -9 -9 -8 -8 -8 -8 -8 -9 -8 -6
-11 -11 -11 -11 -11 -12 -12 -12 -12 -13 -13 -13 -13 -14 -14 -15 -15 -15 -15 -14 -15 -14 -15 -15 -15 -14 -14 -14 -14 -14 -14 -14 -14 -14 -14 -13 -12 -11 -9 -9 -9 -8 -8 -8 -8 -8 -6
-11 -11 -11 -12 -13 -13 -13 -14 -14 -14 -14 -14 -14 -14 -15 -16 -16 -16 -15 -15 -15 -15 -15 -15 -15 -15 -14 -15 -15 -14 -14 -14 -14 -14 -14 -14 -14 -13 -11 -11 -11 -8 -9 -7 -9 -11 -8
-11 -11 -11 -12 -13 -14 -14 -15 -15 -15 -15 -14 -15 -15 -15 -15 -15 -15 -15 -15 -15 -15 -15 -15 -15 -15 -15 -15 -15 -15 -15 -14 -14 -15 -15 -14 -15 -14 -13 -13 -12 -12 -9 -11 -10 -10 -8
-12 -12 -13 -14 -14 -15 -15 -15 -15 -15 -14 -14 -14 -15 -15 -15 -15 -15 -15 -15 -15 -15 -15 -15 -15 -15 -15 -15 -15 -15 -15 -15 -15 -15 -15 -15 -15 -14 -14 -14 -14 -14 -13 -13 -14 -11 -9
-12 -13 -14 -14 -15 -15 -15 -15 -15 -15 -15 -14 -14 -14 -14 -14 -15 -15 -15 -15 -15 -15 -15 -15 -15 -16 -16 -16 -16 -17 -17 -17 -16 -16 -16 -16 -15 -15 -14 -14 -14 -14 -13 -13 -14 -11 -8
-13 -14 -14 -15 -15 -15 -15 -15 -15 -15 -14 -14 -14 -14 -15 -14 -14 -14 -14 -14 -14 -14 -14 -15 -15 -16 -17 -18 -18 -18 -18 -18 -18 -17 -17 -16 -16 -16 -15 -15 -15 -15 -15 -14 -13 -11 -12
-14 -15 -15 -15 -15 -15 -15 -15 -15 -15 -15 -14 -14 -14 -15 -14 -14 -14 -14 -14 -14 -14 -14 -15 -16 -18 -19 -20 -20 -20 -20 -19 -19 -19 -18 -18 -17 -17 -16 -17 -18 -17 -16 -15 -15 -14 -11
-15 -15 -15 -15 -15 -15 -15 -15 -15 -15 -15 -15 -15 -15 -15 -15 -15 -14 -14 -14 -14 -15 -16 -19 -20 -21 -21 -21 -21 -21 -21 -21 -20 -20 -20 -19 -18 -18 -17 -17 -17 -17 -16 -15 -15 -13 -10
-15 -15 -16 -16 -15 -15 -15 -16 -15 -16 -15 -15 -15 -15 -15 -15 -15 -15 -14 -14 -15 -17 -19 -21 -21 -21 -21 -21 -22 -22 -22 -22 -22 -22 -21 -21 -20 -21 -19 -18 -18 -17 -17 -15 -15 -15 -12
-15 -15 -16 -16 -16 -16 -16 -16 -16 -16 -16 -16 -15 -15 -15 -15 -15 -15 -14 -14 -17 -18 -19 -20 -20 -21 -22 -22 -22 -22 -22 -23 -22 -22 -22 -22 -22 -22 -21 -20 -19 -18 -16 -16 -15 -15 -14
-15 -15 -16 -16 -16 -16 -16 -17 -16 -16 -16 -16 -16 -16 -16 -16 -15 -15 -15 -17 -17 -18 -19 -20 -21 -21 -21 -22 -22 -22 -22 -23 -23 -23 -22 -22 -23 -23 -22 -22 -23 -17 -16 -16 -15 -15 -14
-15 -16 -16 -16 -17 -16 -16 -17 -17 -17 -17 -17 -17 -16 -16 -16 -16 -16 -16 -17 -18 -18 -19 -19 -20 -20 -21 -21 -22 -23 -23 -23 -23 -23 -23 -23 -23 -23 -23 -23 -22 -18 -16 -16 -15 -14 -14
-16 -16 -16 -16 -17 -17 -17 -17 -17 -17 -17 -17 -17 -17 -17 -17 -17 -16 -17 -17 -18 -18 -18 -19 -19 -19 -20 -20 -21 -22 -22 -22 -22 -23 -24 -24 -24 -24 -23 -23 -21 -20 -17 -16 -16 -15 -14
-16 -16 -16 -17 -17 -17 -17 -17 -17 -17 -17 -18 -18 -18 -17 -17 -17 -17 -17 -18 -18 -18 -19 -19 -19 -20 -20 -20 -21 -21 -21 -21 -21 -22 -22 -23 -23 -23 -23 -22 -20 -19 -16 -17 -17 -15 -13
-16 -16 -16 -17 -17 -17 -17 -17 -17 -17 -17 -17 -18 -18 -18 -18 -18 -18 -18 -18 -19 -19 -19 -19 -19 -20 -20 -20 -20 -20 -21 -21 -21 -20 -21 -21 -21 -21 -21 -21 -19 -18 -16 -17 -17 -14 -13
-16 -17 -17 -17 -17 -17 -17 -17 -17 -17 -18 -18 -18 -18 -18 -18 -18 -18 -18 -18 -18 -19 -19 -19 -19 -19 -19 -20 -20 -20 -20 -20 -21 -20 -20 -20 -20 -20 -20 -19 -18 -16 -17 -15 -16 -15 -14

GFSGBSN_500_temp_051.txt.gz
Temp
-7 -7 -7 -7 -7 -7 -7 -7 -7 -7 -7 -7 -7 -7 -7 -7 -7 -7 -7 -6 -6 -6 -6 -6 -6 -5 -6 -5 -5 -5 -5 -5 -5 -5 -5 -4 -4 -4 -5 -6 -5 -5 -5 -5 -5 -5 -5
-7 -7 -7 -7 -7 -7 -7 -7 -7 -7 -7 -7 -7 -7 -7 -7 -7 -7 -7 -6 -6 -6 -6 -6 -6 -6 -6 -6 -5 -5 -5 -5 -5 -5 -5 -5 -5 -5 -5 -5 -5 -5 -5 -5 -5 -5 -4
-7 -7 -7 -7 -7 -7 -7 -7 -7 -7 -7 -7 -7 -7 -7 -7 -7 -7 -7 -6 -6 -6 -6 -6 -6 -6 -6 -6 -6 -6 -5 -5 -5 -5 -5 -5 -5 -5 -5 -5 -5 -5 -4 -5 -5 -5 -4
-7 -7 -7 -7 -7 -7 -7 -7 -7 -8 -8 -7 -7 -7 -7 -7 -7 -7 -7 -7 -7 -6 -7 -7 -6 -6 -6 -6 -6 -6 -6 -6 -6 -5 -5 -5 -6 -5 -5 -5 -5 -5 -5 -5 -5 -5 -5
-7 -7 -7 -7 -7 -8 -8 -8 -8 -8 -8 -8 -8 -8 -8 -8 -7 -7 -7 -7 -7 -7 -7 -7 -7 -7 -6 -6 -6 -6 -6 -6 -6 -6 -6 -5 -6 -6 -6 -6 -6 -5 -5 -5 -5 -4 -4
-7 -8 -8 -8 -8 -8 -8 -8 -8 -8 -8 -8 -8 -8 -8 -8 -8 -8 -8 -7 -7 -7 -7 -7 -7 -7 -7 -6 -6 -6 -6 -6 -6 -6 -6 -6 -6 -6 -6 -6 -6 -6 -6 -6 -6 -5 -5
-8 -8 -8 -8 -8 -9 -9 -9 -9 -9 -9 -9 -9 -9 -9 -9 -9 -8 -8 -8 -8 -8 -7 -7 -7 -7 -7 -7 -7 -6 -6 -6 -6 -6 -6 -6 -6 -5 -6 -6 -7 -7 -8 -6 -9 -7 -6
-8 -8 -9 -9 -9 -9 -9 -9 -9 -9 -9 -9 -9 -9 -9 -9 -9 -9 -9 -9 -9 -8 -8 -8 -7 -7 -7 -7 -7 -7 -6 -6 -6 -6 -7 -6 -6 -6 -6 -6 -6 -6 -7 -7 -9 -8 -6
-9 -9 -9 -9 -10 -9 -9 -9 -9 -10 -10 -10 -10 -10 -9 -10 -10 -10 -10 -10 -10 -9 -9 -8 -8 -8 -8 -8 -7 -7 -7 -7 -6 -6 -6 -7 -6 -7 -7 -6 -6 -6 -7 -7 -7 -8 -6
-9 -9 -10 -10 -10 -10 -10 -10 -10 -10 -10 -10 -11 -11 -10 -10 -10 -10 -10 -10 -10 -10 -10 -9 -9 -8 -8 -8 -8 -8 -8 -7 -7 -7 -6 -6 -7 -6 -7 -6 -6 -7 -7 -7 -6 -7 -6
-9 -9 -10 -10 -10 -11 -11 -11 -11 -11 -11 -11 -11 -11 -11 -11 -11 -11 -11 -11 -11 -11 -11 -10 -9 -9 -9 -9 -8 -8 -9 -8 -8 -7 -7 -7 -7 -7 -6 -7 -7 -6 -7 -7 -7 -6 -6
-9 -10 -10 -10 -11 -11 -11 -12 -12 -11 -12 -12 -12 -12 -11 -11 -12 -12 -12 -12 -12 -12 -14 -11 -11 -11 -11 -10 -9 -9 -9 -9 -9 -8 -8 -8 -7 -7 -7 -7 -7 -7 -7 -7 -7 -7 -7
-10 -10 -10 -11 -11 -11 -11 -12 -12 -12 -12 -13 -13 -13 -13 -13 -13 -13 -13 -14 -14 -14 -14 -12 -13 -13 -13 -12 -11 -10 -10 -10 -11 -10 -9 -9 -8 -7 -8 -7 -7 -7 -8 -7 -8 -8 -6
-10 -10 -10 -11 -11 -12 -13 -13 -14 -14 -14 -14 -14 -14 -14 -14 -14 -15 -15 -15 -15 -16 -16 -13 -14 -14 -14 -13 -13 -13 -13 -13 -12 -11 -12 -13 -11 -10 -9 -8 -9 -7 -8 -9 -9 -9 -6
-10 -10 -11 -12 -13 -13 -14 -14 -15 -15 -15 -14 -14 -14 -14 -14 -14 -15 -16 -16 -17 -15 -15 -15 -15 -15 -15 -14 -15 -14 -14 -14 -13 -13 -13 -15 -14 -10 -9 -9 -10 -10 -10 -7 -11 -10 -9
-11 -11 -12 -13 -13 -14 -15 -14 -15 -15 -15 -14 -14 -14 -14 -14 -14 -14 -15 -15 -15 -15 -14 -14 -15 -15 -15 -15 -14 -14 -15 -14 -14 -14 -14 -15 -14 -14 -12 -10 -10 -11 -9 -11 -11 -11 -10
-11 -12 -13 -14 -14 -15 -15 -15 -15 -15 -14 -14 -14 -14 -14 -14 -14 -14 -15 -14 -15 -14 -14 -14 -15 -15 -15 -15 -14 -14 -14 -14 -14 -14 -14 -15 -14 -15 -14 -12 -12 -12 -11 -11 -12 -12 -11
-12 -13 -14 -15 -15 -15 -15 -15 -15 -15 -14 -14 -14 -14 -14 -14 -14 -14 -14 -14 -14 -14 -14 -14 -14 -14 -15 -16 -15 -15 -16 -16 -14 -14 -15 -15 -14 -15 -14 -14 -14 -13 -15 -14 -13 -11 -12
-12 -13 -14 -15 -15 -15 -15 -15 -15 -15 -14 -14 -14 -14 -15 -14 -14 -14 -14 -14 -14 -13 -14 -14 -15 -15 -16 -17 -17 -17 -17 -18 -15 -14 -16 -15 -15 -15 -15 -14 -14 -14 -14 -13 -14 -14 -12
-13 -14 -14 -15 -16 -16 -15 -15 -15 -15 -15 -15 -15 -15 -15 -14 -14 -14 -14 -14 -13 -14 -14 -15 -16 -17 -18 -19 -19 -19 -19 -19 -18 -18 -17 -16 -16 -16 -15 -17 -17 -17 -15 -16 -16 -15 -14
-14 -14 -15 -15 -16 -16 -16 -16 -16 -16 -16 -16 -15 -15 -15 -15 -14 -14 -14 -14 -14 -15 -16 -16 -17 -18 -19 -20 -21 -21 -21 -21 -20 -20 -19 -18 -17 -17 -16 -17 -17 -16 -15 -15 -15 -14 -16
-14 -14 -15 -15 -16 -16 -16 -15 -16 -16 -16 -16 -16 -15 -15 -15 -15 -14 -15 -15 -15 -16 -16 -16 -17 -18 -19 -20 -21 -21 -21 -22 -21 -21 -20 -20 -19 -18 -17 -17 -18 -17 -16 -15 -15 -14 -15
-15 -15 -15 -16 -16 -16 -16 -16 -16 -17 -17 -17 -16 -16 -16 -15 -15 -15 -16 -16 -16 -16 -17 -17 -17 -17 -18 -19 -20 -21 -21 -22 -22 -21 -21 -21 -21 -20 -19 -19 -18 -18 -17 -16 -15 -15 -14
-15 -15 -16 -16 -16 -16 -16 -16 -17 -17 -17 -17 -17 -16 -16 -16 -16 -16 -16 -16 -16 -16 -17 -17 -17 -17 -18 -19 -19 -20 -21 -21 -22 -22 -22 -22 -21 -21 -20 -20 -21 -20 -18 -18 -17 -16 -16
-16 -16 -16 -16 -16 -17 -16 -16 -17 -18 -17 -17 -17 -17 -17 -16 -16 -16 -16 -17 -17 -17 -17 -17 -18 -18 -18 -19 -19 -20 -20 -21 -22 -22 -22 -22 -22 -22 -21 -21 -20 -20 -22 -18 -17 -16 -16
-16 -16 -16 -16 -16 -17 -17 -17 -17 -18 -18 -17 -17 -18 -18 -17 -17 -17 -17 -17 -17 -17 -18 -18 -18 -18 -18 -19 -19 -20 -21 -21 -21 -21 -22 -22 -23 -23 -22 -22 -21 -20 -21 -22 -18 -16 -16
-16 -16 -16 -17 -17 -17 -17 -17 -17 -18 -17 -17 -18 -18 -18 -18 -18 -18 -18 -18 -19 -19 -19 -18 -18 -19 -19 -20 -19 -20 -20 -21 -21 -21 -22 -22 -22 -22 -22 -22 -22 -22 -22 -21 -19 -16 -16
-15 -16 -16 -17 -17 -17 -17 -17 -17 -18 -18 -18 -18 -18 -18 -18 -18 -18 -19 -19 -19 -19 -19 -19 -19 -19 -20 -20 -20 -20 -20 -20 -21 -21 -21 -21 -21 -21 -22 -22 -22 -22 -22 -22 -19 -16 -16
-15 -16 -16 -16 -16 -16 -17 -17 -18 -18 -17 -18 -18 -18 -18 -18 -18 -18 -19 -18 -19 -19 -19 -19 -19 -19 -19 -19 -20 -20 -20 -20 -20 -20 -20 -20 -21 -21 -21 -21 -21 -20 -20 -21 -19 -18 -16

GFSGBSN_500_temp_057.txt.gz
Temp
-6 -6 -6 -6 -6 -6 -6 -6 -7 -7 -7 -7 -7 -7 -7 -7 -7 -7 -7 -7 -7 -6 -6 -6 -6 -5 -5 -5 -5 -5 -5 -4 -5 -5 -4 -4 -4 -5 -5 -5 -5 -5 -5 -5 -6 -5 -4
-6 -6 -6 -6 -7 -7 -7 -7 -7 -7 -7 -7 -7 -7 -7 -7 -7 -7 -7 -7 -7 -7 -7 -6 -6 -6 -6 -5 -6 -5 -5 -5 -5 -5 -5 -4 -5 -4 -4 -5 -5 -5 -5 -5 -5 -4 -5
-6 -7 -7 -7 -7 -7 -7 -7 -7 -7 -7 -7 -7 -7 -7 -7 -7 -7 -7 -7 -7 -7 -7 -7 -7 -6 -6 -6 -6 -6 -5 -5 -5 -5 -5 -5 -5 -4 -4 -4 -4 -5 -5 -4 -5 -5 -5
-6 -6 -7 -7 -7 -7 -8 -8 -8 -8 -8 -8 -8 -7 -8 -8 -8 -8 -8 -8 -7 -7 -7 -7 -7 -7 -6 -6 -6 -6 -6 -6 -6 -5 -5 -5 -5 -5 -5 -4 -4 -4 -5 -5 -5 -5 -6
-6 -6 -7 -7 -7 -7 -8 -8 -8 -8 -8 -8 -8 -8 -8 -8 -8 -8 -8 -8 -8 -7 -7 -7 -7 -7 -7 -7 -7 -7 -6 -6 -6 -6 -6 -5 -5 -5 -5 -5 -5 -4 -4 -5 -6 -5 -5
-6 -7 -7 -7 -7 -7 -7 -8 -8 -9 -9 -9 -9 -9 -9 -9 -9 -9 -9 -8 -8 -8 -8 -8 -7 -7 -7 -7 -7 -7 -7 -6 -7 -6 -6 -6 -5 -5 -5 -5 -5 -5 -5 -5 -6 -5 -5
-7 -7 -7 -7 -7 -7 -8 -9 -9 -9 -9 -9 -9 -10 -10 -10 -10 -9 -9 -9 -9 -8 -8 -8 -8 -8 -7 -7 -7 -7 -7 -7 -7 -7 -6 -6 -6 -5 -6 -6 -6 -6 -5 -5 -6 -8 -7
-7 -7 -7 -7 -7 -7 -8 -9 -8 -9 -9 -9 -9 -10 -10 -10 -10 -10 -10 -10 -10 -9 -9 -9 -8 -8 -8 -8 -8 -8 -7 -7 -7 -7 -7 -6 -6 -6 -6 -6 -6 -6 -5 -5 -5 -7 -9
-7 -7 -7 -7 -8 -8 -9 -9 -9 -9 -10 -10 -10 -10 -11 -11 -11 -10 -10 -10 -10 -10 -9 -10 -10 -9 -8 -8 -8 -8 -8 -7 -7 -7 -7 -6 -7 -7 -7 -7 -6 -6 -6 -6 -5 -8 -9
-8 -8 -7 -8 -8 -9 -9 -9 -10 -11 -11 -11 -11 -11 -11 -12 -11 -11 -11 -11 -11 -11 -11 -10 -10 -10 -9 -10 -9 -8 -8 -8 -8 -7 -7 -7 -7 -7 -7 -7 -7 -7 -6 -7 -6 -6 -7
-8 -8 -8 -8 -9 -9 -10 -11 -11 -12 -13 -13 -13 -13 -13 -13 -12 -12 -12 -12 -12 -11 -12 -11 -10 -11 -10 -10 -9 -9 -8 -9 -9 -8 -8 -7 -7 -7 -7 -7 -7 -7 -7 -7 -7 -7 -6
-8 -8 -9 -9 -9 -10 -11 -11 -12 -13 -14 -14 -14 -14 -14 -14 -14 -13 -13 -13 -13 -13 -14 -12 -12 -12 -11 -11 -11 -9 -10 -10 -9 -9 -8 -8 -7 -8 -7 -7 -7 -7 -8 -7 -6 -7 -6
-9 -9 -9 -10 -10 -11 -12 -12 -13 -14 -14 -14 -14 -14 -14 -14 -14 -14 -14 -14 -14 -15 -16 -14 -13 -13 -13 -12 -12 -11 -10 -10 -10 -10 -9 -9 -9 -8 -8 -7 -7 -7 -7 -7 -7 -6 -4
-9 -9 -10 -10 -11 -12 -12 -13 -14 -14 -14 -14 -14 -14 -14 -15 -15 -14 -15 -16 -16 -16 -17 -16 -16 -14 -15 -14 -13 -12 -12 -11 -11 -11 -11 -10 -10 -10 -9 -8 -7 -7 -7 -7 -6 -6 -5
-10 -10 -10 -11 -12 -12 -13 -14 -14 -15 -14 -14 -14 -14 -14 -14 -15 -15 -16 -16 -17 -17 -17 -17 -17 -15 -15 -15 -15 -14 -13 -14 -14 -12 -11 -11 -10 -10 -10 -10 -10 -9 -7 -7 -7 -6 -8
-11 -11 -11 -12 -12 -13 -14 -15 -15 -15 -15 -14 -14 -14 -15 -15 -15 -15 -17 -16 -15 -15 -16 -17 -16 -16 -16 -17 -17 -16 -14 -15 -16 -13 -12 -11 -11 -12 -12 -12 -10 -11 -10 -10 -9 -7 -8
-11 -11 -12 -13 -13 -13 -14 -15 -15 -15 -15 -15 -15 -14 -14 -14 -15 -15 -15 -15 -15 -15 -16 -16 -16 -16 -16 -15 -15 -15 -17 -16 -14 -13 -12 -12 -12 -13 -13 -12 -13 -11 -10 -10 -10 -8 -8
-12 -12 -13 -13 -13 -14 -14 -15 -16 -16 -15 -15 -15 -15 -15 -15 -15 -15 -15 -15 -14 -14 -15 -14 -15 -15 -15 -16 -16 -15 -15 -15 -14 -13 -12 -13 -12 -13 -13 -13 -12 -12 -12 -12 -11 -9 -8
-12 -12 -13 -14 -14 -14 -15 -15 -16 -15 -16 -15 -15 -15 -15 -15 -15 -14 -15 -14 -15 -14 -14 -14 -15 -15 -15 -15 -15 -16 -16 -17 -15 -15 -14 -14 -14 -13 -14 -15 -15 -13 -14 -13 -13 -11 -9
-12 -13 -14 -14 -15 -15 -15 -16 -16 -16 -16 -16 -15 -15 -15 -15 -15 -15 -15 -15 -15 -15 -16 -15 -15 -15 -15 -15 -15 -16 -16 -16 -16 -15 -15 -14 -15 -15 -14 -15 -15 -15 -14 -13 -14 -13 -11
-13 -14 -14 -15 -15 -16 -16 -16 -16 -16 -16 -16 -16 -16 -16 -15 -15 -15 -15 -16 -16 -16 -16 -16 -15 -15 -15 -15 -16 -16 -16 -16 -16 -17 -17 -17 -15 -16 -15 -16 -16 -15 -15 -15 -13 -12 -11
-14 -14 -14 -15 -15 -16 -16 -16 -16 -17 -17 -17 -17 -16 -16 -16 -16 -16 -16 -16 -16 -16 -16 -16 -16 -16 -16 -16 -16 -16 -16 -16 -16 -17 -18 -19 -18 -18 -16 -16 -16 -16 -15 -15 -14 -12 -11
-14 -14 -14 -15 -15 -16 -16 -16 -17 -17 -16 -17 -17 -17 -17 -16 -16 -16 -16 -16 -16 -16 -16 -16 -16 -16 -16 -16 -16 -16 -17 -17 -17 -17 -18 -19 -20 -20 -18 -19 -18 -17 -16 -15 -15 -13 -13
-14 -14 -14 -15 -16 -16 -16 -16 -17 -16 -16 -17 -17 -16 -17 -17 -17 -17 -17 -17 -17 -17 -17 -17 -17 -17 -16 -16 -16 -17 -17 -17 -17 -18 -18 -19 -20 -20 -20 -21 -20 -16 -17 -17 -16 -15 -13
-14 -14 -14 -15 -16 -16 -16 -16 -17 -17 -17 -17 -17 -17 -17 -17 -17 -17 -17 -18 -18 -17 -17 -17 -17 -17 -17 -16 -17 -17 -17 -18 -18 -18 -19 -19 -20 -20 -20 -21 -20 -19 -17 -17 -17 -16 -16
-14 -14 -14 -15 -15 -16 -16 -16 -17 -17 -17 -17 -17 -17 -17 -17 -18 -18 -18 -18 -17 -17 -18 -17 -17 -17 -17 -17 -17 -17 -18 -19 -19 -20 -20 -20 -20 -20 -20 -21 -20 -19 -20 -20 -19 -16 -17
-14 -14 -14 -15 -15 -16 -16 -16 -17 -17 -17 -17 -17 -17 -17 -17 -17 -17 -18 -18 -18 -18 -18 -18 -18 -18 -18 -18 -18 -18 -18 -18 -19 -19 -20 -20 -20 -20 -21 -21 -20 -20 -20 -20 -20 -16 -16
-14 -14 -14 -15 -15 -16 -16 -17 -17 -16 -17 -17 -17 -17 -17 -17 -18 -18 -18 -18 -18 -18 -18 -18 -18 -18 -18 -18 -18 -18 -18 -18 -19 -19 -20 -20 -20 -20 -20 -20 -21 -20 -20 -20 -20 -19 -17
-14 -14 -14 -15 -15 -16 -16 -16 -17 -17 -17 -17 -17 -17 -18 -18 -18 -18 -18 -18 -18 -18 -18 -18 -18 -18 -18 -18 -18 -18 -18 -18 -19 -19 -19 -19 -19 -20 -20 -20 -20 -19 -20 -20 -19 -18 -19

GFSGBSN_500_temp_060.txt.gz
Temp
-6 -6 -6 -7 -7 -7 -7 -7 -7 -7 -7 -7 -7 -7 -7 -7 -6 -6 -7 -7 -7 -7 -6 -6 -6 -6 -5 -5 -5 -5 -5 -5 -5 -5 -5 -4 -4 -5 -5 -6 -6 -6 -6 -5 -5 -4 -4
-6 -6 -6 -6 -6 -7 -7 -7 -7 -7 -7 -7 -7 -7 -7 -7 -7 -7 -7 -7 -7 -7 -7 -7 -7 -7 -6 -6 -6 -5 -5 -5 -5 -5 -5 -5 -5 -5 -5 -6 -6 -6 -6 -5 -4 -3 -4
-6 -6 -6 -6 -6 -7 -7 -7 -7 -7 -7 -7 -7 -7 -7 -7 -7 -7 -7 -7 -7 -7 -7 -7 -7 -7 -7 -6 -6 -6 -6 -5 -5 -5 -5 -5 -5 -5 -5 -4 -5 -6 -6 -5 -5 -4 -4
-5 -6 -6 -6 -6 -7 -7 -7 -7 -7 -7 -7 -8 -8 -8 -8 -8 -8 -8 -8 -8 -7 -7 -7 -7 -7 -7 -7 -6 -7 -6 -6 -6 -6 -6 -5 -5 -5 -5 -5 -5 -5 -5 -6 -6 -5 -5
-6 -6 -6 -6 -6 -6 -6 -7 -7 -7 -8 -8 -8 -8 -9 -9 -8 -9 -9 -9 -8 -8 -8 -7 -7 -7 -7 -7 -7 -7 -7 -7 -6 -6 -6 -5 -5 -5 -5 -5 -5 -5 -5 -6 -7 -7 -6
-7 -7 -7 -7 -7 -7 -7 -7 -7 -8 -8 -8 -8 -8 -8 -8 -8 -9 -9 -9 -9 -9 -8 -8 -8 -8 -7 -7 -7 -7 -7 -7 -7 -7 -6 -6 -6 -5 -5 -5 -5 -5 -6 -6 -7 -8 -8
-7 -7 -7 -7 -7 -7 -7 -8 -8 -8 -8 -8 -8 -8 -8 -9 -9 -9 -10 -10 -9 -9 -9 -9 -8 -8 -8 -8 -8 -8 -7 -7 -7 -7 -7 -6 -6 -6 -6 -6 -6 -6 -5 -5 -6 -7 -8
-7 -7 -8 -8 -8 -8 -8 -8 -8 -9 -9 -9 -9 -9 -10 -9 -10 -10 -10 -10 -10 -9 -9 -9 -9 -9 -8 -8 -8 -8 -8 -8 -7 -7 -7 -6 -6 -7 -7 -7 -7 -6 -5 -6 -6 -7 -6
-8 -8 -8 -8 -8 -8 -8 -9 -9 -9 -10 -10 -11 -11 -11 -11 -11 -11 -11 -11 -11 -10 -10 -10 -10 -10 -9 -8 -8 -8 -8 -8 -8 -7 -7 -7 -7 -7 -7 -7 -7 -6 -6 -6 -7 -7 -7
-8 -8 -8 -8 -8 -9 -9 -9 -10 -11 -11 -12 -12 -12 -13 -13 -13 -13 -13 -12 -11 -11 -11 -11 -11 -10 -9 -10 -10 -9 -8 -8 -8 -8 -8 -7 -8 -7 -7 -7 -7 -7 -7 -7 -7 -7 -8
-9 -9 -9 -9 -9 -9 -10 -10 -11 -12 -12 -13 -13 -14 -14 -14 -15 -14 -14 -13 -12 -12 -12 -12 -12 -11 -11 -11 -10 -9 -9 -9 -9 -9 -8 -7 -8 -7 -7 -7 -7 -7 -7 -8 -7 -7 -8
-9 -9 -9 -9 -10 -10 -11 -11 -12 -13 -13 -14 -14 -14 -15 -15 -15 -15 -15 -14 -14 -14 -13 -13 -13 -12 -12 -11 -11 -10 -10 -10 -9 -9 -8 -8 -8 -7 -7 -7 -8 -8 -7 -8 -8 -7 -7
-10 -10 -10 -10 -10 -11 -12 -12 -13 -13 -14 -14 -14 -14 -14 -15 -15 -15 -16 -16 -16 -15 -15 -15 -14 -13 -13 -12 -12 -12 -11 -10 -10 -10 -9 -9 -9 -8 -8 -7 -7 -7 -7 -7 -7 -8 -7
-11 -11 -11 -11 -11 -12 -12 -13 -13 -14 -15 -14 -14 -14 -14 -15 -15 -15 -16 -17 -16 -16 -17 -16 -17 -16 -15 -14 -13 -13 -12 -13 -12 -10 -10 -9 -9 -9 -8 -8 -8 -7 -7 -7 -6 -6 -7
-11 -11 -11 -11 -12 -12 -13 -13 -14 -15 -15 -15 -14 -14 -14 -15 -15 -15 -16 -17 -16 -17 -17 -18 -17 -17 -15 -14 -14 -14 -14 -13 -12 -12 -11 -9 -9 -9 -9 -8 -8 -8 -8 -8 -7 -7 -7
-11 -12 -12 -12 -12 -13 -13 -14 -15 -15 -15 -15 -15 -15 -15 -15 -15 -15 -16 -16 -16 -17 -17 -18 -17 -16 -16 -15 -14 -14 -13 -13 -12 -11 -10 -10 -10 -10 -10 -9 -9 -10 -10 -11 -9 -8 -8
-13 -12 -12 -12 -13 -13 -14 -14 -15 -16 -15 -15 -15 -15 -15 -15 -15 -15 -15 -15 -16 -16 -17 -16 -16 -17 -17 -17 -16 -15 -14 -13 -12 -12 -11 -11 -11 -11 -12 -11 -11 -10 -10 -10 -9 -9 -9
-13 -13 -12 -13 -13 -14 -15 -15 -16 -16 -16 -16 -15 -15 -15 -15 -15 -15 -15 -16 -16 -16 -16 -16 -16 -16 -16 -17 -17 -16 -16 -15 -14 -14 -14 -14 -12 -13 -13 -13 -13 -12 -11 -9 -9 -10 -9
-14 -13 -13 -13 -14 -15 -15 -16 -16 -16 -16 -16 -16 -16 -15 -15 -15 -15 -16 -16 -15 -15 -15 -15 -15 -15 -15 -16 -17 -17 -16 -15 -14 -14 -13 -13 -14 -14 -14 -14 -14 -13 -12 -11 -10 -10 -10
-14 -13 -13 -14 -14 -15 -15 -15 -16 -16 -16 -16 -16 -16 -16 -16 -16 -15 -15 -15 -15 -15 -15 -15 -15 -15 -15 -15 -16 -16 -15 -15 -15 -15 -15 -14 -14 -14 -14 -15 -15 -14 -14 -12 -11 -11 -9
-14 -13 -14 -14 -14 -15 -15 -16 -16 -16 -16 -17 -17 -17 -16 -16 -16 -16 -16 -16 -16 -16 -16 -16 -15 -15 -15 -15 -16 -15 -16 -16 -16 -16 -15 -15 -15 -15 -14 -15 -15 -15 -15 -14 -13 -12 -11
-14 -14 -14 -14 -15 -15 -16 -16 -16 -16 -16 -17 -17 -17 -17 -17 -16 -16 -16 -16 -16 -16 -16 -16 -16 -16 -16 -16 -16 -16 -16 -16 -16 -16 -16 -15 -16 -16 -16 -15 -15 -15 -16 -15 -14 -14 -13
-14 -14 -14 -14 -15 -15 -15 -16 -16 -17 -17 -17 -17 -17 -17 -17 -17 -17 -17 -17 -17 -16 -16 -16 -16 -16 -16 -16 -16 -16 -16 -16 -16 -16 -16 -16 -16 -16 -16 -16 -16 -15 -15 -16 -16 -15 -14
-14 -14 -14 -14 -15 -15 -16 -16 -17 -17 -17 -17 -17 -17 -17 -17 -17 -17 -17 -17 -17 -17 -17 -17 -17 -16 -16 -16 -16 -15 -16 -16 -16 -16 -16 -16 -16 -17 -17 -18 -17 -15 -15 -16 -16 -16 -16
-14 -14 -14 -14 -15 -15 -16 -16 -16 -17 -17 -17 -17 -17 -17 -17 -17 -17 -17 -17 -17 -17 -17 -18 -17 -17 -17 -17 -16 -16 -16 -16 -16 -17 -17 -18 -18 -18 -18 -19 -19 -19 -19 -18 -16 -16 -16
-14 -14 -14 -14 -15 -15 -16 -16 -16 -16 -17 -17 -17 -17 -17 -17 -17 -18 -18 -18 -18 -17 -18 -17 -18 -18 -17 -17 -17 -16 -16 -17 -18 -18 -18 -18 -19 -19 -19 -19 -19 -20 -20 -20 -19 -16 -16
-13 -14 -14 -14 -14 -15 -16 -16 -16 -17 -17 -17 -17 -17 -17 -17 -17 -17 -17 -18 -18 -18 -18 -18 -18 -18 -18 -17 -17 -17 -17 -18 -18 -18 -18 -18 -18 -19 -19 -19 -19 -20 -21 -21 -21 -17 -17
-13 -14 -14 -14 -14 -15 -15 -16 -16 -16 -17 -17 -17 -17 -17 -17 -17 -17 -17 -18 -18 -18 -18 -18 -18 -18 -18 -18 -18 -18 -18 -18 -18 -18 -18 -19 -19 -19 -19 -20 -20 -20 -20 -20 -20 -19 -18
-13 -14 -14 -14 -15 -15 -15 -15 -16 -16 -16 -16 -16 -17 -17 -17 -17 -16 -16 -16 -18 -17 -17 -18 -18 -17 -18 -18 -18 -18 -18 -18 -18 -18 -18 -19 -19 -19 -19 -20 -20 -19 -20 -20 -20 -19 -19

GFSGBSN_500_temp_063.txt.gz
Temp
-6 -5 -5 -5 -5 -6 -6 -6 -6 -6 -6 -6 -6 -6 -6 -6 -6 -6 -6 -6 -6 -6 -6 -6 -6 -6 -6 -6 -5 -5 -5 -5 -5 -5 -5 -5 -5 -6 -6 -7 -7 -6 -6 -5 -5 -5 -5
-5 -5 -5 -6 -6 -6 -6 -7 -7 -6 -6 -6 -6 -6 -6 -6 -6 -7 -6 -6 -6 -6 -7 -7 -7 -7 -6 -6 -6 -6 -6 -5 -5 -6 -6 -6 -5 -5 -5 -6 -7 -6 -5 -5 -5 -5 -5
-5 -5 -6 -6 -6 -7 -7 -7 -7 -7 -6 -6 -6 -6 -7 -7 -7 -7 -7 -7 -7 -7 -7 -7 -7 -7 -7 -7 -7 -6 -6 -6 -6 -6 -6 -6 -5 -5 -5 -6 -6 -6 -6 -6 -6 -6 -5
-6 -6 -6 -7 -7 -7 -7 -7 -7 -7 -7 -7 -7 -7 -7 -7 -7 -8 -8 -8 -8 -8 -8 -7 -7 -7 -7 -7 -8 -7 -7 -7 -7 -6 -6 -6 -6 -6 -6 -5 -6 -6 -6 -6 -6 -6 -5
-6 -6 -7 -7 -7 -7 -7 -7 -7 -7 -7 -7 -7 -8 -8 -8 -8 -8 -8 -8 -8 -9 -8 -8 -8 -8 -8 -8 -8 -8 -7 -7 -7 -7 -6 -6 -6 -6 -6 -6 -6 -6 -6 -6 -7 -6 -5
-7 -8 -8 -8 -8 -8 -8 -7 -7 -7 -8 -8 -8 -8 -8 -8 -8 -8 -8 -8 -8 -9 -9 -9 -9 -8 -8 -8 -8 -8 -8 -7 -7 -7 -7 -6 -6 -6 -6 -6 -6 -6 -7 -7 -7 -6 -6
-8 -8 -8 -8 -8 -8 -8 -8 -8 -8 -8 -9 -9 -9 -9 -9 -9 -8 -8 -8 -9 -9 -9 -9 -9 -9 -9 -8 -8 -8 -8 -8 -7 -7 -7 -7 -7 -7 -7 -7 -7 -7 -7 -8 -8 -7 -6
-8 -8 -8 -8 -8 -8 -8 -8 -8 -9 -9 -9 -9 -10 -10 -11 -10 -10 -9 -9 -9 -9 -10 -10 -9 -9 -9 -9 -9 -9 -8 -8 -8 -8 -7 -7 -7 -7 -7 -7 -7 -7 -7 -7 -8 -7 -7
-8 -8 -9 -9 -9 -9 -9 -9 -9 -10 -10 -10 -10 -11 -11 -12 -12 -12 -11 -11 -11 -11 -11 -11 -10 -10 -10 -10 -9 -9 -9 -8 -8 -8 -8 -7 -8 -8 -8 -7 -7 -7 -8 -8 -9 -8 -7
-9 -9 -10 -10 -10 -10 -10 -10 -10 -11 -11 -11 -12 -12 -13 -13 -14 -14 -14 -13 -13 -13 -13 -12 -12 -11 -10 -10 -10 -9 -9 -9 -8 -8 -8 -8 -8 -8 -8 -8 -7 -7 -9 -9 -9 -8 -8
-10 -10 -10 -10 -10 -10 -11 -11 -11 -12 -12 -13 -13 -13 -14 -14 -15 -14 -15 -15 -14 -14 -14 -13 -13 -12 -12 -12 -11 -10 -10 -9 -9 -9 -8 -8 -8 -8 -8 -8 -8 -9 -8 -9 -10 -9 -8
-10 -10 -11 -11 -11 -11 -12 -12 -12 -13 -13 -13 -13 -14 -14 -14 -15 -15 -15 -15 -15 -15 -15 -14 -14 -13 -13 -12 -11 -11 -11 -11 -10 -9 -8 -8 -8 -8 -8 -8 -8 -9 -8 -8 -9 -9 -8
-10 -11 -12 -12 -11 -12 -12 -13 -13 -13 -13 -14 -14 -14 -14 -14 -15 -15 -15 -16 -16 -16 -16 -15 -15 -14 -14 -13 -13 -12 -12 -11 -11 -10 -9 -9 -9 -8 -8 -9 -8 -8 -9 -9 -8 -8 -8
-11 -12 -12 -12 -12 -13 -13 -13 -13 -14 -14 -15 -15 -14 -14 -15 -15 -15 -15 -16 -17 -16 -16 -16 -16 -15 -14 -14 -14 -13 -12 -12 -11 -11 -10 -9 -9 -9 -9 -8 -9 -9 -9 -8 -8 -8 -8
-12 -12 -13 -13 -12 -13 -13 -14 -14 -15 -15 -15 -15 -15 -15 -15 -15 -15 -16 -17 -17 -17 -17 -16 -16 -16 -15 -14 -15 -14 -13 -12 -11 -11 -10 -10 -10 -9 -9 -9 -9 -9 -9 -9 -9 -9 -9
-12 -13 -13 -13 -13 -14 -14 -14 -15 -15 -16 -16 -15 -15 -15 -15 -16 -15 -17 -18 -17 -17 -17 -17 -17 -16 -16 -15 -15 -14 -13 -13 -12 -11 -11 -10 -11 -10 -10 -10 -10 -10 -10 -9 -9 -9 -8
-12 -13 -13 -13 -14 -14 -14 -14 -15 -15 -16 -16 -16 -15 -15 -15 -15 -16 -16 -17 -17 -17 -17 -17 -17 -16 -17 -16 -16 -15 -14 -13 -13 -12 -12 -11 -11 -12 -12 -11 -11 -10 -10 -10 -9 -9 -9
-12 -13 -13 -14 -14 -14 -14 -15 -15 -16 -16 -17 -16 -16 -16 -15 -15 -16 -17 -17 -17 -17 -17 -17 -17 -17 -17 -17 -17 -15 -14 -13 -14 -14 -13 -13 -13 -13 -13 -13 -12 -12 -11 -11 -10 -10 -10
-13 -13 -13 -14 -14 -14 -15 -15 -15 -16 -16 -17 -17 -16 -16 -16 -16 -16 -16 -16 -16 -16 -16 -17 -16 -16 -16 -16 -16 -14 -14 -14 -14 -14 -14 -15 -14 -14 -15 -14 -13 -12 -12 -12 -12 -12 -11
-13 -13 -14 -14 -14 -15 -15 -15 -16 -16 -16 -17 -17 -17 -17 -16 -16 -16 -16 -16 -16 -16 -15 -15 -15 -15 -15 -15 -15 -14 -14 -14 -15 -15 -14 -15 -14 -14 -15 -15 -15 -14 -14 -13 -13 -13 -12
-13 -13 -13 -14 -14 -15 -15 -16 -16 -16 -16 -17 -17 -17 -17 -17 -16 -16 -16 -16 -15 -15 -16 -15 -15 -15 -15 -15 -15 -15 -15 -15 -15 -15 -15 -15 -14 -14 -14 -15 -15 -15 -15 -14 -14 -14 -13
-13 -13 -13 -14 -14 -15 -15 -16 -16 -17 -17 -16 -17 -17 -17 -17 -17 -16 -16 -16 -16 -16 -15 -15 -15 -15 -15 -15 -15 -15 -15 -15 -15 -15 -14 -14 -14 -15 -15 -14 -15 -15 -15 -15 -15 -14 -14
-13 -13 -13 -14 -14 -15 -15 -16 -16 -17 -17 -16 -16 -17 -17 -17 -17 -17 -16 -16 -16 -16 -15 -15 -15 -15 -15 -16 -16 -16 -16 -16 -15 -15 -15 -15 -15 -15 -15 -15 -15 -15 -15 -15 -15 -15 -14
-13 -13 -14 -14 -14 -14 -15 -16 -16 -16 -17 -17 -17 -17 -17 -17 -17 -17 -17 -17 -17 -17 -17 -17 -16 -16 -16 -16 -16 -16 -16 -15 -15 -16 -16 -16 -16 -15 -15 -16 -15 -15 -15 -15 -16 -16 -15
-13 -13 -14 -14 -14 -14 -15 -16 -16 -16 -17 -17 -17 -17 -17 -17 -17 -17 -17 -18 -17 -17 -17 -17 -17 -17 -17 -17 -16 -16 -16 -15 -15 -16 -16 -16 -16 -16 -15 -15 -16 -16 -16 -16 -16 -15 -16
-13 -13 -14 -14 -14 -14 -15 -15 -16 -16 -16 -17 -17 -17 -17 -17 -17 -17 -17 -18 -18 -18 -18 -18 -18 -18 -18 -17 -17 -17 -16 -16 -16 -16 -16 -16 -16 -16 -16 -16 -16 -17 -17 -17 -17 -17 -16
-13 -14 -14 -14 -14 -14 -14 -15 -15 -16 -16 -16 -16 -17 -17 -17 -17 -17 -17 -17 -17 -18 -18 -18 -18 -18 -18 -18 -17 -17 -16 -16 -16 -16 -16 -17 -17 -17 -17 -16 -16 -17 -17 -18 -18 -17 -17
-13 -13 -14 -14 -14 -14 -14 -15 -15 -15 -15 -15 -16 -16 -16 -16 -16 -16 -16 -17 -17 -17 -18 -18 -18 -18 -18 -18 -18 -17 -17 -17 -17 -17 -17 -17 -17 -17 -17 -17 -17 -18 -18 -19 -19 -19 -19
-13 -13 -14 -14 -14 -14 -14 -15 -15 -15 -15 -15 -15 -16 -16 -16 -16 -16 -16 -17 -17 -17 -17 -17 -17 -17 -17 -18 -18 -18 -18 -18 -18 -18 -18 -18 -18 -17 -17 -18 -18 -18 -18 -19 -19 -19 -20

GFSGBSN_500_temp_069.txt.gz
Temp
-5 -6 -6 -6 -6 -6 -6 -6 -6 -6 -6 -6 -6 -6 -6 -6 -6 -5 -5 -5 -5 -5 -6 -6 -6 -6 -6 -6 -6 -6 -6 -6 -6 -6 -6 -6 -6 -7 -7 -7 -6 -6 -5 -6 -6 -5 -5
-5 -6 -6 -6 -6 -6 -6 -6 -6 -6 -6 -6 -6 -6 -6 -6 -6 -6 -5 -5 -6 -5 -6 -6 -7 -6 -6 -6 -6 -6 -6 -6 -6 -7 -6 -6 -6 -7 -7 -7 -7 -6 -6 -6 -6 -5 -5
-5 -6 -6 -7 -7 -7 -7 -8 -8 -7 -7 -7 -7 -7 -7 -7 -6 -6 -6 -6 -6 -6 -6 -6 -7 -7 -7 -7 -7 -7 -7 -6 -6 -7 -7 -6 -6 -6 -6 -7 -6 -6 -6 -6 -6 -6 -6
-6 -6 -7 -7 -7 -7 -8 -8 -8 -8 -8 -8 -8 -8 -7 -7 -7 -7 -7 -7 -7 -6 -6 -7 -7 -7 -8 -8 -7 -7 -7 -7 -6 -7 -7 -7 -6 -6 -6 -6 -6 -6 -7 -7 -7 -6 -6
-7 -7 -8 -8 -9 -9 -9 -9 -9 -9 -9 -9 -9 -9 -8 -8 -8 -8 -8 -8 -8 -7 -7 -7 -7 -7 -8 -8 -8 -7 -7 -7 -7 -6 -7 -7 -7 -7 -6 -6 -6 -6 -6 -7 -7 -7 -6
-8 -8 -9 -9 -9 -9 -9 -9 -9 -9 -10 -9 -9 -9 -9 -9 -8 -8 -8 -8 -8 -8 -8 -8 -8 -8 -8 -8 -8 -8 -8 -8 -8 -7 -7 -7 -7 -7 -7 -7 -6 -6 -6 -7 -7 -7 -7
-8 -9 -9 -10 -10 -10 -10 -9 -9 -10 -10 -10 -10 -10 -9 -9 -9 -9 -9 -9 -8 -9 -8 -8 -8 -8 -9 -9 -9 -9 -8 -8 -8 -8 -7 -7 -7 -7 -8 -7 -7 -7 -7 -7 -7 -7 -8
-9 -9 -9 -9 -10 -10 -10 -10 -10 -10 -10 -10 -10 -10 -10 -10 -9 -10 -10 -9 -9 -8 -9 -9 -9 -9 -9 -10 -9 -9 -9 -8 -9 -9 -8 -8 -8 -8 -8 -8 -8 -8 -7 -7 -7 -7 -7
-9 -9 -9 -10 -10 -10 -10 -11 -11 -11 -11 -10 -11 -11 -11 -11 -10 -11 -11 -11 -11 -10 -10 -10 -11 -10 -10 -11 -10 -10 -10 -9 -9 -9 -9 -8 -9 -8 -8 -8 -8 -8 -8 -7 -7 -7 -7
-9 -10 -10 -10 -10 -10 -11 -11 -11 -11 -11 -11 -12 -12 -12 -12 -12 -13 -13 -13 -13 -12 -12 -12 -12 -12 -12 -12 -12 -11 -11 -10 -9 -9 -9 -9 -9 -9 -8 -8 -8 -9 -8 -8 -7 -7 -7
-10 -10 -10 -10 -10 -11 -12 -12 -12 -12 -12 -13 -13 -13 -14 -14 -14 -14 -14 -14 -14 -15 -14 -14 -14 -13 -13 -13 -13 -12 -12 -11 -10 -10 -10 -9 -9 -9 -8 -9 -9 -9 -9 -8 -8 -7 -6
-10 -10 -9 -10 -11 -12 -12 -12 -12 -13 -13 -14 -14 -14 -15 -15 -14 -14 -14 -15 -15 -15 -15 -15 -15 -15 -15 -15 -14 -13 -13 -12 -11 -10 -10 -10 -10 -9 -9 -9 -9 -9 -9 -9 -8 -8 -7
-9 -10 -10 -10 -12 -12 -12 -12 -13 -14 -14 -14 -15 -16 -15 -15 -15 -15 -15 -15 -15 -16 -16 -16 -16 -16 -16 -15 -15 -14 -13 -13 -12 -11 -10 -10 -10 -10 -9 -9 -9 -9 -9 -9 -9 -8 -7
-9 -10 -11 -11 -12 -12 -12 -13 -13 -14 -15 -15 -16 -16 -15 -15 -16 -16 -16 -16 -17 -17 -17 -17 -17 -16 -16 -16 -16 -15 -14 -13 -12 -12 -11 -10 -10 -10 -9 -9 -9 -9 -9 -9 -9 -8 -8
-10 -11 -11 -12 -12 -12 -13 -13 -13 -15 -15 -16 -16 -16 -16 -15 -16 -16 -17 -17 -18 -17 -17 -18 -17 -16 -16 -16 -16 -15 -14 -14 -13 -12 -12 -11 -11 -10 -10 -10 -10 -9 -9 -9 -9 -9 -9
-10 -11 -12 -12 -12 -13 -13 -13 -14 -15 -16 -16 -17 -16 -16 -15 -16 -17 -17 -18 -18 -17 -17 -18 -18 -17 -17 -16 -16 -16 -15 -14 -14 -14 -13 -12 -12 -11 -11 -10 -10 -10 -10 -10 -9 -9 -9
-10 -11 -12 -12 -12 -13 -13 -13 -15 -16 -16 -16 -17 -16 -16 -16 -16 -16 -17 -18 -18 -18 -17 -17 -18 -18 -18 -17 -16 -16 -15 -15 -15 -15 -15 -14 -13 -12 -11 -11 -11 -10 -10 -10 -10 -9 -10
-11 -12 -12 -12 -13 -13 -13 -14 -15 -15 -16 -16 -17 -17 -17 -16 -16 -17 -17 -17 -18 -18 -17 -17 -18 -18 -18 -17 -17 -17 -16 -16 -16 -17 -16 -16 -15 -13 -12 -12 -11 -11 -10 -10 -10 -10 -10
-11 -12 -13 -13 -13 -13 -13 -14 -15 -15 -16 -16 -16 -17 -17 -17 -17 -16 -16 -17 -17 -18 -18 -18 -18 -18 -17 -18 -17 -17 -17 -16 -16 -16 -16 -17 -16 -15 -14 -13 -12 -12 -11 -11 -10 -10 -10
-12 -13 -13 -13 -13 -13 -14 -14 -15 -15 -16 -16 -16 -16 -16 -17 -17 -16 -16 -16 -16 -17 -17 -17 -17 -18 -18 -18 -17 -17 -17 -17 -16 -16 -16 -15 -15 -15 -14 -14 -13 -12 -12 -11 -11 -10 -10
-12 -13 -13 -13 -13 -13 -14 -14 -15 -15 -16 -16 -16 -16 -16 -16 -16 -16 -16 -17 -16 -16 -16 -16 -16 -16 -17 -17 -17 -17 -17 -16 -16 -16 -16 -16 -15 -15 -14 -14 -13 -13 -12 -12 -12 -11 -11
-12 -13 -13 -13 -13 -14 -14 -14 -15 -15 -16 -16 -16 -16 -16 -16 -16 -16 -16 -16 -16 -16 -16 -16 -16 -16 -16 -16 -16 -16 -16 -16 -16 -16 -15 -16 -15 -15 -15 -14 -14 -14 -14 -13 -12 -12 -11
-13 -14 -14 -13 -13 -14 -14 -14 -15 -15 -15 -16 -16 -16 -16 -16 -16 -16 -16 -16 -16 -16 -16 -16 -16 -16 -16 -16 -15 -15 -15 -15 -15 -15 -15 -15 -15 -15 -15 -15 -15 -14 -14 -14 -13 -13 -13
-13 -14 -14 -13 -14 -14 -14 -14 -14 -15 -15 -15 -15 -16 -16 -16 -16 -16 -16 -17 -17 -17 -16 -16 -16 -16 -16 -15 -15 -15 -15 -15 -15 -15 -15 -15 -15 -15 -15 -15 -15 -14 -15 -14 -14 -14 -14
-13 -14 -14 -14 -14 -14 -14 -14 -14 -15 -15 -15 -15 -15 -16 -16 -16 -16 -16 -16 -17 -17 -17 -17 -17 -17 -16 -16 -16 -16 -15 -15 -16 -16 -16 -16 -16 -16 -15 -15 -15 -15 -15 -15 -15 -14 -14
-13 -13 -14 -14 -14 -14 -14 -14 -15 -14 -15 -15 -15 -15 -16 -16 -16 -16 -16 -16 -16 -17 -17 -17 -17 -17 -17 -17 -17 -17 -17 -16 -16 -16 -16 -16 -16 -16 -15 -15 -15 -15 -15 -15 -15 -15 -15
-12 -14 -14 -14 -14 -14 -14 -14 -14 -14 -15 -15 -15 -15 -15 -16 -16 -16 -16 -16 -16 -17 -17 -17 -17 -17 -17 -17 -17 -17 -17 -17 -17 -16 -16 -16 -16 -16 -15 -15 -15 -15 -15 -15 -15 -14 -15
-12 -14 -14 -14 -14 -14 -14 -14 -14 -14 -14 -15 -15 -15 -15 -15 -16 -16 -16 -16 -16 -17 -17 -17 -17 -17 -17 -17 -17 -18 -18 -17 -17 -17 -17 -16 -16 -16 -16 -16 -16 -16 -16 -15 -15 -15 -15
-13 -13 -14 -14 -14 -14 -14 -14 -14 -14 -14 -15 -15 -15 -15 -16 -16 -16 -16 -16 -16 -17 -17 -17 -17 -17 -17 -17 -17 -18 -18 -18 -18 -17 -17 -17 -17 -17 -17 -17 -17 -16 -16 -16 -16 -15 -15

GFSGBSN_500_temp_072.txt.gz
Temp
-5 -5 -5 -6 -6 -6 -6 -6 -6 -7 -7 -7 -7 -7 -6 -6 -6 -6 -6 -6 -6 -5 -5 -5 -5 -6 -6 -6 -6 -6 -6 -6 -6 -6 -6 -6 -6 -7 -7 -6 -6 -5 -5 -6 -5 -5 -5
-5 -6 -6 -6 -7 -7 -7 -8 -8 -8 -8 -8 -8 -7 -7 -7 -7 -6 -6 -6 -6 -6 -6 -6 -6 -6 -6 -6 -6 -6 -6 -6 -6 -6 -6 -6 -6 -6 -7 -6 -6 -6 -6 -6 -6 -5 -5
-5 -6 -6 -7 -8 -8 -9 -9 -9 -9 -8 -8 -8 -8 -8 -8 -7 -7 -7 -6 -6 -6 -6 -6 -6 -6 -6 -6 -7 -6 -6 -6 -6 -6 -6 -6 -6 -6 -6 -7 -6 -6 -6 -6 -6 -6 -6
-6 -7 -7 -8 -9 -9 -9 -9 -9 -9 -9 -9 -8 -8 -8 -8 -8 -8 -7 -7 -7 -7 -7 -7 -7 -7 -7 -7 -7 -7 -7 -7 -6 -6 -6 -6 -6 -6 -7 -6 -7 -7 -7 -6 -7 -6 -6
-7 -7 -8 -9 -9 -9 -9 -9 -9 -9 -9 -9 -8 -9 -9 -9 -8 -8 -8 -8 -7 -7 -7 -7 -7 -8 -7 -7 -7 -7 -7 -7 -7 -7 -7 -7 -6 -6 -6 -7 -7 -7 -7 -7 -7 -7 -6
-7 -8 -9 -9 -9 -9 -9 -9 -9 -9 -9 -9 -9 -9 -9 -9 -9 -9 -8 -8 -8 -7 -7 -7 -8 -8 -8 -7 -7 -8 -8 -8 -8 -8 -7 -7 -7 -7 -7 -7 -7 -7 -7 -7 -7 -7 -7
-7 -8 -9 -9 -9 -9 -9 -9 -9 -10 -10 -10 -10 -10 -10 -9 -9 -9 -9 -9 -9 -8 -8 -8 -8 -8 -8 -8 -8 -8 -8 -8 -8 -8 -7 -8 -7 -7 -7 -7 -6 -7 -7 -7 -7 -7 -8
-7 -8 -9 -9 -9 -9 -9 -10 -10 -11 -11 -10 -10 -10 -10 -10 -10 -10 -9 -9 -9 -9 -9 -9 -8 -8 -8 -8 -9 -8 -9 -9 -9 -8 -8 -8 -8 -8 -7 -7 -7 -7 -7 -7 -7 -7 -8
-8 -8 -9 -9 -9 -9 -10 -10 -11 -11 -11 -10 -10 -10 -10 -10 -10 -10 -10 -10 -10 -10 -10 -10 -9 -9 -9 -9 -9 -10 -10 -10 -9 -9 -9 -9 -9 -8 -8 -7 -7 -7 -7 -7 -8 -7 -8
-8 -8 -9 -9 -9 -10 -10 -11 -11 -11 -11 -11 -11 -11 -11 -11 -11 -11 -11 -11 -11 -11 -11 -11 -11 -10 -11 -10 -10 -10 -10 -11 -10 -10 -9 -9 -9 -9 -8 -8 -7 -8 -8 -7 -7 -7 -8
-8 -9 -9 -10 -10 -10 -11 -11 -11 -12 -12 -12 -13 -14 -14 -14 -13 -13 -14 -14 -13 -13 -14 -13 -12 -12 -12 -12 -11 -11 -11 -11 -11 -11 -10 -9 -9 -9 -8 -8 -8 -9 -8 -7 -7 -7 -7
-8 -9 -9 -10 -11 -11 -11 -11 -11 -12 -12 -13 -14 -15 -15 -15 -15 -14 -14 -14 -14 -15 -15 -14 -14 -14 -14 -13 -13 -12 -12 -12 -11 -11 -11 -10 -9 -9 -9 -9 -9 -8 -8 -8 -7 -8 -7
-8 -9 -10 -10 -11 -11 -12 -11 -12 -12 -13 -14 -15 -16 -16 -15 -15 -15 -15 -15 -15 -16 -15 -15 -15 -15 -16 -15 -14 -14 -13 -13 -12 -11 -11 -10 -10 -10 -9 -9 -9 -8 -8 -8 -8 -8 -8
-9 -9 -10 -11 -12 -12 -12 -12 -12 -13 -15 -16 -16 -16 -15 -15 -15 -15 -15 -16 -16 -16 -16 -16 -16 -17 -16 -16 -15 -15 -14 -14 -13 -12 -13 -11 -10 -10 -10 -10 -9 -9 -9 -10 -10 -9 -10
-9 -9 -10 -11 -12 -12 -12 -13 -13 -15 -15 -16 -16 -16 -16 -15 -15 -15 -16 -17 -17 -17 -17 -17 -17 -16 -16 -17 -16 -16 -15 -14 -14 -13 -13 -12 -12 -10 -10 -9 -9 -9 -9 -11 -11 -11 -10
-9 -10 -11 -12 -12 -12 -12 -13 -14 -15 -15 -16 -16 -16 -16 -15 -16 -16 -17 -17 -18 -18 -17 -17 -17 -17 -18 -17 -17 -17 -16 -15 -14 -14 -13 -13 -12 -11 -10 -10 -10 -9 -10 -10 -9 -11 -10
-10 -10 -12 -12 -12 -12 -13 -13 -14 -15 -15 -16 -16 -16 -16 -16 -16 -16 -17 -17 -18 -18 -18 -18 -18 -17 -17 -17 -17 -17 -16 -16 -16 -15 -14 -13 -13 -11 -11 -11 -11 -10 -10 -10 -12 -11 -10
-10 -11 -12 -12 -13 -13 -13 -13 -14 -15 -15 -15 -16 -16 -17 -17 -16 -16 -16 -17 -17 -17 -17 -17 -17 -18 -17 -18 -18 -18 -18 -17 -17 -16 -15 -15 -13 -13 -12 -11 -11 -11 -10 -10 -11 -10 -10
-11 -11 -13 -13 -13 -13 -13 -14 -14 -15 -15 -15 -15 -16 -16 -17 -16 -16 -16 -16 -17 -16 -17 -17 -17 -17 -18 -18 -17 -17 -18 -17 -17 -16 -15 -15 -14 -14 -13 -12 -12 -11 -10 -10 -10 -11 -13
-11 -12 -13 -13 -13 -13 -13 -13 -14 -14 -15 -15 -15 -16 -16 -16 -16 -16 -16 -16 -16 -17 -17 -17 -18 -18 -18 -17 -17 -17 -17 -18 -18 -17 -17 -16 -15 -15 -16 -15 -13 -11 -11 -11 -11 -12 -13
-12 -12 -13 -13 -13 -13 -13 -13 -14 -14 -14 -15 -15 -16 -16 -16 -16 -16 -16 -17 -17 -16 -16 -17 -17 -17 -17 -18 -18 -17 -18 -18 -18 -17 -17 -16 -16 -15 -15 -14 -13 -13 -12 -12 -11 -11 -12
-13 -12 -13 -13 -13 -13 -13 -14 -14 -14 -15 -15 -15 -16 -16 -16 -16 -16 -16 -16 -16 -16 -16 -16 -16 -16 -16 -17 -17 -17 -17 -17 -17 -17 -17 -16 -16 -16 -15 -14 -14 -13 -12 -12 -12 -12 -12
-14 -13 -13 -14 -13 -14 -14 -14 -14 -14 -15 -15 -15 -15 -15 -16 -16 -16 -16 -16 -16 -16 -16 -16 -16 -16 -16 -16 -16 -16 -16 -16 -16 -16 -16 -16 -15 -15 -15 -14 -14 -14 -14 -13 -13 -12 -12
-13 -13 -14 -14 -14 -14 -14 -14 -14 -14 -15 -15 -15 -15 -15 -16 -16 -16 -16 -16 -16 -17 -16 -16 -16 -16 -16 -16 -16 -16 -16 -16 -16 -16 -15 -16 -15 -16 -15 -15 -15 -14 -13 -14 -13 -13 -13
-13 -13 -13 -15 -14 -14 -14 -14 -14 -14 -15 -15 -15 -15 -15 -16 -16 -16 -16 -16 -16 -16 -17 -17 -17 -16 -16 -16 -16 -16 -16 -16 -16 -16 -16 -15 -15 -15 -15 -16 -15 -15 -14 -14 -14 -13 -13
-13 -13 -13 -14 -14 -14 -14 -14 -14 -14 -14 -15 -15 -15 -15 -15 -16 -16 -16 -16 -17 -17 -17 -17 -17 -17 -17 -17 -17 -17 -17 -16 -16 -16 -16 -16 -16 -16 -15 -15 -15 -14 -15 -15 -15 -14 -14
-13 -13 -13 -14 -14 -14 -14 -14 -14 -14 -14 -14 -15 -15 -15 -15 -15 -16 -16 -16 -16 -17 -17 -17 -17 -17 -17 -17 -17 -17 -17 -17 -17 -17 -16 -16 -16 -16 -16 -16 -15 -15 -15 -15 -15 -14 -14
-14 -13 -13 -15 -14 -14 -14 -14 -14 -14 -14 -14 -14 -15 -15 -15 -15 -16 -16 -16 -16 -16 -17 -17 -17 -17 -17 -17 -17 -17 -17 -17 -17 -17 -17 -17 -17 -16 -16 -16 -15 -15 -15 -15 -15 -15 -15
-13 -13 -13 -15 -14 -14 -14 -14 -14 -14 -14 -14 -14 -14 -15 -15 -15 -15 -16 -16 -16 -17 -17 -17 -17 -17 -17 -17 -17 -17 -17 -17 -17 -17 -17 -17 -17 -17 -17 -17 -16 -16 -15 -15 -15 -15 -15

GFSGBSN_500_temp_075.txt.gz
Temp
-4 -4 -5 -5 -6 -7 -8 -8 -8 -8 -8 -8 -8 -8 -7 -7 -7 -7 -7 -6 -6 -6 -6 -6 -6 -6 -5 -5 -5 -6 -6 -6 -6 -6 -6 -6 -6 -6 -6 -6 -5 -5 -6 -5 -5 -5 -5
-5 -5 -6 -6 -7 -8 -8 -8 -8 -8 -8 -8 -8 -8 -8 -8 -7 -7 -7 -7 -7 -6 -6 -6 -6 -6 -6 -5 -6 -6 -6 -6 -6 -6 -6 -6 -6 -6 -6 -6 -6 -6 -6 -6 -5 -5 -5
-6 -6 -7 -7 -8 -8 -8 -9 -9 -9 -9 -9 -8 -8 -8 -8 -8 -7 -7 -7 -7 -7 -7 -6 -6 -6 -6 -5 -6 -6 -6 -6 -6 -6 -6 -6 -6 -6 -7 -6 -6 -6 -7 -7 -6 -5 -5
-6 -7 -7 -8 -8 -8 -8 -8 -9 -9 -9 -9 -9 -9 -8 -8 -8 -8 -8 -7 -7 -7 -7 -7 -7 -7 -6 -7 -6 -6 -6 -6 -6 -6 -6 -6 -6 -6 -6 -6 -6 -7 -7 -8 -6 -6 -6
-6 -7 -7 -8 -8 -8 -8 -8 -8 -8 -8 -9 -9 -9 -9 -8 -8 -8 -8 -8 -8 -7 -7 -7 -7 -7 -6 -6 -7 -7 -7 -6 -7 -7 -7 -7 -7 -6 -6 -6 -7 -7 -7 -8 -7 -7 -6
-6 -7 -8 -8 -9 -8 -8 -8 -8 -8 -9 -9 -9 -9 -9 -9 -9 -9 -9 -9 -8 -8 -8 -7 -7 -7 -7 -7 -7 -8 -8 -7 -7 -7 -7 -7 -7 -7 -6 -7 -6 -7 -7 -9 -8 -7 -6
-7 -7 -8 -8 -9 -8 -8 -8 -9 -9 -10 -10 -10 -10 -10 -9 -9 -9 -9 -9 -9 -9 -8 -8 -8 -7 -7 -7 -7 -8 -8 -8 -8 -7 -8 -7 -7 -7 -7 -7 -7 -9 -7 -8 -8 -8 -9
-7 -7 -8 -9 -9 -9 -9 -9 -10 -10 -10 -10 -10 -10 -10 -10 -10 -9 -9 -9 -9 -9 -9 -9 -9 -8 -8 -8 -8 -8 -9 -9 -8 -8 -8 -8 -7 -8 -8 -7 -7 -7 -9 -8 -9 -9 -9
-7 -7 -8 -9 -9 -9 -9 -10 -10 -10 -10 -10 -10 -10 -10 -10 -10 -10 -10 -10 -10 -10 -10 -9 -9 -9 -9 -9 -9 -9 -9 -9 -9 -9 -8 -9 -8 -8 -8 -7 -7 -8 -9 -8 -9 -7 -8
-7 -8 -8 -8 -9 -9 -10 -10 -10 -10 -11 -11 -11 -12 -13 -13 -12 -12 -12 -12 -12 -12 -12 -10 -10 -10 -10 -10 -10 -9 -10 -10 -10 -9 -9 -9 -9 -8 -8 -8 -8 -8 -7 -9 -10 -8 -8
-7 -8 -8 -9 -9 -10 -10 -10 -11 -11 -11 -11 -12 -13 -14 -14 -14 -14 -14 -14 -14 -15 -14 -13 -12 -11 -11 -11 -11 -10 -10 -10 -10 -10 -10 -9 -9 -9 -8 -8 -8 -10 -9 -10 -10 -8 -9
-8 -8 -8 -9 -10 -10 -11 -11 -11 -11 -11 -12 -13 -14 -15 -15 -15 -15 -15 -15 -15 -15 -15 -16 -14 -13 -13 -13 -11 -11 -11 -11 -11 -10 -10 -10 -10 -9 -9 -9 -8 -10 -10 -8 -8 -9 -9
-8 -8 -9 -10 -10 -11 -11 -11 -11 -12 -12 -13 -14 -15 -15 -15 -15 -15 -15 -15 -15 -15 -15 -16 -15 -14 -15 -14 -16 -12 -12 -12 -11 -11 -10 -11 -10 -9 -10 -9 -9 -11 -11 -9 -10 -10 -9
-9 -9 -9 -10 -11 -11 -12 -11 -12 -13 -14 -15 -15 -16 -15 -15 -15 -16 -16 -16 -15 -16 -17 -14 -15 -16 -16 -16 -16 -15 -13 -13 -13 -12 -13 -11 -11 -10 -10 -10 -11 -11 -11 -10 -10 -9 -9
-9 -9 -10 -11 -12 -12 -12 -12 -12 -13 -14 -15 -15 -16 -15 -15 -15 -16 -16 -16 -16 -15 -15 -16 -16 -16 -16 -16 -16 -16 -16 -15 -15 -13 -13 -13 -13 -11 -10 -12 -12 -12 -11 -11 -9 -8 -8
-9 -10 -10 -11 -12 -12 -12 -12 -13 -13 -15 -15 -15 -16 -16 -16 -15 -16 -17 -17 -17 -17 -16 -17 -17 -17 -17 -17 -17 -16 -16 -15 -15 -13 -13 -12 -13 -12 -11 -10 -11 -11 -12 -11 -10 -9 -8
-10 -11 -11 -12 -12 -12 -12 -12 -13 -14 -15 -15 -15 -15 -16 -16 -16 -16 -16 -17 -17 -16 -16 -16 -16 -17 -16 -16 -16 -16 -16 -15 -15 -14 -14 -12 -13 -13 -12 -11 -11 -10 -10 -12 -10 -10 -8
-10 -11 -12 -12 -13 -13 -13 -13 -13 -14 -14 -15 -15 -16 -16 -16 -16 -16 -16 -16 -17 -17 -17 -17 -16 -17 -16 -16 -17 -16 -16 -15 -15 -15 -15 -14 -13 -14 -12 -12 -11 -11 -13 -11 -11 -11 -10
-10 -12 -13 -13 -13 -13 -13 -13 -13 -14 -14 -15 -15 -15 -16 -16 -16 -16 -16 -15 -16 -17 -17 -17 -17 -17 -17 -16 -17 -16 -16 -16 -16 -15 -15 -15 -14 -14 -13 -11 -12 -11 -10 -11 -12 -11 -10
-10 -11 -13 -13 -13 -13 -13 -13 -14 -14 -14 -15 -15 -15 -15 -16 -16 -16 -16 -16 -16 -16 -17 -17 -17 -17 -18 -17 -17 -17 -16 -17 -16 -16 -16 -15 -15 -14 -14 -14 -13 -12 -11 -11 -11 -12 -11
-10 -11 -13 -14 -14 -13 -13 -13 -14 -14 -14 -15 -14 -15 -15 -15 -16 -16 -16 -16 -16 -16 -16 -17 -17 -17 -18 -18 -17 -17 -17 -17 -17 -16 -17 -16 -15 -15 -14 -13 -14 -15 -12 -11 -11 -11 -12
-11 -11 -13 -14 -14 -14 -14 -14 -14 -14 -15 -15 -15 -15 -15 -15 -15 -16 -16 -16 -16 -16 -16 -16 -17 -17 -17 -18 -18 -17 -17 -17 -18 -17 -18 -17 -15 -15 -15 -14 -14 -13 -12 -11 -11 -12 -13
-11 -11 -13 -14 -15 -14 -14 -14 -14 -14 -14 -15 -15 -15 -15 -15 -15 -16 -16 -16 -16 -16 -16 -16 -16 -16 -16 -16 -16 -16 -17 -17 -17 -17 -17 -17 -18 -16 -17 -16 -15 -14 -13 -13 -13 -13 -14
-12 -12 -12 -14 -15 -14 -14 -14 -14 -14 -14 -15 -15 -15 -15 -15 -16 -16 -16 -16 -16 -16 -16 -16 -16 -16 -16 -16 -16 -16 -16 -16 -16 -16 -16 -17 -17 -17 -17 -16 -15 -15 -14 -13 -14 -13 -14
-12 -12 -13 -14 -15 -15 -14 -14 -14 -14 -14 -15 -15 -15 -15 -15 -16 -16 -16 -16 -16 -16 -16 -16 -16 -16 -16 -16 -16 -16 -16 -16 -16 -16 -16 -16 -16 -16 -16 -17 -17 -15 -15 -16 -15 -14 -15
-12 -12 -14 -14 -15 -15 -14 -14 -14 -14 -14 -14 -15 -15 -15 -15 -15 -16 -16 -16 -16 -16 -17 -17 -17 -17 -16 -17 -16 -16 -16 -16 -15 -16 -15 -15 -16 -16 -16 -16 -17 -17 -14 -15 -15 -15 -15
-12 -12 -14 -15 -15 -15 -14 -14 -14 -14 -14 -14 -14 -15 -15 -15 -15 -15 -16 -16 -16 -16 -16 -16 -16 -17 -17 -17 -17 -17 -17 -16 -16 -16 -16 -16 -16 -16 -16 -16 -17 -14 -15 -16 -15 -15 -14
-12 -12 -15 -14 -14 -15 -14 -14 -14 -14 -14 -14 -14 -14 -14 -15 -15 -15 -15 -16 -16 -16 -16 -16 -17 -17 -17 -17 -17 -17 -17 -16 -17 -17 -16 -16 -16 -16 -16 -16 -16 -14 -16 -16 -15 -15 -14
-13 -15 -15 -14 -14 -15 -14 -14 -14 -14 -14 -14 -14 -14 -15 -15 -15 -15 -15 -15 -15 -15 -15 -16 -16 -16 -17 -17 -17 -17 -17 -17 -17 -17 -17 -17 -17 -16 -16 -16 -15 -15 -15 -15 -15 -15 -15

GFSGBSN_500_temp_078.txt.gz
Temp
-5 -5 -5 -6 -6 -6 -6 -7 -7 -8 -8 -8 -8 -8 -8 -7 -7 -7 -7 -7 -6 -6 -6 -6 -6 -6 -5 -5 -5 -5 -5 -5 -6 -6 -6 -6 -6 -6 -6 -6 -5 -5 -6 -5 -5 -4 -5
-5 -5 -6 -6 -6 -7 -7 -7 -8 -8 -8 -8 -8 -8 -8 -8 -8 -7 -7 -7 -7 -7 -7 -6 -6 -6 -6 -5 -6 -6 -6 -6 -6 -6 -6 -6 -6 -6 -6 -7 -6 -6 -5 -5 -5 -5 -5
-5 -5 -6 -6 -7 -7 -7 -7 -8 -8 -8 -9 -9 -8 -8 -8 -8 -8 -7 -7 -7 -7 -7 -7 -6 -6 -6 -5 -6 -6 -6 -6 -6 -6 -6 -6 -6 -6 -6 -6 -6 -7 -6 -6 -5 -5 -5
-5 -5 -6 -6 -7 -8 -8 -8 -7 -8 -8 -8 -8 -9 -9 -9 -9 -8 -8 -8 -8 -7 -7 -7 -7 -6 -6 -6 -7 -6 -6 -6 -6 -6 -6 -6 -6 -6 -6 -6 -6 -6 -6 -7 -6 -5 -5
-5 -6 -6 -6 -7 -8 -8 -8 -8 -7 -8 -8 -8 -9 -9 -9 -9 -9 -8 -8 -8 -8 -8 -7 -7 -6 -6 -7 -6 -7 -7 -7 -7 -6 -6 -6 -6 -7 -6 -6 -6 -7 -6 -6 -6 -6 -5
-6 -6 -6 -6 -7 -8 -8 -8 -8 -7 -8 -9 -9 -9 -9 -9 -9 -9 -9 -9 -9 -8 -8 -8 -7 -7 -7 -7 -7 -7 -7 -7 -7 -7 -7 -6 -7 -7 -7 -6 -6 -7 -7 -8 -7 -7 -8
-6 -6 -6 -7 -7 -8 -8 -8 -8 -9 -9 -9 -9 -9 -9 -9 -9 -9 -9 -9 -9 -9 -9 -8 -8 -8 -7 -7 -7 -7 -7 -8 -8 -7 -7 -7 -7 -6 -7 -7 -7 -7 -7 -7 -7 -7 -8
-6 -6 -6 -7 -7 -8 -8 -8 -9 -9 -10 -10 -9 -9 -9 -9 -9 -9 -10 -10 -10 -9 -9 -9 -9 -9 -7 -8 -8 -7 -7 -8 -8 -8 -8 -8 -7 -7 -7 -7 -7 -7 -9 -8 -7 -6 -7
-7 -7 -7 -7 -8 -8 -9 -9 -10 -10 -10 -10 -10 -10 -11 -10 -10 -10 -11 -11 -10 -10 -10 -9 -9 -9 -9 -9 -9 -9 -8 -9 -9 -9 -8 -8 -8 -8 -7 -7 -8 -7 -8 -8 -8 -7 -6
-7 -7 -7 -8 -8 -9 -9 -10 -10 -10 -10 -10 -10 -11 -12 -13 -13 -12 -13 -13 -13 -12 -12 -11 -10 -10 -9 -9 -9 -9 -10 -10 -9 -9 -9 -9 -8 -8 -8 -7 -8 -7 -7 -9 -8 -8 -8
-7 -7 -8 -8 -9 -9 -10 -10 -11 -11 -10 -11 -11 -13 -14 -15 -15 -15 -15 -15 -15 -14 -14 -14 -12 -11 -11 -11 -11 -9 -10 -10 -10 -10 -9 -9 -9 -8 -8 -8 -8 -8 -8 -9 -7 -8 -8
-7 -7 -8 -9 -9 -10 -11 -11 -11 -11 -11 -12 -13 -14 -15 -15 -15 -15 -15 -15 -15 -15 -15 -15 -15 -13 -12 -12 -12 -11 -11 -11 -11 -11 -10 -10 -9 -9 -8 -8 -8 -9 -10 -9 -9 -8 -8
-8 -8 -9 -9 -10 -11 -11 -11 -11 -11 -12 -13 -14 -15 -15 -15 -15 -15 -15 -16 -16 -15 -15 -16 -16 -14 -13 -14 -15 -14 -11 -11 -11 -11 -11 -10 -10 -10 -9 -8 -8 -9 -10 -10 -9 -9 -9
-8 -9 -9 -10 -11 -11 -12 -12 -12 -12 -12 -14 -14 -15 -15 -15 -15 -15 -16 -16 -16 -15 -15 -16 -16 -15 -15 -15 -15 -15 -13 -12 -12 -12 -13 -13 -11 -10 -9 -9 -9 -10 -10 -10 -10 -9 -9
-8 -9 -9 -10 -11 -12 -12 -12 -12 -12 -13 -14 -15 -15 -15 -15 -15 -15 -16 -16 -15 -16 -16 -16 -15 -16 -15 -15 -15 -15 -15 -15 -13 -13 -13 -12 -12 -12 -10 -9 -9 -11 -11 -10 -9 -9 -8
-9 -9 -10 -11 -12 -12 -12 -12 -12 -12 -13 -14 -15 -15 -15 -16 -15 -16 -16 -16 -17 -16 -16 -16 -16 -16 -15 -15 -15 -15 -15 -15 -14 -14 -12 -12 -11 -12 -11 -10 -10 -10 -11 -10 -10 -10 -8
-9 -9 -10 -11 -13 -13 -13 -13 -12 -13 -13 -14 -15 -14 -16 -16 -15 -15 -16 -17 -16 -17 -17 -16 -16 -15 -15 -15 -16 -15 -14 -14 -14 -14 -13 -12 -12 -12 -13 -10 -10 -10 -10 -11 -10 -10 -9
-9 -9 -10 -11 -14 -14 -13 -13 -13 -13 -13 -13 -15 -15 -16 -16 -16 -17 -16 -16 -16 -15 -16 -16 -16 -15 -16 -16 -15 -15 -15 -15 -14 -14 -14 -13 -12 -12 -13 -12 -11 -12 -11 -10 -10 -9 -9
-10 -10 -10 -11 -14 -14 -13 -13 -13 -13 -13 -13 -14 -15 -15 -15 -16 -17 -16 -16 -16 -16 -16 -16 -16 -16 -15 -16 -16 -15 -15 -14 -15 -15 -15 -13 -13 -12 -13 -13 -11 -11 -10 -11 -11 -10 -9
-10 -10 -11 -12 -13 -14 -13 -14 -13 -14 -14 -14 -14 -16 -15 -15 -15 -16 -16 -16 -16 -16 -16 -16 -16 -16 -16 -16 -16 -15 -14 -15 -15 -14 -15 -14 -13 -14 -13 -13 -13 -11 -11 -11 -10 -11 -11
-10 -11 -12 -11 -14 -15 -14 -14 -14 -14 -14 -14 -14 -15 -15 -15 -15 -15 -16 -16 -16 -16 -16 -16 -16 -16 -16 -16 -16 -16 -16 -15 -15 -15 -15 -14 -14 -15 -14 -13 -13 -13 -12 -12 -11 -10 -12
-11 -12 -12 -12 -14 -15 -14 -14 -14 -14 -14 -14 -15 -15 -15 -15 -16 -16 -16 -16 -16 -16 -16 -16 -16 -16 -16 -16 -16 -16 -17 -16 -16 -16 -15 -15 -15 -15 -13 -13 -13 -12 -13 -14 -12 -11 -13
-12 -12 -12 -12 -13 -15 -15 -14 -14 -14 -14 -15 -15 -15 -15 -15 -15 -16 -16 -16 -16 -16 -16 -16 -15 -16 -16 -16 -16 -16 -16 -16 -16 -16 -16 -16 -16 -15 -14 -14 -14 -13 -12 -13 -12 -12 -14
-12 -12 -12 -12 -13 -15 -16 -14 -14 -14 -14 -15 -15 -15 -15 -15 -15 -16 -16 -16 -16 -16 -16 -16 -16 -15 -15 -15 -16 -16 -16 -16 -16 -16 -16 -16 -16 -16 -16 -15 -15 -14 -14 -12 -12 -15 -15
-12 -12 -13 -12 -13 -15 -16 -15 -14 -14 -14 -15 -15 -15 -15 -15 -15 -15 -16 -16 -16 -16 -16 -16 -16 -16 -16 -16 -16 -16 -16 -16 -16 -16 -16 -16 -16 -16 -16 -15 -16 -15 -14 -15 -15 -16 -14
-12 -12 -12 -12 -13 -14 -16 -14 -14 -14 -14 -14 -15 -15 -15 -15 -15 -15 -15 -16 -16 -16 -16 -16 -16 -16 -16 -16 -16 -16 -16 -16 -16 -15 -16 -16 -15 -16 -16 -16 -16 -16 -14 -15 -15 -15 -14
-12 -12 -12 -13 -14 -14 -16 -15 -14 -14 -14 -14 -14 -14 -14 -14 -15 -15 -15 -15 -16 -16 -16 -16 -16 -16 -16 -16 -16 -16 -16 -16 -16 -16 -15 -16 -16 -16 -16 -16 -17 -15 -15 -15 -16 -16 -15
-12 -12 -12 -14 -14 -14 -16 -14 -15 -14 -14 -14 -14 -14 -14 -14 -15 -15 -15 -15 -15 -15 -15 -16 -16 -16 -16 -16 -16 -16 -16 -16 -16 -16 -16 -16 -16 -16 -16 -17 -18 -16 -16 -16 -15 -15 -15
-12 -13 -13 -14 -14 -14 -15 -14 -14 -14 -14 -14 -14 -14 -14 -14 -14 -14 -14 -15 -15 -15 -15 -15 -15 -16 -16 -16 -16 -16 -16 -17 -17 -17 -17 -16 -16 -16 -17 -17 -16 -15 -15 -16 -16 -16 -15

GFSGBSN_500_temp_084.txt.gz
Temp
-4 -5 -4 -4 -4 -4 -5 -5 -6 -6 -7 -7 -8 -7 -7 -7 -8 -8 -8 -8 -7 -7 -6 -6 -6 -6 -6 -7 -6 -6 -6 -6 -6 -6 -6 -6 -6 -6 -5 -5 -5 -5 -5 -5 -5 -4 -5
-5 -5 -5 -5 -5 -5 -5 -5 -6 -6 -7 -7 -7 -7 -7 -8 -8 -8 -8 -8 -8 -7 -7 -6 -6 -7 -6 -7 -7 -6 -6 -6 -6 -6 -6 -6 -7 -6 -6 -5 -4 -4 -5 -5 -6 -5 -5
-4 -5 -5 -5 -5 -5 -5 -5 -6 -6 -7 -7 -7 -7 -7 -7 -7 -8 -8 -8 -8 -8 -7 -7 -6 -7 -7 -7 -7 -7 -6 -6 -7 -7 -7 -7 -7 -6 -6 -5 -5 -4 -6 -6 -6 -6 -6
-5 -5 -5 -5 -5 -5 -5 -5 -6 -6 -7 -7 -7 -7 -7 -7 -8 -8 -8 -8 -8 -8 -8 -7 -7 -7 -7 -6 -7 -7 -7 -7 -7 -7 -7 -7 -7 -6 -6 -6 -5 -4 -4 -5 -5 -6 -6
-5 -5 -5 -5 -5 -5 -6 -6 -6 -7 -7 -8 -8 -8 -8 -8 -8 -8 -8 -8 -8 -8 -8 -8 -8 -7 -7 -7 -8 -7 -7 -7 -7 -7 -7 -7 -7 -6 -6 -6 -5 -5 -6 -6 -6 -6 -6
-5 -5 -5 -5 -5 -5 -6 -6 -7 -7 -8 -8 -8 -8 -8 -8 -8 -8 -8 -8 -8 -8 -8 -8 -8 -8 -7 -7 -7 -8 -7 -7 -7 -7 -7 -7 -7 -7 -7 -6 -6 -6 -7 -6 -5 -6 -6
-5 -5 -5 -6 -6 -6 -6 -7 -7 -8 -8 -9 -9 -9 -9 -9 -8 -8 -9 -9 -9 -9 -9 -8 -9 -8 -8 -7 -7 -8 -8 -8 -7 -7 -7 -7 -7 -7 -7 -7 -7 -7 -7 -8 -7 -7 -7
-5 -5 -6 -6 -6 -6 -7 -7 -8 -8 -9 -9 -9 -10 -10 -9 -9 -9 -9 -9 -9 -8 -9 -9 -9 -8 -8 -8 -7 -7 -7 -8 -7 -7 -7 -7 -7 -8 -8 -8 -8 -8 -8 -8 -9 -7 -8
-6 -6 -6 -6 -7 -7 -7 -8 -8 -9 -10 -10 -10 -10 -10 -10 -10 -11 -10 -10 -10 -10 -10 -10 -10 -9 -8 -9 -9 -8 -7 -8 -8 -8 -7 -7 -8 -8 -8 -8 -8 -8 -8 -8 -8 -8 -8
-6 -6 -7 -7 -7 -7 -8 -8 -9 -10 -11 -11 -11 -11 -11 -12 -12 -14 -13 -13 -12 -12 -12 -11 -11 -10 -9 -9 -9 -9 -8 -9 -9 -8 -8 -8 -8 -8 -8 -8 -8 -8 -9 -8 -9 -9 -9
-6 -7 -7 -7 -8 -8 -8 -9 -10 -11 -11 -11 -11 -11 -12 -13 -14 -14 -14 -14 -14 -15 -13 -13 -12 -12 -11 -11 -10 -9 -10 -9 -9 -9 -9 -9 -8 -8 -8 -8 -8 -8 -9 -9 -9 -9 -9
-6 -7 -7 -7 -8 -8 -9 -10 -11 -12 -12 -11 -11 -12 -13 -14 -14 -13 -14 -14 -15 -15 -15 -15 -15 -15 -13 -12 -11 -11 -11 -10 -10 -9 -9 -9 -10 -8 -9 -8 -8 -9 -10 -10 -10 -10 -8
-6 -7 -7 -8 -9 -9 -10 -11 -12 -12 -12 -12 -12 -13 -14 -14 -14 -14 -15 -15 -16 -16 -16 -16 -16 -15 -14 -13 -12 -12 -11 -11 -10 -10 -9 -9 -9 -9 -9 -9 -8 -9 -10 -10 -9 -9 -8
-6 -7 -7 -8 -9 -10 -11 -12 -13 -12 -12 -12 -12 -14 -14 -14 -14 -14 -15 -15 -15 -16 -16 -16 -16 -15 -14 -14 -13 -13 -12 -12 -12 -11 -11 -10 -10 -9 -9 -8 -9 -9 -10 -10 -10 -10 -9
-6 -7 -7 -8 -10 -11 -11 -13 -13 -13 -12 -12 -13 -14 -14 -14 -14 -15 -15 -16 -15 -15 -16 -15 -16 -16 -16 -16 -15 -14 -14 -15 -15 -14 -12 -11 -10 -10 -9 -9 -10 -9 -9 -10 -10 -10 -9
-6 -7 -7 -9 -10 -11 -12 -12 -13 -13 -13 -13 -13 -14 -15 -15 -15 -15 -16 -16 -16 -16 -16 -15 -16 -15 -15 -15 -16 -16 -15 -15 -15 -14 -13 -11 -11 -10 -10 -10 -10 -9 -10 -10 -10 -10 -9
-6 -7 -8 -9 -11 -11 -12 -13 -13 -13 -13 -13 -13 -14 -14 -15 -15 -15 -15 -15 -15 -16 -16 -16 -16 -15 -16 -15 -15 -15 -15 -15 -13 -13 -13 -12 -11 -11 -11 -10 -10 -10 -10 -10 -10 -10 -9
-7 -8 -8 -10 -11 -12 -12 -14 -14 -14 -13 -13 -13 -14 -14 -14 -15 -15 -16 -16 -16 -16 -16 -16 -16 -16 -15 -15 -15 -15 -15 -14 -14 -14 -14 -13 -12 -12 -11 -11 -11 -10 -11 -11 -10 -10 -10
-8 -8 -9 -10 -11 -12 -12 -14 -15 -14 -14 -14 -14 -14 -14 -14 -15 -15 -16 -16 -16 -16 -16 -16 -16 -15 -16 -15 -15 -15 -15 -14 -14 -14 -14 -14 -13 -12 -13 -13 -12 -12 -12 -11 -11 -10 -10
-8 -9 -10 -11 -11 -12 -12 -14 -15 -14 -14 -14 -14 -14 -14 -15 -15 -15 -16 -16 -16 -16 -16 -16 -16 -16 -15 -16 -15 -15 -15 -15 -14 -14 -14 -14 -13 -13 -12 -12 -12 -12 -12 -12 -11 -11 -10
-9 -9 -10 -11 -11 -11 -12 -13 -15 -14 -14 -14 -14 -14 -15 -15 -15 -15 -16 -16 -16 -16 -16 -16 -15 -16 -15 -15 -16 -16 -15 -15 -14 -14 -15 -15 -14 -13 -12 -12 -12 -12 -13 -12 -11 -11 -10
-9 -10 -10 -11 -11 -11 -12 -14 -15 -15 -14 -14 -14 -15 -15 -15 -15 -15 -15 -16 -16 -16 -16 -16 -15 -16 -16 -16 -16 -16 -16 -15 -15 -15 -15 -14 -14 -14 -13 -12 -12 -12 -12 -13 -12 -12 -10
-10 -10 -10 -10 -11 -11 -12 -14 -16 -15 -14 -15 -15 -15 -15 -15 -15 -15 -15 -16 -16 -16 -16 -16 -16 -16 -16 -16 -16 -17 -16 -16 -16 -16 -16 -15 -15 -14 -13 -13 -13 -13 -13 -13 -13 -12 -11
-10 -10 -11 -11 -11 -11 -12 -14 -16 -15 -14 -15 -15 -15 -15 -15 -15 -15 -15 -16 -16 -16 -16 -16 -16 -15 -16 -16 -16 -15 -15 -15 -15 -16 -15 -15 -15 -14 -14 -13 -15 -14 -13 -14 -13 -12 -11
-10 -11 -11 -11 -12 -12 -13 -14 -16 -15 -15 -14 -15 -15 -15 -14 -15 -15 -15 -15 -16 -16 -16 -16 -16 -15 -15 -16 -15 -15 -16 -15 -16 -16 -15 -14 -14 -14 -14 -14 -15 -15 -14 -13 -13 -12 -11
-11 -11 -11 -11 -12 -12 -14 -15 -16 -15 -15 -14 -15 -14 -14 -14 -14 -14 -15 -15 -15 -16 -16 -16 -15 -15 -15 -15 -15 -15 -15 -15 -16 -16 -15 -15 -15 -15 -14 -14 -14 -15 -15 -15 -14 -14 -12
-11 -11 -12 -12 -12 -13 -14 -14 -15 -15 -15 -14 -14 -14 -14 -14 -14 -14 -14 -15 -15 -15 -15 -15 -15 -15 -15 -16 -15 -15 -15 -15 -15 -15 -15 -15 -15 -15 -15 -15 -14 -14 -15 -15 -14 -13 -14
-11 -12 -13 -13 -13 -13 -13 -14 -15 -15 -15 -14 -14 -14 -14 -14 -14 -14 -14 -14 -14 -15 -15 -15 -15 -15 -15 -15 -15 -15 -15 -15 -15 -15 -15 -15 -15 -15 -15 -15 -14 -14 -15 -16 -15 -14 -14
-12 -12 -13 -13 -14 -14 -13 -13 -14 -15 -14 -14 -14 -14 -14 -14 -14 -14 -14 -14 -14 -14 -15 -15 -15 -15 -15 -15 -15 -15 -15 -15 -15 -15 -15 -15 -15 -15 -15 -15 -15 -15 -15 -16 -16 -16 -15

GFSGBSN_500_temp_087.txt.gz
Temp
-4 -5 -4 -4 -4 -4 -5 -5 -5 -5 -5 -5 -6 -7 -7 -7 -7 -7 -7 -7 -8 -8 -7 -6 -6 -6 -7 -7 -6 -7 -7 -7 -7 -7 -6 -6 -6 -6 -6 -6 -5 -5 -5 -5 -5 -5 -5
-5 -5 -5 -5 -4 -5 -5 -5 -5 -5 -5 -6 -6 -6 -7 -7 -7 -7 -7 -7 -7 -8 -8 -8 -7 -7 -7 -7 -7 -7 -7 -7 -7 -7 -6 -6 -6 -6 -6 -6 -6 -6 -4 -5 -5 -5 -5
-5 -5 -5 -5 -5 -5 -5 -5 -5 -6 -6 -6 -6 -7 -7 -7 -7 -7 -7 -7 -7 -8 -8 -8 -8 -7 -7 -7 -7 -7 -7 -7 -7 -7 -7 -7 -6 -6 -6 -6 -6 -6 -5 -5 -5 -4 -5
-4 -5 -5 -5 -5 -5 -5 -6 -6 -6 -6 -6 -7 -7 -7 -7 -7 -8 -8 -7 -7 -8 -8 -8 -8 -8 -8 -7 -7 -7 -7 -7 -8 -8 -8 -7 -6 -5 -6 -6 -6 -5 -6 -5 -5 -5 -5
-5 -5 -5 -5 -6 -6 -6 -6 -6 -6 -7 -7 -7 -8 -8 -8 -8 -8 -8 -8 -8 -8 -9 -8 -8 -8 -8 -7 -8 -8 -7 -8 -8 -8 -8 -7 -6 -5 -5 -6 -6 -6 -6 -5 -5 -5 -6
-5 -5 -6 -6 -6 -6 -6 -7 -7 -7 -7 -7 -8 -8 -9 -9 -8 -8 -8 -9 -8 -8 -8 -9 -9 -8 -8 -8 -8 -8 -8 -8 -8 -8 -8 -8 -7 -6 -6 -6 -7 -7 -7 -5 -6 -6 -6
-5 -6 -6 -6 -6 -6 -7 -7 -7 -8 -8 -8 -9 -9 -9 -9 -9 -9 -8 -9 -8 -8 -9 -9 -9 -9 -8 -8 -8 -7 -8 -8 -8 -7 -8 -8 -7 -7 -7 -8 -7 -8 -7 -7 -5 -6 -6
-6 -6 -6 -6 -6 -6 -7 -8 -8 -8 -9 -9 -10 -10 -10 -10 -10 -9 -8 -8 -9 -9 -9 -9 -9 -9 -9 -8 -9 -8 -7 -7 -7 -8 -8 -8 -8 -8 -8 -8 -8 -8 -8 -7 -7 -7 -6
-6 -6 -6 -6 -6 -7 -7 -8 -9 -9 -10 -10 -11 -11 -10 -10 -10 -10 -10 -9 -9 -10 -10 -10 -10 -9 -9 -9 -9 -9 -9 -8 -8 -8 -8 -8 -9 -9 -8 -8 -9 -8 -9 -7 -7 -7 -6
-6 -6 -6 -6 -6 -7 -8 -9 -10 -10 -11 -11 -11 -11 -11 -11 -12 -13 -13 -13 -12 -11 -11 -11 -11 -10 -10 -10 -10 -9 -10 -9 -8 -8 -8 -9 -9 -9 -8 -8 -9 -9 -9 -9 -8 -7 -7
-6 -5 -5 -5 -6 -7 -8 -9 -10 -11 -12 -12 -12 -12 -12 -12 -13 -13 -14 -14 -15 -14 -14 -13 -12 -12 -11 -11 -11 -10 -10 -10 -9 -9 -8 -9 -9 -9 -8 -8 -8 -9 -10 -9 -9 -9 -8
-5 -5 -5 -6 -7 -7 -8 -10 -11 -11 -12 -12 -12 -12 -13 -13 -14 -14 -14 -14 -15 -16 -16 -16 -15 -14 -13 -12 -11 -11 -10 -10 -11 -10 -9 -9 -9 -8 -9 -9 -8 -10 -10 -10 -10 -9 -9
-5 -4 -5 -6 -7 -8 -9 -10 -11 -12 -13 -12 -12 -13 -14 -14 -14 -14 -14 -15 -15 -16 -16 -16 -16 -17 -15 -14 -12 -12 -11 -11 -11 -10 -10 -9 -9 -9 -9 -9 -9 -9 -10 -10 -10 -9 -9
-5 -4 -5 -6 -7 -8 -10 -11 -11 -12 -13 -12 -13 -13 -14 -14 -14 -14 -14 -15 -15 -16 -16 -16 -16 -16 -15 -14 -14 -13 -12 -12 -11 -11 -11 -10 -9 -9 -9 -9 -9 -9 -10 -10 -10 -10 -8
-4 -5 -5 -6 -8 -9 -11 -11 -12 -13 -13 -13 -13 -13 -14 -14 -15 -15 -15 -15 -15 -16 -16 -15 -16 -16 -14 -14 -15 -15 -14 -13 -13 -11 -11 -11 -10 -10 -10 -10 -9 -9 -10 -10 -10 -10 -9
-5 -5 -6 -7 -8 -10 -11 -12 -12 -13 -13 -13 -13 -13 -14 -15 -15 -15 -16 -16 -16 -16 -17 -16 -16 -16 -16 -15 -15 -16 -15 -14 -12 -12 -12 -11 -11 -11 -10 -10 -10 -10 -10 -10 -11 -11 -10
-5 -6 -7 -8 -9 -10 -11 -12 -12 -14 -13 -14 -13 -13 -14 -15 -15 -16 -16 -16 -16 -15 -16 -16 -16 -16 -16 -15 -16 -16 -16 -15 -13 -13 -13 -12 -12 -12 -11 -11 -11 -10 -10 -11 -11 -10 -10
-6 -7 -8 -9 -9 -11 -11 -11 -12 -14 -14 -14 -14 -14 -14 -15 -15 -15 -16 -16 -16 -15 -16 -16 -15 -16 -16 -16 -16 -16 -15 -15 -15 -14 -14 -13 -12 -13 -13 -12 -12 -11 -11 -11 -11 -11 -10
-7 -8 -9 -9 -10 -11 -11 -12 -13 -14 -14 -14 -14 -14 -14 -14 -14 -14 -15 -16 -16 -15 -15 -16 -16 -16 -16 -16 -16 -16 -15 -15 -15 -15 -15 -14 -13 -13 -13 -13 -13 -12 -11 -11 -11 -11 -10
-8 -9 -9 -10 -10 -10 -11 -12 -13 -15 -14 -14 -14 -14 -14 -14 -14 -15 -15 -16 -16 -16 -16 -16 -16 -15 -16 -16 -16 -15 -15 -15 -15 -15 -15 -14 -14 -14 -14 -13 -13 -12 -11 -11 -10 -11 -10
-9 -9 -9 -10 -10 -11 -11 -12 -14 -15 -15 -14 -14 -14 -14 -15 -15 -15 -16 -16 -16 -16 -16 -16 -16 -16 -16 -16 -16 -15 -15 -15 -15 -15 -15 -15 -14 -14 -13 -13 -13 -12 -12 -11 -11 -10 -10
-9 -10 -9 -10 -10 -11 -12 -13 -14 -15 -15 -14 -14 -14 -14 -15 -15 -16 -16 -15 -16 -16 -16 -16 -16 -16 -16 -16 -16 -15 -15 -16 -15 -15 -15 -15 -14 -14 -14 -13 -13 -13 -12 -11 -11 -11 -10
-10 -10 -10 -10 -10 -11 -12 -13 -14 -15 -15 -15 -15 -15 -15 -15 -15 -15 -15 -15 -16 -16 -16 -15 -15 -16 -15 -15 -15 -15 -16 -15 -15 -15 -15 -14 -15 -14 -14 -13 -14 -13 -12 -12 -12 -11 -11
-10 -10 -10 -10 -10 -11 -12 -13 -14 -16 -15 -15 -15 -15 -15 -15 -15 -15 -15 -16 -16 -16 -16 -16 -16 -15 -16 -16 -15 -15 -16 -16 -15 -15 -15 -14 -15 -15 -14 -14 -14 -13 -13 -12 -12 -12 -11
-10 -10 -10 -11 -11 -12 -12 -13 -15 -16 -15 -15 -15 -15 -15 -15 -15 -15 -15 -15 -16 -16 -16 -16 -16 -16 -16 -15 -16 -15 -16 -16 -15 -15 -15 -14 -14 -15 -15 -15 -14 -14 -13 -13 -13 -13 -12
-10 -10 -10 -11 -11 -12 -12 -13 -15 -16 -15 -15 -15 -14 -14 -14 -15 -15 -15 -15 -16 -15 -16 -16 -16 -16 -16 -15 -15 -15 -15 -15 -15 -15 -16 -16 -15 -15 -15 -15 -15 -14 -14 -13 -15 -14 -13
-10 -11 -11 -12 -12 -13 -13 -13 -14 -16 -15 -15 -15 -14 -14 -14 -14 -15 -15 -15 -15 -15 -15 -15 -15 -16 -16 -15 -16 -15 -15 -15 -15 -15 -15 -15 -15 -15 -15 -14 -14 -14 -14 -14 -14 -13 -14
-11 -11 -11 -12 -13 -13 -14 -14 -14 -15 -15 -15 -15 -14 -14 -14 -14 -14 -14 -14 -15 -15 -15 -15 -15 -15 -15 -15 -15 -15 -16 -15 -15 -16 -15 -15 -15 -15 -15 -15 -14 -14 -14 -14 -14 -14 -14
-11 -11 -12 -12 -13 -13 -14 -14 -14 -15 -14 -15 -15 -14 -14 -14 -14 -14 -14 -14 -14 -15 -15 -15 -15 -15 -15 -15 -15 -15 -15 -15 -15 -15 -15 -15 -15 -15 -15 -15 -14 -14 -15 -15 -15 -15 -14